[[{"header":{"parameterUnit":"m.s-1","parameterCategory":1,"la1":31.0,"la2":29.5877,"lo1":-88.7671,"lo2":-86.6584,"dy":0.0162,"dx":0.0185,"nx":115,"ny":88,"refTime":"2024-03-29T06:00:00:Z","depth":0,"parameterNumber":2,"parameterNumberName":"U-component_of_WINDS"},"data":[0.0,0.0,0.0,0.0,0.0,0.0,0.0,0.0,0.0,0.0,0.0,0.0,0.0,0.0,0.0,0.0,0.0,0.0,0.0,0.0,0.0,0.0,0.0,0.0,0.0,0.0,0.0,0.0,0.0,0.0,0.0,0.0,0.0,0.0,0.0,0.0,0.0,0.0,0.0,0.0,0.0,0.0,0.0,0.0,0.0,0.0,0.0,0.0,0.0,0.0,0.0,0.0,0.0,0.0,0.0,0.0,0.0,0.0,0.0,0.0,0.0,0.0,0.0,0.0,0.0,0.0,0.0,0.0,0.0,0.0,0.0,0.0,0.0,0.0,0.0,0.0,0.0,0.0,0.0,0.0,0.0,0.0,0.0,0.0,0.0,0.0,0.0,0.0,0.0,0.0,0.0,0.0,0.0,0.0,0.0,0.0,0.0,0.0,0.0,0.0,0.0,0.0,0.0,0.0,0.0,0.0,0.0,0.0,0.0,0.0,0.0,0.0,0.0,0.0,0.0,0.0,0.0,0.0,0.0,0.0,0.0,0.0,0.0,0.0,0.0,0.0,0.0,0.0,0.0,0.0,0.0,0.0,0.0,0.0,0.0,0.0,0.0,0.0,0.0,0.0,0.0,0.0,0.0,0.0,0.0,0.0,0.0,0.0,0.0,0.0,0.0,0.0,0.0,0.0,0.0,0.0,0.0,0.0,0.0,0.0,0.0,0.0,0.0,0.0,0.0,0.0,0.0,0.0,0.0,0.0,0.0,0.0,0.0,0.0,0.0,0.0,0.0,0.0,0.0,0.0,0.0,0.0,0.0,0.0,0.0,0.0,0.0,0.0,0.0,0.0,0.0,0.0,0.0,0.0,0.0,0.0,0.0,0.0,0.0,0.0,0.0,0.0,0.0,0.0,0.0,0.0,0.0,0.0,0.0,0.0,0.0,0.0,0.0,0.0,0.0,0.0,0.0,0.0,0.0,0.0,0.0,0.0,0.0,0.0,0.0,0.0,0.0,0.0,0.0,0.0,0.0,0.0,0.0,0.0,0.0,0.0,0.0,0.0,0.0,0.0,0.0,0.0,0.0,0.0,0.0,0.0,0.0,0.0,0.0,0.0,0.0,0.0,0.0,0.0,0.0,0.0,0.0,0.0,0.0,0.0,0.0,0.0,0.0,0.0,0.0,0.0,0.0,0.0,0.0,0.0,0.0,0.0,0.0,0.0,0.0,0.0,0.0,0.0,0.0,0.0,0.0,0.0,0.0,0.0,0.0,0.0,0.0,0.0,0.0,0.0,0.0,0.0,0.0,0.0,0.0,0.0,0.0,0.0,0.0,0.0,0.0,0.0,0.0,0.0,0.0,0.0,0.0,0.0,0.0,0.0,0.0,0.0,0.0,0.0,0.0,0.0,0.0,0.0,0.0,0.0,0.0,0.0,0.0,0.0,0.0,0.0,0.0,0.0,0.0,0.0,0.0,0.0,0.0,0.0,0.0,0.0,0.0,0.0,0.0,0.0,0.0,0.0,0.0,0.0,0.0,0.0,0.0,0.0,0.0,0.0,0.0,0.0,0.0,0.0,0.0,0.0,0.0,0.0,0.0,0.0,0.0,0.0,0.0,0.0,0.0,0.0,0.0,0.0,0.0,0.0,0.0,0.0,0.0,0.0,0.0,0.0,0.0,0.0,0.0,0.0,0.0,0.0,0.0,0.0,0.0,0.0,0.0,0.0,0.0,0.0,0.0,0.0,0.0,0.0,0.0,0.0,0.0,0.0,0.0,0.0,0.0,0.0,0.0,0.0,0.0,0.0,0.0,0.0,0.0,0.0,0.0,0.0,0.0,0.0,0.0,0.0,0.0,0.0,0.0,0.0,0.0,0.0,0.0,0.0,0.0,0.0,0.0,0.0,0.0,0.0,0.0,0.0,0.0,0.0,0.0,0.0,0.0,0.0,0.0,0.0,0.0,0.0,0.0,0.0,0.0,0.0,0.0,0.0,0.0,0.0,0.0,0.0,0.0,0.0,0.0,0.0,0.0,0.0,0.0,0.0,0.0,0.0,0.0,0.0,0.0,0.0,0.0,0.0,0.0,0.0,0.0,0.0,0.0,0.0,0.0,0.0,0.0,0.0,0.0,0.0,0.0,0.0,0.0,0.0,0.0,0.0,0.0,0.0,0.0,0.0,0.0,0.0,0.0,0.0,0.0,0.0,0.0,0.0,0.0,0.0,0.0,0.0,0.0,0.0,0.0,0.0,0.0,0.0,0.0,0.0,0.0,0.0,0.0,0.0,0.0,0.0,0.0,0.0,0.0,0.0,0.0,0.0,0.0,0.0,0.0,0.0,0.0,0.0,0.0,0.0,0.0,0.0,0.0,0.0,0.0,0.0,0.0,0.0,0.0,0.0,0.0,0.0,0.0,0.0,0.0,0.0,0.0,0.0,0.0,0.0,0.0,0.0,0.0,0.0,0.0,0.0,0.0,0.0,0.0,0.0,0.0,0.0,0.0,0.0,0.0,0.0,0.0,0.0,0.0,0.0,0.0,0.0,0.0,0.0,0.0,0.0,0.0,0.0,0.0,0.0,0.0,0.0,0.0,0.0,0.0,0.0,0.0,0.0,0.0,0.0,0.0,0.0,0.0,0.0,0.0,0.0,0.0,0.0,0.0,0.0,0.0,0.0,0.0,0.0,0.0,0.0,0.0,0.0,0.0,0.0,0.0,0.0,0.0,0.0,0.0,0.0,0.0,0.0,0.0,0.0,0.0,0.0,0.0,0.0,0.0,0.0,0.0,0.0,0.0,0.0,0.0,0.0,0.0,0.0,0.0,0.0,0.0,0.0,0.0,0.0,0.0,0.0,0.0,0.0,0.0,0.0,0.0,0.0,0.0,0.0,0.0,0.0,0.0,0.0,0.0,0.0,0.0,0.0,0.0,0.0,0.0,0.0,0.0,0.0,0.0,0.0,0.0,0.0,0.0,0.0,0.0,0.0,0.0,0.0,0.0,0.0,0.0,0.0,0.0,0.0,0.0,0.0,0.0,0.0,0.0,0.0,0.0,0.0,0.0,0.0,0.0,0.0,0.0,0.0,0.0,0.0,0.0,0.0,0.0,0.0,0.0,0.0,0.0,0.0,0.0,0.0,0.0,0.0,0.0,0.0,0.0,0.0,0.0,0.0,0.0,0.0,0.0,0.0,0.0,0.0,0.0,0.0,0.0,0.0,0.0,0.0,0.0,0.0,0.0,0.0,0.0,0.0,0.0,0.0,0.0,0.0,0.0,0.0,0.0,0.0,0.0,0.0,0.0,0.0,0.0,0.0,0.0,0.0,0.0,0.0,0.0,0.0,0.0,0.0,0.0,0.0,0.0,0.0,0.0,0.0,0.0,0.0,0.0,0.0,0.0,0.0,0.0,0.0,0.0,0.0,0.0,0.0,0.0,0.0,0.0,0.0,0.0,0.0,0.0,0.0,0.0,0.0,0.0,0.0,0.0,0.0,0.0,0.0,0.0,0.0,0.0,0.0,0.0,0.0,0.0,0.0,0.0,0.0,0.0,0.0,0.0,0.0,0.0,0.0,0.0,0.0,0.0,0.0,0.0,0.0,0.0,0.0,0.0,0.0,0.0,0.0,0.0,0.0,0.0,0.0,0.0,0.0,0.0,0.0,0.0,0.0,0.0,0.0,0.0,0.0,0.0,0.0,0.0,0.0,0.0,0.0,0.0,0.0,0.0,0.0,0.0,0.0,0.0,0.0,0.0,0.0,0.0,0.0,0.0,0.0,0.0,0.0,0.0,0.0,0.0,0.0,0.0,0.0,0.0,0.0,0.0,0.0,0.0,0.0,0.0,0.0,0.0,0.0,0.0,0.0,0.0,0.0,0.0,0.0,0.0,0.0,0.0,0.0,0.0,0.0,0.0,0.0,0.0,0.0,0.0,0.0,0.0,0.0,0.0,0.0,0.0,0.0,0.0,0.0,0.0,0.0,0.0,0.0,0.0,0.0,0.0,0.0,0.0,0.0,0.0,0.0,0.0,0.0,0.0,0.0,0.0,0.0,0.0,0.0,0.0,0.0,0.0,0.0,0.0,0.0,0.0,0.0,0.0,0.0,0.0,0.0,0.0,0.0,0.0,0.0,0.0,0.0,0.0,0.0,0.0,0.0,0.0,0.0,0.0,0.0,0.0,0.0,0.0,0.0,0.0,0.0,0.0,0.0,0.0,0.0,0.0,0.0,0.0,0.0,0.0,0.0,0.0,0.0,0.0,0.0,0.0,0.0,0.0,0.0,0.0,0.0,-6.1484,0.0,0.0,0.0,0.0,0.0,0.0,0.0,0.0,0.0,0.0,0.0,0.0,0.0,0.0,0.0,0.0,0.0,0.0,0.0,0.0,0.0,0.0,0.0,0.0,0.0,0.0,0.0,0.0,0.0,0.0,0.0,0.0,0.0,0.0,0.0,0.0,0.0,0.0,0.0,0.0,0.0,0.0,0.0,0.0,0.0,0.0,0.0,0.0,0.0,0.0,0.0,0.0,0.0,0.0,0.0,0.0,0.0,0.0,0.0,0.0,0.0,0.0,0.0,0.0,0.0,0.0,0.0,0.0,0.0,0.0,0.0,0.0,0.0,0.0,0.0,0.0,0.0,0.0,0.0,0.0,0.0,0.0,0.0,0.0,0.0,0.0,0.0,0.0,0.0,0.0,0.0,0.0,0.0,0.0,0.0,0.0,0.0,0.0,0.0,0.0,0.0,0.0,0.0,0.0,0.0,0.0,0.0,0.0,0.0,0.0,-6.1596,-6.1584,-6.1563,-6.1564,-6.1534,0.0,0.0,0.0,0.0,0.0,0.0,0.0,0.0,0.0,0.0,0.0,0.0,0.0,0.0,0.0,0.0,0.0,0.0,0.0,0.0,0.0,0.0,0.0,0.0,0.0,0.0,0.0,0.0,0.0,0.0,0.0,0.0,0.0,0.0,0.0,0.0,0.0,0.0,0.0,0.0,0.0,0.0,0.0,0.0,0.0,0.0,0.0,0.0,0.0,0.0,0.0,0.0,0.0,0.0,0.0,0.0,0.0,0.0,0.0,0.0,0.0,0.0,0.0,0.0,0.0,0.0,0.0,0.0,0.0,0.0,0.0,0.0,0.0,0.0,0.0,0.0,0.0,0.0,0.0,0.0,0.0,0.0,0.0,0.0,0.0,0.0,0.0,0.0,0.0,0.0,0.0,0.0,0.0,0.0,0.0,0.0,0.0,0.0,0.0,0.0,0.0,0.0,0.0,0.0,0.0,0.0,0.0,0.0,0.0,0.0,0.0,0.0,-6.1608,-6.1513,-6.1276,0.0,0.0,0.0,0.0,0.0,0.0,0.0,0.0,0.0,0.0,0.0,0.0,0.0,0.0,0.0,0.0,0.0,0.0,0.0,0.0,0.0,0.0,0.0,0.0,0.0,0.0,0.0,0.0,0.0,0.0,0.0,0.0,0.0,0.0,0.0,0.0,0.0,0.0,0.0,0.0,0.0,0.0,0.0,0.0,0.0,0.0,0.0,0.0,0.0,0.0,0.0,0.0,0.0,0.0,0.0,0.0,0.0,0.0,0.0,0.0,0.0,0.0,0.0,0.0,0.0,0.0,0.0,0.0,0.0,0.0,0.0,0.0,0.0,0.0,0.0,0.0,0.0,0.0,0.0,0.0,0.0,0.0,0.0,0.0,0.0,0.0,0.0,0.0,0.0,0.0,0.0,0.0,0.0,0.0,0.0,0.0,0.0,0.0,0.0,0.0,0.0,0.0,0.0,0.0,0.0,0.0,0.0,0.0,0.0,0.0,-6.1696,-6.1693,-6.1623,0.0,-6.0419,0.0,0.0,0.0,0.0,0.0,0.0,0.0,0.0,0.0,0.0,0.0,0.0,0.0,0.0,0.0,0.0,0.0,0.0,0.0,0.0,0.0,0.0,0.0,0.0,0.0,0.0,0.0,0.0,0.0,0.0,0.0,0.0,0.0,0.0,0.0,0.0,0.0,0.0,0.0,0.0,0.0,0.0,0.0,0.0,0.0,0.0,0.0,0.0,0.0,0.0,0.0,0.0,0.0,0.0,0.0,0.0,0.0,0.0,0.0,0.0,0.0,0.0,0.0,0.0,0.0,0.0,0.0,0.0,0.0,0.0,0.0,0.0,0.0,0.0,0.0,0.0,0.0,0.0,0.0,0.0,0.0,0.0,0.0,0.0,0.0,0.0,0.0,0.0,0.0,0.0,0.0,0.0,0.0,0.0,0.0,0.0,0.0,0.0,0.0,0.0,0.0,0.0,0.0,0.0,0.0,0.0,0.0,0.0,0.0,0.0,-6.1718,-6.1699,-6.1139,-6.041,0.0,0.0,0.0,0.0,0.0,0.0,0.0,0.0,0.0,0.0,0.0,0.0,0.0,0.0,0.0,0.0,0.0,0.0,0.0,0.0,0.0,0.0,0.0,0.0,0.0,0.0,0.0,0.0,0.0,0.0,0.0,0.0,0.0,0.0,0.0,0.0,0.0,0.0,0.0,0.0,0.0,0.0,0.0,0.0,0.0,0.0,0.0,0.0,0.0,0.0,0.0,0.0,0.0,0.0,0.0,0.0,0.0,0.0,0.0,0.0,0.0,0.0,0.0,0.0,0.0,0.0,0.0,0.0,0.0,0.0,0.0,0.0,0.0,0.0,0.0,0.0,0.0,0.0,0.0,0.0,0.0,0.0,0.0,0.0,0.0,0.0,0.0,0.0,0.0,0.0,0.0,0.0,0.0,0.0,0.0,0.0,0.0,0.0,0.0,0.0,0.0,0.0,0.0,0.0,0.0,0.0,0.0,0.0,0.0,0.0,-6.1701,-6.1575,-6.1334,-6.0682,-5.9822,-5.8718,0.0,0.0,0.0,0.0,0.0,0.0,0.0,0.0,0.0,0.0,0.0,0.0,0.0,0.0,0.0,0.0,0.0,0.0,0.0,0.0,0.0,0.0,0.0,0.0,0.0,0.0,0.0,0.0,0.0,0.0,0.0,0.0,0.0,0.0,0.0,0.0,0.0,0.0,0.0,0.0,0.0,0.0,0.0,0.0,0.0,0.0,0.0,0.0,0.0,0.0,0.0,0.0,0.0,0.0,0.0,0.0,0.0,0.0,0.0,0.0,0.0,0.0,0.0,0.0,0.0,0.0,0.0,0.0,0.0,0.0,0.0,0.0,0.0,0.0,0.0,0.0,0.0,0.0,0.0,0.0,0.0,0.0,0.0,0.0,0.0,0.0,0.0,0.0,0.0,0.0,0.0,0.0,0.0,0.0,0.0,0.0,0.0,0.0,0.0,0.0,0.0,0.0,0.0,0.0,0.0,0.0,0.0,0.0,-6.1708,-6.1688,-6.1291,-6.0471,-6.0419,-5.9596,0.0,0.0,0.0,0.0,0.0,0.0,0.0,0.0,0.0,0.0,0.0,0.0,0.0,0.0,0.0,0.0,0.0,0.0,0.0,0.0,0.0,0.0,0.0,0.0,0.0,0.0,0.0,0.0,0.0,0.0,0.0,0.0,0.0,0.0,0.0,0.0,0.0,0.0,0.0,0.0,0.0,0.0,0.0,0.0,0.0,0.0,0.0,0.0,0.0,0.0,0.0,0.0,0.0,0.0,0.0,0.0,0.0,0.0,0.0,0.0,0.0,0.0,0.0,0.0,0.0,0.0,0.0,0.0,0.0,0.0,0.0,0.0,0.0,0.0,0.0,0.0,0.0,0.0,0.0,0.0,0.0,0.0,0.0,0.0,0.0,0.0,0.0,0.0,0.0,0.0,0.0,0.0,0.0,0.0,0.0,0.0,0.0,0.0,0.0,0.0,0.0,0.0,0.0,0.0,0.0,0.0,0.0,0.0,0.0,-6.1675,-6.1145,-6.0454,-5.9603,-5.9026,-5.8446,0.0,0.0,0.0,0.0,0.0,0.0,0.0,0.0,0.0,0.0,0.0,0.0,0.0,0.0,0.0,0.0,0.0,0.0,0.0,0.0,0.0,0.0,0.0,0.0,0.0,0.0,0.0,0.0,0.0,0.0,0.0,0.0,0.0,0.0,0.0,0.0,0.0,0.0,0.0,0.0,0.0,0.0,0.0,0.0,0.0,0.0,0.0,0.0,0.0,0.0,0.0,0.0,0.0,0.0,0.0,0.0,0.0,0.0,0.0,0.0,0.0,0.0,0.0,0.0,0.0,0.0,0.0,0.0,0.0,0.0,0.0,0.0,0.0,0.0,0.0,0.0,0.0,0.0,0.0,0.0,0.0,0.0,0.0,0.0,0.0,0.0,0.0,0.0,0.0,0.0,0.0,0.0,0.0,0.0,0.0,0.0,0.0,0.0,0.0,0.0,0.0,0.0,0.0,0.0,0.0,0.0,0.0,0.0,0.0,-6.0878,0.0,-5.96,-5.8737,-5.8121,-5.766,0.0,0.0,0.0,0.0,0.0,0.0,0.0,0.0,0.0,0.0,0.0,0.0,0.0,0.0,0.0,0.0,0.0,0.0,0.0,0.0,0.0,0.0,0.0,0.0,0.0,0.0,0.0,0.0,0.0,0.0,0.0,0.0,0.0,0.0,0.0,0.0,0.0,0.0,0.0,0.0,0.0,0.0,0.0,0.0,0.0,0.0,0.0,0.0,0.0,0.0,0.0,0.0,0.0,0.0,0.0,0.0,0.0,0.0,0.0,0.0,0.0,0.0,0.0,0.0,0.0,0.0,0.0,0.0,0.0,0.0,0.0,0.0,0.0,0.0,0.0,0.0,0.0,0.0,0.0,0.0,0.0,0.0,0.0,0.0,0.0,0.0,0.0,0.0,0.0,0.0,0.0,0.0,0.0,0.0,0.0,0.0,0.0,0.0,0.0,0.0,0.0,0.0,0.0,0.0,0.0,0.0,0.0,0.0,-5.998,-5.9238,-5.9198,-5.8767,-5.7947,-5.7801,-5.7379,0.0,0.0,0.0,0.0,0.0,0.0,0.0,0.0,0.0,0.0,0.0,0.0,0.0,0.0,0.0,0.0,0.0,0.0,0.0,0.0,0.0,0.0,0.0,0.0,0.0,0.0,0.0,0.0,0.0,0.0,0.0,0.0,0.0,0.0,0.0,0.0,0.0,0.0,0.0,0.0,0.0,0.0,0.0,0.0,0.0,0.0,0.0,0.0,0.0,0.0,0.0,0.0,0.0,0.0,0.0,0.0,0.0,0.0,0.0,0.0,0.0,0.0,0.0,0.0,0.0,0.0,0.0,0.0,0.0,0.0,0.0,0.0,0.0,0.0,0.0,0.0,0.0,0.0,0.0,0.0,0.0,0.0,0.0,0.0,0.0,0.0,0.0,0.0,0.0,0.0,0.0,0.0,0.0,0.0,0.0,0.0,0.0,0.0,0.0,0.0,0.0,0.0,0.0,0.0,0.0,0.0,0.0,0.0,0.0,-5.8319,-5.83,-5.789,-5.7048,-5.6988,-5.6846,0.0,0.0,0.0,0.0,0.0,0.0,0.0,0.0,0.0,0.0,0.0,0.0,0.0,0.0,0.0,0.0,0.0,0.0,0.0,0.0,0.0,0.0,0.0,0.0,0.0,0.0,0.0,0.0,0.0,0.0,0.0,0.0,0.0,0.0,0.0,0.0,0.0,0.0,0.0,0.0,0.0,0.0,0.0,0.0,0.0,0.0,0.0,0.0,0.0,0.0,0.0,0.0,0.0,0.0,0.0,0.0,0.0,0.0,0.0,0.0,0.0,0.0,0.0,0.0,0.0,0.0,0.0,0.0,0.0,0.0,0.0,0.0,0.0,0.0,0.0,0.0,0.0,0.0,0.0,0.0,0.0,0.0,0.0,0.0,0.0,0.0,0.0,0.0,0.0,0.0,0.0,0.0,0.0,0.0,0.0,0.0,0.0,0.0,0.0,0.0,0.0,0.0,0.0,0.0,0.0,0.0,0.0,0.0,0.0,-5.7415,-5.7417,-5.7166,-5.6621,-5.662,-5.6618,-5.661,0.0,0.0,0.0,0.0,0.0,0.0,0.0,0.0,0.0,0.0,0.0,0.0,0.0,0.0,0.0,0.0,0.0,0.0,0.0,0.0,0.0,0.0,0.0,0.0,0.0,0.0,0.0,0.0,0.0,0.0,0.0,0.0,0.0,0.0,0.0,0.0,0.0,0.0,0.0,0.0,0.0,0.0,0.0,0.0,0.0,0.0,0.0,0.0,0.0,0.0,0.0,0.0,0.0,0.0,0.0,0.0,0.0,0.0,0.0,0.0,0.0,0.0,0.0,0.0,0.0,0.0,0.0,0.0,0.0,0.0,0.0,0.0,0.0,0.0,0.0,0.0,0.0,0.0,0.0,0.0,0.0,0.0,0.0,0.0,0.0,0.0,0.0,0.0,0.0,0.0,0.0,0.0,0.0,0.0,0.0,0.0,0.0,0.0,0.0,0.0,0.0,0.0,0.0,0.0,0.0,0.0,0.0,0.0,-5.6598,-5.6588,-5.6594,-5.6618,-5.662,-5.6621,0.0,0.0,0.0,0.0,0.0,0.0,0.0,0.0,0.0,0.0,0.0,0.0,0.0,0.0,0.0,0.0,0.0,0.0,0.0,0.0,0.0,0.0,0.0,0.0,0.0,0.0,0.0,0.0,0.0,0.0,0.0,0.0,0.0,0.0,0.0,0.0,0.0,0.0,0.0,0.0,0.0,0.0,0.0,0.0,0.0,0.0,0.0,0.0,0.0,0.0,0.0,0.0,0.0,0.0,0.0,0.0,0.0,0.0,0.0,0.0,0.0,0.0,0.0,0.0,0.0,0.0,0.0,0.0,0.0,0.0,0.0,0.0,0.0,0.0,0.0,0.0,0.0,0.0,0.0,0.0,0.0,0.0,0.0,0.0,0.0,0.0,0.0,0.0,0.0,0.0,0.0,0.0,0.0,0.0,0.0,0.0,0.0,0.0,0.0,0.0,0.0,0.0,0.0,0.0,0.0,0.0,0.0,0.0,0.0,-5.6523,-5.6516,-5.6556,-5.6594,-5.6615,-5.6619,0.0,0.0,0.0,0.0,0.0,0.0,0.0,0.0,0.0,0.0,0.0,0.0,0.0,0.0,0.0,0.0,0.0,0.0,0.0,0.0,0.0,0.0,0.0,0.0,0.0,0.0,0.0,0.0,0.0,0.0,0.0,0.0,0.0,0.0,0.0,0.0,0.0,0.0,0.0,0.0,0.0,0.0,0.0,0.0,0.0,0.0,0.0,0.0,0.0,0.0,0.0,0.0,0.0,0.0,0.0,0.0,0.0,0.0,0.0,0.0,0.0,0.0,0.0,0.0,0.0,0.0,0.0,0.0,0.0,0.0,0.0,0.0,0.0,0.0,0.0,0.0,0.0,0.0,0.0,0.0,0.0,0.0,0.0,0.0,0.0,0.0,0.0,0.0,0.0,0.0,0.0,0.0,0.0,0.0,0.0,0.0,0.0,0.0,0.0,0.0,0.0,0.0,0.0,0.0,0.0,0.0,0.0,0.0,-5.6485,-5.6485,-5.6491,-5.6531,-5.6552,-5.6584,-5.6612,0.0,0.0,0.0,0.0,0.0,0.0,0.0,0.0,0.0,0.0,0.0,0.0,0.0,0.0,0.0,0.0,0.0,0.0,0.0,0.0,0.0,0.0,0.0,0.0,0.0,0.0,0.0,0.0,0.0,0.0,0.0,0.0,0.0,0.0,0.0,0.0,0.0,0.0,0.0,0.0,0.0,0.0,0.0,0.0,0.0,0.0,0.0,0.0,0.0,0.0,0.0,0.0,0.0,0.0,0.0,0.0,0.0,0.0,0.0,0.0,0.0,0.0,0.0,0.0,0.0,0.0,0.0,0.0,0.0,0.0,0.0,0.0,0.0,0.0,0.0,0.0,0.0,0.0,0.0,0.0,0.0,0.0,0.0,0.0,0.0,0.0,0.0,0.0,0.0,0.0,0.0,0.0,0.0,0.0,0.0,0.0,0.0,0.0,0.0,0.0,0.0,0.0,0.0,0.0,0.0,0.0,0.0,0.0,-5.6491,-5.6491,-5.6494,-5.6498,-5.6498,-5.6543,-5.6584,0.0,0.0,0.0,0.0,0.0,0.0,0.0,0.0,0.0,0.0,0.0,0.0,0.0,0.0,0.0,0.0,0.0,0.0,0.0,0.0,0.0,0.0,0.0,0.0,0.0,0.0,0.0,0.0,0.0,0.0,0.0,0.0,0.0,0.0,0.0,0.0,0.0,0.0,0.0,0.0,0.0,0.0,0.0,0.0,0.0,0.0,0.0,0.0,0.0,0.0,0.0,0.0,0.0,0.0,0.0,0.0,0.0,0.0,0.0,0.0,0.0,0.0,0.0,0.0,0.0,0.0,0.0,0.0,0.0,0.0,0.0,0.0,0.0,0.0,0.0,0.0,0.0,0.0,0.0,0.0,0.0,0.0,0.0,0.0,0.0,0.0,0.0,0.0,0.0,0.0,0.0,0.0,0.0,0.0,0.0,0.0,0.0,0.0,0.0,0.0,0.0,0.0,0.0,0.0,0.0,0.0,0.0,0.0,-5.6422,-5.6422,-5.642,-5.6422,-5.6422,-5.6494,-5.6521,0.0,0.0,0.0,0.0,0.0,0.0,0.0,0.0,0.0,0.0,0.0,0.0,0.0,0.0,0.0,0.0,0.0,0.0,0.0,0.0,0.0,0.0,0.0,0.0,0.0,0.0,0.0,0.0,0.0,0.0,0.0,0.0,0.0,0.0,0.0,0.0,0.0,0.0,0.0,0.0,0.0,0.0,0.0,0.0,0.0,0.0,0.0,0.0,-5.8536,0.0,0.0,0.0,0.0,0.0,0.0,0.0,0.0,0.0,0.0,0.0,0.0,0.0,0.0,0.0,0.0,0.0,0.0,0.0,0.0,0.0,0.0,0.0,0.0,0.0,0.0,0.0,0.0,0.0,0.0,0.0,0.0,0.0,0.0,0.0,0.0,0.0,0.0,0.0,0.0,0.0,0.0,0.0,0.0,0.0,0.0,0.0,0.0,0.0,0.0,0.0,0.0,0.0,0.0,0.0,0.0,0.0,0.0,0.0,-5.6406,-5.6391,-5.6398,-5.6393,-5.6398,-5.643,-5.6465,0.0,0.0,0.0,0.0,0.0,0.0,0.0,0.0,0.0,0.0,0.0,0.0,0.0,0.0,0.0,0.0,0.0,0.0,0.0,0.0,0.0,0.0,0.0,0.0,0.0,0.0,0.0,0.0,0.0,0.0,0.0,0.0,0.0,0.0,0.0,0.0,0.0,0.0,0.0,0.0,0.0,0.0,0.0,0.0,0.0,0.0,0.0,0.0,0.0,0.0,0.0,0.0,0.0,0.0,0.0,0.0,0.0,0.0,0.0,0.0,0.0,0.0,0.0,0.0,0.0,0.0,0.0,0.0,0.0,0.0,0.0,0.0,0.0,0.0,0.0,0.0,0.0,0.0,0.0,0.0,0.0,0.0,0.0,0.0,0.0,0.0,0.0,0.0,0.0,0.0,0.0,0.0,0.0,0.0,0.0,0.0,0.0,0.0,0.0,0.0,0.0,0.0,0.0,0.0,0.0,0.0,0.0,-5.6358,-5.6364,-5.637,-5.6375,-5.6395,-5.6381,-5.6393,-5.6433,-5.6484,0.0,0.0,0.0,0.0,0.0,0.0,0.0,0.0,0.0,0.0,0.0,0.0,0.0,0.0,0.0,0.0,0.0,0.0,0.0,0.0,0.0,0.0,0.0,0.0,0.0,0.0,0.0,0.0,0.0,0.0,0.0,0.0,0.0,0.0,0.0,0.0,0.0,0.0,-5.6617,-5.6715,0.0,0.0,0.0,0.0,0.0,0.0,0.0,0.0,-5.9489,0.0,0.0,0.0,0.0,0.0,0.0,0.0,0.0,0.0,0.0,0.0,0.0,0.0,0.0,0.0,0.0,0.0,0.0,0.0,0.0,0.0,0.0,0.0,0.0,0.0,0.0,0.0,0.0,0.0,0.0,0.0,0.0,0.0,0.0,0.0,0.0,0.0,0.0,0.0,0.0,0.0,0.0,0.0,0.0,0.0,0.0,0.0,0.0,0.0,0.0,0.0,0.0,0.0,0.0,0.0,0.0,-5.6236,-5.6236,-5.6231,-5.6226,-5.6278,-5.6303,-5.6333,-5.6367,-5.6407,-5.6437,0.0,0.0,0.0,0.0,0.0,0.0,0.0,0.0,0.0,0.0,0.0,0.0,0.0,0.0,0.0,0.0,0.0,0.0,0.0,0.0,0.0,0.0,0.0,0.0,0.0,0.0,0.0,0.0,0.0,0.0,0.0,0.0,0.0,0.0,0.0,0.0,0.0,0.0,0.0,-5.7222,-5.773,0.0,0.0,0.0,0.0,0.0,0.0,0.0,0.0,-6.1285,0.0,0.0,0.0,0.0,0.0,0.0,0.0,0.0,0.0,0.0,0.0,0.0,0.0,0.0,0.0,0.0,0.0,0.0,0.0,0.0,0.0,0.0,0.0,0.0,0.0,0.0,0.0,0.0,0.0,0.0,0.0,0.0,0.0,0.0,0.0,0.0,0.0,0.0,0.0,0.0,0.0,0.0,0.0,0.0,0.0,0.0,0.0,0.0,0.0,0.0,0.0,0.0,0.0,0.0,0.0,-5.6218,-5.6218,-5.6206,-5.6209,-5.6231,-5.6245,-5.6246,-5.6317,-5.6127,0.0,0.0,0.0,0.0,0.0,0.0,0.0,0.0,0.0,0.0,0.0,0.0,0.0,0.0,0.0,0.0,0.0,0.0,0.0,0.0,0.0,0.0,0.0,0.0,0.0,0.0,0.0,0.0,0.0,0.0,0.0,0.0,0.0,0.0,0.0,0.0,0.0,0.0,0.0,0.0,-5.7335,-5.8057,-5.8468,0.0,0.0,0.0,0.0,0.0,0.0,-6.1709,-6.1709,0.0,0.0,0.0,0.0,0.0,0.0,0.0,0.0,0.0,0.0,0.0,0.0,0.0,0.0,0.0,0.0,0.0,0.0,0.0,0.0,0.0,0.0,0.0,0.0,0.0,0.0,0.0,0.0,0.0,0.0,0.0,0.0,0.0,0.0,0.0,0.0,0.0,0.0,0.0,0.0,0.0,0.0,0.0,0.0,0.0,0.0,0.0,0.0,0.0,0.0,0.0,0.0,0.0,0.0,0.0,-5.6145,-5.6125,-5.6153,-5.6141,-5.5994,-5.5905,-5.592,-5.5811,-5.5437,0.0,0.0,0.0,0.0,0.0,0.0,0.0,0.0,0.0,0.0,0.0,0.0,0.0,0.0,0.0,0.0,0.0,0.0,0.0,0.0,0.0,0.0,0.0,0.0,0.0,0.0,0.0,0.0,0.0,0.0,0.0,0.0,0.0,0.0,0.0,0.0,0.0,0.0,0.0,0.0,0.0,-5.844,-5.9241,-6.0098,0.0,0.0,0.0,0.0,-6.168,-6.168,0.0,0.0,0.0,0.0,0.0,0.0,0.0,0.0,0.0,0.0,0.0,0.0,0.0,0.0,0.0,0.0,0.0,0.0,0.0,0.0,0.0,0.0,0.0,0.0,0.0,0.0,0.0,0.0,0.0,0.0,0.0,0.0,0.0,0.0,0.0,0.0,0.0,0.0,0.0,0.0,0.0,0.0,0.0,0.0,0.0,0.0,0.0,0.0,0.0,0.0,0.0,0.0,0.0,0.0,0.0,0.0,-5.5933,-5.5933,-5.5933,-5.5901,-5.523,-5.4904,-5.4944,-5.428,-5.3875,0.0,0.0,0.0,0.0,0.0,0.0,0.0,0.0,0.0,0.0,0.0,0.0,0.0,0.0,0.0,0.0,0.0,0.0,0.0,0.0,0.0,0.0,0.0,0.0,0.0,0.0,0.0,0.0,0.0,0.0,0.0,0.0,0.0,0.0,0.0,0.0,0.0,0.0,0.0,0.0,0.0,-5.9264,-6.0123,-6.0945,-6.1511,0.0,0.0,-6.1609,-6.1609,-6.1609,0.0,0.0,0.0,0.0,0.0,0.0,0.0,0.0,0.0,0.0,0.0,0.0,0.0,0.0,0.0,0.0,0.0,0.0,0.0,0.0,0.0,0.0,0.0,0.0,0.0,0.0,0.0,0.0,0.0,0.0,0.0,0.0,0.0,0.0,0.0,0.0,0.0,0.0,0.0,0.0,0.0,0.0,0.0,0.0,0.0,0.0,0.0,0.0,0.0,0.0,0.0,0.0,0.0,0.0,0.0,-5.5152,-5.5152,-5.4709,-5.4486,-5.4476,-5.4146,-5.398,-5.4016,-5.366,-5.3286,0.0,0.0,0.0,0.0,0.0,0.0,0.0,0.0,0.0,0.0,0.0,0.0,0.0,0.0,0.0,0.0,0.0,0.0,0.0,0.0,0.0,0.0,0.0,0.0,0.0,0.0,0.0,0.0,0.0,0.0,0.0,0.0,0.0,0.0,0.0,0.0,0.0,0.0,0.0,0.0,0.0,0.0,-6.0269,-6.1077,0.0,0.0,0.0,-6.156,-6.1541,0.0,0.0,0.0,0.0,0.0,0.0,0.0,0.0,0.0,0.0,0.0,0.0,0.0,0.0,0.0,0.0,0.0,0.0,0.0,0.0,0.0,0.0,0.0,0.0,0.0,0.0,0.0,0.0,0.0,0.0,0.0,0.0,0.0,0.0,0.0,0.0,0.0,0.0,0.0,0.0,0.0,0.0,0.0,0.0,0.0,0.0,0.0,0.0,0.0,0.0,0.0,0.0,0.0,0.0,0.0,0.0,0.0,-5.4178,-5.36,-5.3292,-5.3292,-5.3138,-5.3022,-5.3041,-5.2854,0.0,0.0,0.0,0.0,0.0,0.0,0.0,0.0,0.0,0.0,0.0,0.0,0.0,0.0,0.0,0.0,0.0,0.0,0.0,0.0,0.0,0.0,0.0,0.0,0.0,0.0,0.0,-5.4003,0.0,0.0,0.0,0.0,0.0,0.0,0.0,0.0,0.0,0.0,0.0,0.0,0.0,0.0,-5.944,-6.0527,-6.1197,-6.1578,0.0,0.0,-6.149,-6.149,-6.1544,-6.1578,0.0,0.0,0.0,0.0,0.0,0.0,0.0,0.0,0.0,0.0,0.0,0.0,0.0,0.0,0.0,0.0,0.0,0.0,0.0,0.0,0.0,0.0,0.0,0.0,0.0,0.0,0.0,0.0,0.0,0.0,0.0,0.0,0.0,0.0,0.0,0.0,0.0,0.0,0.0,0.0,0.0,0.0,0.0,0.0,0.0,0.0,0.0,0.0,0.0,0.0,0.0,0.0,0.0,0.0,-5.3091,-5.3111,-5.3053,-5.3007,-5.3007,-5.2354,-5.2001,-5.2001,-5.1355,-5.0964,0.0,0.0,0.0,0.0,0.0,0.0,0.0,0.0,0.0,0.0,0.0,0.0,0.0,0.0,0.0,0.0,0.0,0.0,0.0,0.0,0.0,0.0,0.0,0.0,0.0,0.0,0.0,0.0,0.0,0.0,0.0,0.0,0.0,0.0,0.0,0.0,0.0,0.0,0.0,0.0,0.0,-5.953,-6.1203,-6.147,-6.1509,0.0,-6.149,-6.149,-6.149,-6.149,-6.149,-6.1509,0.0,0.0,0.0,0.0,0.0,0.0,0.0,0.0,0.0,0.0,0.0,0.0,0.0,0.0,0.0,0.0,0.0,0.0,0.0,0.0,0.0,0.0,0.0,0.0,0.0,0.0,0.0,0.0,0.0,0.0,0.0,0.0,0.0,0.0,0.0,0.0,0.0,0.0,0.0,0.0,0.0,0.0,0.0,0.0,0.0,0.0,0.0,0.0,0.0,0.0,0.0,0.0,0.0,-5.2256,-5.2256,-5.1738,-5.1478,-5.1439,-5.1176,-5.1024,-5.1024,-5.0749,-5.0625,0.0,0.0,0.0,0.0,0.0,0.0,0.0,0.0,0.0,0.0,0.0,0.0,0.0,0.0,0.0,0.0,0.0,0.0,0.0,0.0,0.0,0.0,0.0,0.0,0.0,0.0,0.0,0.0,-5.4137,-5.4892,-5.629,0.0,0.0,0.0,0.0,0.0,0.0,0.0,0.0,0.0,0.0,-6.0141,-6.1328,-6.1466,0.0,0.0,-6.1401,-6.1381,-6.1378,-6.1373,-6.1368,-6.1368,-6.1408,0.0,0.0,0.0,0.0,0.0,0.0,0.0,0.0,0.0,0.0,0.0,0.0,0.0,0.0,0.0,0.0,0.0,0.0,0.0,0.0,0.0,0.0,0.0,0.0,0.0,0.0,0.0,0.0,0.0,0.0,0.0,0.0,0.0,0.0,0.0,0.0,0.0,0.0,0.0,0.0,0.0,0.0,0.0,0.0,0.0,0.0,0.0,0.0,0.0,0.0,0.0,0.0,-5.1301,-5.1301,-5.0688,-5.0371,-5.0401,-5.0393,-5.0416,-5.0457,-5.0468,-5.0502,0.0,0.0,0.0,0.0,0.0,0.0,0.0,0.0,0.0,0.0,0.0,0.0,0.0,0.0,0.0,0.0,0.0,0.0,0.0,0.0,0.0,0.0,0.0,0.0,0.0,0.0,0.0,0.0,-5.4256,-5.5044,-5.6275,0.0,0.0,0.0,0.0,0.0,0.0,0.0,0.0,0.0,0.0,-6.045,-6.1305,-6.1401,-6.1381,-6.1364,-6.1322,-6.131,-6.1306,-6.1302,-6.1306,-6.1306,0.0,0.0,0.0,0.0,0.0,0.0,0.0,0.0,0.0,0.0,0.0,0.0,0.0,0.0,0.0,0.0,0.0,0.0,0.0,0.0,0.0,0.0,0.0,0.0,0.0,0.0,0.0,-5.5504,0.0,0.0,-5.5504,0.0,0.0,0.0,0.0,0.0,0.0,0.0,0.0,0.0,0.0,0.0,0.0,0.0,0.0,0.0,0.0,0.0,0.0,0.0,0.0,0.0,0.0,-5.0177,-5.0139,-5.0139,-5.012,-5.012,-5.0182,-5.0255,-5.0302,-5.0359,-5.0435,-5.05,0.0,0.0,0.0,0.0,0.0,0.0,0.0,0.0,0.0,0.0,0.0,0.0,0.0,0.0,0.0,0.0,0.0,0.0,0.0,0.0,0.0,0.0,0.0,0.0,0.0,0.0,-5.3618,-5.5316,-5.6328,0.0,0.0,0.0,0.0,0.0,0.0,0.0,0.0,0.0,-5.8709,-5.9506,-6.0328,-6.117,-6.1306,-6.1306,-6.1306,-6.1306,-6.1297,-6.1297,-6.1297,-6.1317,0.0,0.0,0.0,0.0,0.0,0.0,0.0,0.0,0.0,0.0,0.0,0.0,0.0,0.0,0.0,0.0,0.0,0.0,0.0,0.0,0.0,0.0,0.0,0.0,0.0,0.0,0.0,-5.5223,-5.5242,0.0,0.0,0.0,0.0,0.0,0.0,0.0,0.0,0.0,0.0,0.0,-5.3091,-5.3072,0.0,0.0,0.0,0.0,0.0,0.0,0.0,0.0,0.0,0.0,0.0,0.0,-5.0108,-5.0108,-5.0108,-5.0108,-5.0108,-5.012,-5.0145,-5.017,-5.0194,-5.0255,-5.0359,0.0,0.0,0.0,0.0,0.0,0.0,0.0,0.0,0.0,0.0,0.0,0.0,0.0,0.0,0.0,0.0,0.0,0.0,0.0,0.0,0.0,0.0,0.0,0.0,0.0,-5.1806,0.0,0.0,0.0,0.0,0.0,0.0,0.0,0.0,0.0,0.0,0.0,-5.8614,-5.9491,-6.0336,-6.0968,-6.1259,-6.1317,-6.1289,0.0,0.0,0.0,0.0,0.0,0.0,0.0,0.0,0.0,0.0,0.0,0.0,0.0,0.0,-6.1183,-6.1302,-6.1345,-6.131,-6.1242,0.0,0.0,0.0,0.0,0.0,0.0,0.0,0.0,0.0,0.0,0.0,0.0,0.0,0.0,-5.5042,-5.5042,-5.5042,0.0,0.0,0.0,0.0,0.0,0.0,0.0,0.0,-5.2731,-5.2294,-5.2009,-5.2009,-5.1564,-5.0751,-5.0751,-5.0759,0.0,0.0,0.0,0.0,0.0,0.0,0.0,0.0,-4.9965,-4.9965,-4.9965,-4.9952,-4.9965,-4.9952,-4.9965,-5.0011,-5.0044,-5.012,-5.0231,-5.0267,-5.0325,0.0,0.0,0.0,0.0,0.0,0.0,0.0,0.0,0.0,0.0,0.0,0.0,0.0,0.0,0.0,0.0,0.0,0.0,0.0,0.0,0.0,0.0,0.0,-5.2419,0.0,0.0,0.0,0.0,0.0,0.0,0.0,0.0,0.0,-5.7296,-5.8141,-5.8986,-5.9813,-6.0676,-6.1201,-6.1203,0.0,0.0,0.0,0.0,0.0,0.0,0.0,-6.1006,-6.1006,-6.1006,-6.1006,-6.1006,-6.1006,-6.1006,-6.1006,0.0,0.0,-6.1175,-6.1203,-6.1194,-6.1157,-6.1147,-6.1118,-6.107,-6.1021,-6.0971,0.0,0.0,0.0,0.0,-5.4689,0.0,0.0,0.0,-5.4856,-5.4886,0.0,-5.4886,0.0,0.0,0.0,0.0,-5.3433,-5.2624,0.0,0.0,-5.2119,-5.1669,-5.0896,-5.0858,-5.0447,-4.973,-4.9711,-4.9711,-4.9711,-4.9769,0.0,0.0,0.0,0.0,0.0,0.0,-4.9711,-4.9726,-4.9707,-4.9726,-4.9726,-4.9726,-4.9736,-4.9807,-4.9925,-5.0018,-5.0082,-5.0095,-5.0133,-5.0207,-5.0248,0.0,0.0,0.0,0.0,0.0,0.0,0.0,0.0,0.0,0.0,0.0,0.0,0.0,0.0,0.0,0.0,0.0,0.0,0.0,0.0,-5.2605,0.0,0.0,0.0,0.0,0.0,0.0,0.0,0.0,0.0,-5.6411,-5.7342,-5.8109,-5.8899,-5.9755,0.0,0.0,0.0,0.0,-6.1017,-6.1017,-6.1017,-6.1006,-6.0987,-6.1006,-6.0995,-6.1034,0.0,0.0,-6.1092,-6.1073,-6.113,-6.1073,-6.1139,-6.1053,-6.1111,-6.1055,-6.0997,-6.1006,-6.0987,-6.0987,-6.0976,-6.0914,-6.088,-5.4214,0.0,0.0,0.0,0.0,-5.4538,-5.4587,-5.4587,-5.472,-5.4752,-5.4752,-5.4752,0.0,0.0,0.0,0.0,0.0,0.0,-5.1269,-5.1235,-5.0688,-5.0292,-5.0032,-5.0051,-4.9841,-4.9476,-4.9495,-4.943,-4.934,-4.9374,-4.948,-4.9692,0.0,0.0,0.0,0.0,-4.9711,-4.9711,-4.9711,-4.9711,-4.9711,-4.9711,-4.9726,-4.974,-4.9764,-4.9802,-4.989,-4.9939,-4.9992,-5.007,-5.012,0.0,0.0,0.0,0.0,0.0,0.0,0.0,0.0,0.0,0.0,0.0,0.0,0.0,0.0,0.0,0.0,0.0,0.0,0.0,-5.1749,-5.2762,-5.3632,0.0,0.0,0.0,0.0,0.0,0.0,0.0,0.0,0.0,-5.8008,-5.8307,-5.9012,0.0,0.0,-6.1008,-6.1017,-6.1006,-6.1006,-6.1006,-6.0955,0.0,-6.0858,-6.0804,-6.095,-6.1478,-6.21,-6.249,-6.2503,-6.2503,-6.249,-6.249,-6.249,-6.251,-6.2445,-6.1612,-6.0977,-6.0793,-6.0788,-6.0777,-6.0729,-6.0704,-6.0711,-5.3813,-5.3944,-5.409,-5.4216,-5.4268,-5.4301,-5.4354,-5.4335,-5.4422,-5.4458,-5.4458,-5.4458,-5.427,-5.3912,-5.2728,0.0,0.0,0.0,-5.0228,-5.0209,-4.9739,-4.9495,-4.9514,-4.9514,-4.9434,-4.9321,-4.9305,-4.9276,-4.9197,-4.9197,-4.9292,-4.948,0.0,-4.9495,-4.9495,-4.9495,-4.9514,-4.9514,-4.9514,-4.9514,-4.9514,-4.9525,-4.9555,-4.9585,-4.9634,-4.9692,-4.975,-4.9807,-4.9843,-4.9885,-4.9939,-4.9992,0.0,0.0,0.0,0.0,0.0,0.0,0.0,0.0,0.0,0.0,0.0,-5.0692,-5.0711,0.0,0.0,0.0,-5.072,-5.1066,-5.1943,-5.28,0.0,0.0,0.0,0.0,0.0,0.0,0.0,-5.5875,-5.6607,-5.7424,-5.8212,-5.8575,-5.9298,-6.0762,-6.0955,-6.0955,-6.0933,0.0,-6.088,-6.088,-6.1093,-6.1245,-6.1209,-6.146,-6.1806,-6.2247,-6.2732,-6.3083,-6.3115,-6.3115,-6.3102,-6.3075,-6.3061,-6.3028,-6.2973,-6.2207,-6.1646,-6.1646,-6.1646,-6.162,-6.1561,-6.1535,-6.1494,-5.3461,-5.3501,-5.3889,-5.4055,-5.4055,-5.4055,-5.4054,-5.4073,-5.4091,-5.4091,-5.4091,-5.4034,-5.353,-5.2614,-5.1084,0.0,-5.0262,-4.9531,-4.9214,-4.9197,-4.9197,-4.9197,-4.9197,-4.9214,-4.9197,-4.9197,-4.9197,-4.9197,-4.9162,-4.9162,-4.9162,-4.9162,-4.9181,-4.9197,-4.9197,-4.9195,-4.9197,-4.9214,-4.9214,-4.9214,-4.9195,-4.926,-4.9321,-4.9384,-4.9495,-4.9589,-4.9648,-4.9663,-4.9678,-4.9678,-4.975,-4.9816,-4.9866,0.0,0.0,0.0,0.0,0.0,0.0,0.0,0.0,0.0,0.0,0.0,0.0,0.0,0.0,0.0,-5.0596,0.0,-5.1894,-5.2771,0.0,0.0,0.0,-5.5875,-5.5875,-5.5875,-5.5875,-5.5873,0.0,0.0,-5.8189,-5.8942,-5.9765,-6.075,-6.0869,-6.0846,-6.08,-6.0741,-6.0704,-6.0832,-6.1365,-6.1812,-6.1908,-6.2571,-6.308,-6.3138,-6.3228,-6.3368,-6.3368,-6.3349,-6.3264,-6.3289,-6.3193,-6.3169,-6.2944,-6.2982,-6.2971,-6.3225,-6.308,-6.299,-6.283,-6.2772,-6.2676,-5.317,-5.3274,-5.3422,-5.3542,-5.3639,-5.3718,-5.3775,-5.3888,-5.3926,-5.4,-5.4072,-5.3455,-5.2371,-5.0953,-5.0579,-5.0056,-4.9475,-4.9272,-4.9197,-4.9197,-4.9197,-4.9197,-4.9197,-4.9197,-4.9164,-4.9135,-4.9116,-4.9083,-4.8978,-4.8978,-4.8978,-4.8978,-4.8978,-4.9046,-4.9179,-4.9197,-4.9197,-4.9197,-4.9197,-4.9197,-4.9195,-4.923,-4.9228,-4.9262,-4.9276,-4.9311,-4.9308,-4.9418,-4.9476,-4.9476,-4.9648,-4.9736,-4.9731,-4.9764,0.0,0.0,0.0,0.0,0.0,0.0,0.0,0.0,0.0,-5.0416,-5.0446,0.0,-5.0513,0.0,-5.0523,-5.1137,-5.2596,-5.2933,0.0,0.0,-5.547,-5.5585,-5.5585,-5.5585,-5.5854,-5.6502,-5.7316,-5.8148,-5.8948,-5.976,-6.0387,-6.0648,-6.0667,-6.0648,-6.0655,-6.0642,-6.086,-6.1397,-6.1691,-6.2029,-6.2651,-6.3317,-6.3798,-6.3783,-6.4287,-6.4699,-6.4699,-6.4699,-6.4702,-6.4667,-6.4686,-6.4651,-6.4565,-6.4603,-6.46,-6.4607,-6.3653,-6.2719,-6.2689,-6.2711,-6.2677,-5.2955,-5.3002,-5.3066,-5.313,-5.3214,-5.3442,-5.36,-5.3659,-5.3717,-5.3571,-5.3219,-5.2084,-5.108,-5.0204,-4.9868,-4.9457,-4.9081,-4.9062,-4.9062,-4.9062,-4.9044,-4.9062,-4.9062,-4.9062,-4.9047,-4.8996,-4.9015,-4.8979,-4.889,-4.8874,-4.8875,-4.8856,-4.8785,-4.882,-4.8925,-4.9029,-4.9062,-4.9062,-4.9062,-4.9062,-4.9062,-4.9131,-4.9166,-4.9166,-4.9181,-4.9197,-4.9195,-4.9276,-4.9324,-4.9324,-4.9418,-4.9495,-4.9555,-4.957,-4.9615,0.0,0.0,0.0,0.0,0.0,0.0,0.0,0.0,0.0,0.0,0.0,-5.0325,-5.0325,-5.0688,-5.1434,-5.2695,-5.3197,-5.3955,-5.5249,-5.5395,-5.542,-5.5456,-5.5456,-5.5794,-5.67,-5.7531,-5.8368,-5.9141,-5.9989,-6.0512,-6.0493,-6.0504,-6.0518,-6.0578,-6.0578,-6.0839,-6.1605,-6.203,-6.2682,-6.3779,-6.4295,-6.4537,-6.4559,-6.4924,-6.518,-6.518,-6.518,-6.5163,-6.5097,-6.5063,-6.5027,-6.4941,-6.4924,-6.4942,-6.481,-6.4184,-6.3594,-6.3605,-6.3569,-6.3517,-5.2735,-5.2761,-5.2779,-5.2761,-5.2828,-5.3235,-5.342,-5.344,-5.3348,-5.2796,-5.1893,-5.0508,-4.988,-4.9769,-4.9084,-4.8822,-4.8874,-4.8855,-4.8855,-4.8874,-4.8855,-4.8874,-4.8874,-4.8874,-4.8855,-4.8874,-4.8855,-4.8855,-4.8855,-4.8804,-4.8768,-4.8769,-4.8641,-4.8587,-4.8587,-4.8785,-4.8855,-4.8874,-4.8891,-4.8891,-4.8891,-4.9015,-4.9084,-4.9084,-4.9131,-4.9181,-4.9146,-4.9181,-4.9181,-4.9197,-4.9197,-4.9244,-4.9368,-4.9384,-4.9446,0.0,-4.9663,0.0,0.0,0.0,0.0,0.0,0.0,0.0,0.0,-5.0082,-5.0095,-5.0095,-5.0875,-5.1725,-5.2538,-5.3434,-5.4312,-5.5075,-5.5242,-5.5294,-5.5339,-5.5351,-5.5766,-5.6785,-5.7519,-5.8278,-5.924,-5.9963,-6.0361,-6.0342,-6.0304,-6.0332,-6.0518,-6.06,-6.0961,-6.1706,-6.2561,-6.3672,-6.4772,-6.5139,-6.5106,-6.5144,-6.5111,-6.513,-6.5097,-6.5078,-6.5063,-6.4907,-6.4853,-6.4799,-6.4634,-6.4615,-6.4615,-6.4634,-6.4521,-6.452,-6.4667,-6.4629,-6.467,-5.2364,-5.2549,-5.2567,-5.2663,-5.2806,-5.2893,-5.3045,-5.3198,-5.2573,-5.157,-5.036,-5.0028,-4.9529,-4.8882,-4.8716,-4.866,-4.866,-4.8678,-4.866,-4.8641,-4.866,-4.8641,-4.8641,-4.866,-4.866,-4.8641,-4.8641,-4.8678,-4.866,-4.8641,-4.8623,-4.8642,-4.8624,-4.8587,-4.8605,0.0,0.0,0.0,-4.8768,-4.8822,-4.8822,-4.8891,-4.8926,-4.8926,-4.8943,0.0,-4.896,-4.9047,-4.9118,-4.9135,-4.9164,0.0,0.0,0.0,0.0,0.0,0.0,0.0,0.0,0.0,0.0,0.0,-4.975,-4.9807,-4.9862,-4.9933,-5.0018,-5.0037,-5.0868,-5.1725,-5.2538,-5.3394,-5.4232,-5.5007,-5.5135,-5.5149,-5.5162,-5.5162,-5.5734,-5.7239,-5.7582,-5.8268,-5.9659,-6.0087,-6.0144,-6.0163,-6.0148,-6.0148,-6.0207,-6.0779,-6.1492,-6.2349,-6.3667,-6.4775,-6.5139,-6.5095,-6.5008,-6.4958,-6.4869,-6.4798,-6.4745,-6.4745,-6.4726,-6.4652,-6.4652,-6.4652,-6.4596,-6.4615,-6.4577,-6.4596,-6.4501,-6.4482,-6.4634,-6.4634,-6.4615,-5.2174,-5.2293,-5.2293,-5.2392,0.0,-5.2554,-5.2472,-5.2331,-5.1953,-5.1016,-4.9652,-4.9267,-4.89,-4.855,-4.855,-4.8569,-4.8587,-4.8587,-4.8587,-4.8587,-4.8587,-4.8587,-4.8587,-4.8587,-4.8587,-4.8587,-4.8587,-4.8587,-4.8587,-4.8569,-4.855,-4.855,-4.8495,-4.8439,-4.8439,-4.8458,-4.8513,-4.8587,-4.866,-4.8715,-4.8715,-4.8732,-4.875,-4.8731,-4.875,0.0,0.0,0.0,0.0,0.0,0.0,0.0,0.0,-4.9166,0.0,-4.9214,-4.926,-4.9308,-4.9289,-4.9402,-4.9449,-4.9468,-4.9449,-4.9525,-4.9736,-4.9821,-4.9843,-4.9881,-5.104,-5.1964,-5.2381,-5.3537,-5.4465,-5.484,-5.4897,-5.4927,-5.4985,-5.5,-5.5674,-5.7249,-5.7587,-5.8234,-5.987,-6.0099,-6.0099,-6.0099,-6.0072,-6.0057,-6.0133,-6.0829,-6.1796,-6.2984,-6.422,-6.5042,-6.4974,-6.4922,-6.4852,-6.4763,-6.4708,-6.4652,-6.4615,-6.4615,-6.4577,-6.4539,-6.452,-6.4482,-6.4365,-6.4345,-6.4325,-6.4286,-6.4225,-6.4166,-6.4227,-6.4306,-6.4325,-5.2029,-5.2078,-5.2078,-5.2168,-5.2246,-5.2264,-5.1863,-5.1197,-5.1191,0.0,0.0,-4.8522,-4.8343,-4.8456,-4.8457,-4.8495,-4.8569,-4.855,-4.8532,-4.855,-4.855,-4.855,-4.855,-4.8532,-4.8569,-4.855,-4.855,-4.8532,-4.8532,-4.8495,-4.8457,-4.8457,-4.8363,-4.8324,-4.8324,-4.8324,-4.8382,-4.8532,-4.855,-4.8587,-4.8587,-4.8587,-4.8587,-4.8587,-4.8587,-4.866,-4.875,-4.875,-4.8786,-4.8856,-4.8855,-4.8927,-4.905,-4.9068,-4.91,-4.9129,-4.9181,-4.9181,-4.9181,-4.9197,-4.9197,-4.9197,-4.9197,-4.9308,-4.96,-4.9648,-4.9663,-4.9678,-5.1205,-5.2183,-5.222,-5.3692,-5.4689,-5.4689,-5.4689,-5.4736,-5.486,-5.4856,-5.5546,-5.7127,-5.7483,-5.8144,-5.9725,-5.9991,-6.0007,-5.9991,-5.9928,-6.0026,-6.0234,-6.0985,-6.2157,-6.3666,-6.4524,-6.4869,-6.4743,-6.4689,-6.4652,-6.4577,-6.4577,-6.4558,-6.452,-6.452,-6.4481,-6.4307,-6.4307,-6.4227,-6.4083,-6.4081,-6.404,-6.3934,-6.3894,-6.3913,-6.3873,-6.3977,-6.4019,-5.1708,-5.1932,-5.1932,-5.2005,-5.2108,-5.2126,-5.1351,-5.0123,-4.9704,-4.9013,-4.8196,-4.8204,-4.8245,-4.8264,-4.8305,-4.8343,-4.8344,-4.8344,-4.8344,-4.8326,-4.8344,-4.8344,-4.8344,-4.8344,-4.8363,-4.8344,-4.8344,-4.8344,-4.8344,-4.8343,-4.8325,-4.8325,-4.8306,-4.8324,-4.8324,-4.8324,-4.8306,-4.8326,-4.8476,-4.8513,-4.8513,-4.8569,-4.8587,-4.8587,-4.8569,-4.8624,-4.8623,-4.8623,-4.8623,-4.8641,-4.875,-4.8822,-4.884,-4.891,-4.8926,-4.8925,-4.9049,-4.9118,-4.91,-4.9164,-4.9197,-4.9197,-4.9197,-4.9244,-4.9355,-4.9418,-4.9495,-4.9664,-5.1175,-5.2201,-5.2296,-5.3692,-5.4673,-5.4673,-5.4689,-5.4705,-5.472,-5.4739,-5.5359,-5.6979,-5.717,-5.7813,-5.936,-5.97,-5.97,-5.9683,-5.97,-5.9911,-6.0664,-6.153,-6.2736,-6.4119,-6.4595,-6.4634,-6.4615,-6.4615,-6.4558,-6.4444,-6.4424,-6.4365,-6.4225,-6.4205,-6.4145,-6.4,-6.4021,-6.3998,-6.3937,-6.3915,-6.3915,-6.3873,-6.3891,-6.3851,-6.3823,-6.3842,-6.3845,-5.1505,-5.1683,-5.1701,-5.1808,-5.1933,-5.1143,-5.0212,-4.9207,-4.8547,-4.8151,-4.7966,-4.8048,-4.8148,-4.8207,-4.8246,-4.8267,-4.8324,-4.8324,-4.8324,-4.8324,-4.8324,-4.8324,-4.8324,-4.8324,-4.8324,-4.8324,-4.8324,-4.8324,-4.8324,-4.8324,-4.8324,-4.8324,-4.8324,-4.8324,-4.8324,-4.8324,-4.8324,-4.8324,-4.8363,-4.84,-4.8401,-4.842,-4.8439,-4.842,-4.8439,-4.8476,-4.8532,-4.855,-4.855,-4.8587,-4.8641,-4.8678,-4.8697,-4.8714,-4.8767,-4.8839,-4.8892,-4.8963,-4.8979,-4.9012,-4.9046,-4.9046,-4.9029,-4.9079,-4.92,-4.9244,-4.9308,-4.9412,-5.0922,-5.186,-5.1917,-5.3378,-5.4354,-5.4373,-5.4443,-5.4512,-5.4543,-5.4592,-5.5265,-5.6767,-5.7106,-5.7748,-5.9408,-5.9616,-5.9616,-5.9616,-5.9616,-5.9936,-6.0748,-6.156,-6.2521,-6.3746,-6.4332,-6.4539,-6.4501,-6.4482,-6.4405,-6.4267,-6.4245,-6.4184,-6.404,-6.3979,-6.3977,-6.3915,-6.3894,-6.3891,-6.3867,-6.3867,-6.3805,-6.3739,-6.3739,-6.3717,-6.371,-6.3665,-6.3606,-5.1324,-5.1454,-5.1479,-5.1525,-5.1464,-5.0187,-4.9261,-4.856,-4.7811,-4.7615,-4.7801,-4.7909,-4.8048,-4.8126,-4.8168,-4.8246,-4.8286,-4.8287,-4.8324,-4.8324,-4.8324,-4.8324,-4.8324,-4.8324,-4.8324,-4.8324,-4.8324,-4.8324,-4.8324,-4.8324,-4.8324,-4.8324,-4.8324,-4.8324,-4.8324,-4.8324,-4.8324,-4.8324,-4.8324,-4.8324,-4.8324,-4.8324,-4.8324,-4.8324,-4.8324,-4.8344,-4.8457,-4.8457,-4.8494,-4.8532,-4.8569,-4.8587,-4.8587,-4.8587,-4.8642,-4.8732,-4.8769,-4.8768,-4.882,-4.882,-4.8838,-4.8874,-4.8874,-4.8909,-4.9032,-4.9098,-4.9164,-4.9347,-5.0671,-5.1607,-5.1829,-5.3119,-5.4091,-5.4109,-5.4181,-5.4271,-5.4321,-5.4371,-5.5078,-5.6613,-5.6988,-5.7628,-5.902,-5.951,-5.9491,-5.9509,-5.9526,-5.9828,-6.0469,-6.1187,-6.1977,-6.2881,-6.386,-6.4425,-6.4365,-6.4345,-6.4247,-6.4081,-6.4061,-6.4019,-6.3913,-6.391,-6.387,-6.3848,-6.3826,-6.3805,-6.3776,-6.3754,-6.3691,-6.3602,-6.3579,-6.3538,-6.3511,-6.3424,-6.34,-5.1211,-5.1307,-5.1428,-5.1154,-5.0555,-4.9794,-4.9023,-4.8286,-4.7727,-4.7511,-4.7554,-4.7819,-4.7922,-4.7943,-4.8126,-4.8206,-4.8226,-4.8267,-4.8305,-4.8324,-4.8324,-4.8324,-4.8324,-4.8324,-4.8324,-4.8324,-4.8324,-4.8324,-4.8324,-4.8324,-4.8324,-4.8324,-4.8324,-4.8324,-4.8324,-4.8324,-4.8324,-4.8324,-4.8324,-4.8324,-4.8324,-4.8324,-4.8324,-4.8324,-4.8324,-4.8306,-4.8343,-4.8306,-4.8343,-4.8363,-4.8457,-4.8494,-4.8513,-4.855,-4.8605,-4.8605,-4.8605,-4.8642,-4.8623,-4.8623,-4.8678,-4.8804,-4.8804,-4.8821,-4.8909,-4.8926,-4.8993,-4.939,-5.0637,-5.1552,-5.1702,-5.3101,-5.4054,-5.4073,-5.4109,-5.4127,-5.4127,-5.4145,-5.4799,-5.6444,-5.6631,-5.7286,-5.8784,-5.9215,-5.9253,-5.9327,-5.9309,-5.9383,-5.959,-6.0229,-6.0902,-6.184,-6.3156,-6.4114,-6.4145,-6.4123,-6.4081,-6.3937,-6.3934,-6.3891,-6.3823,-6.378,-6.3798,-6.3714,-6.3665,-6.3624,-6.3624,-6.3602,-6.3579,-6.3447,-6.34,-6.3377,-6.3284,-6.3237,-6.3284,-5.1079,-5.1211,-5.1324,-5.0759,-4.9757,-4.9026,-4.8309,-4.7649,-4.7463,-4.7428,-4.7511,-4.7696,-4.7819,-4.792,-4.7984,-4.8087,-4.8187,-4.8226,-4.8248,-4.8287,-4.8324,-4.8324,-4.8324,-4.8324,-4.8324,-4.8324,-4.8324,-4.8324,-4.8324,-4.8324,-4.8324,-4.8324,-4.8324,-4.8324,-4.8324,-4.8324,-4.8324,-4.8324,-4.8324,-4.8324,-4.8324,-4.8324,-4.8324,-4.8324,-4.8324,-4.8324,-4.8324,-4.8324,-4.8324,-4.8306,-4.8363,-4.8382,-4.8382,-4.8401,-4.8458,-4.8532,-4.8587,-4.8587,-4.8587,-4.8587,-4.8605,-4.8678,-4.8697,-4.8696,-4.8714,-4.8713,-4.8767,-4.9042,-5.0467,-5.1487,-5.1599,-5.2958,-5.3907,-5.3926,-5.4,-5.4037,-5.4037,-5.4073,-5.4595,-5.5678,-5.6295,-5.7024,-5.8127,-5.8801,-5.9063,-5.912,-5.912,-5.912,-5.9158,-5.9812,-6.0428,-6.0952,-6.2262,-6.3443,-6.385,-6.3998,-6.3955,-6.3888,-6.3845,-6.3802,-6.3714,-6.3669,-6.3647,-6.3579,-6.3534,-6.3488,-6.347,-6.34,-6.3331,-6.3265,-6.3265,-6.326,-6.3213,-6.3141,-6.3141,-5.0945,-5.1017,-5.1008,-5.0335,-4.9257,-4.8496,-4.7798,-4.721,-4.7254,-4.7363,-4.7468,-4.7636,-4.7738,-4.784,-4.7881,-4.7986,-4.8128,-4.8187,-4.8228,-4.8305,-4.8324,-4.8324,-4.8324,-4.8324,-4.8324,-4.8324,-4.8324,-4.8324,-4.8324,-4.8324,-4.8324,-4.8324,-4.8324,-4.8324,-4.8324,-4.8324,-4.8324,-4.8324,-4.8324,-4.8324,-4.8324,-4.8324,-4.8324,-4.8324,-4.8324,-4.8324,-4.8324,-4.8324,-4.8324,-4.8324,-4.8324,-4.8324,-4.8324,-4.8324,-4.8343,-4.8438,-4.8495,-4.8514,-4.8514,-4.8514,-4.8532,-4.8587,-4.8569,-4.8587,-4.8587,-4.8587,-4.8587,-4.8734,-5.025,-5.1287,-5.1454,-5.2809,-5.3699,-5.3793,-5.3869,-5.3944,-5.3944,-5.3981,-5.4317,-5.5137,-5.5995,-5.6928,-5.79,-5.863,-5.9004,-5.9004,-5.9004,-5.8984,-5.904,-5.9545,-5.9953,-6.0233,-6.1295,-6.2263,-6.3294,-6.3761,-6.3789,-6.378,-6.3736,-6.3691,-6.3579,-6.3557,-6.3511,-6.3424,-6.3377,-6.3354,-6.3354,-6.3242,-6.311,-6.3123,-6.3086,-6.2896,-6.2645,-6.2671,-6.2475,-5.0891,-5.0839,-5.0355,-4.9838,-4.924,-4.8484,-4.7752,-4.7043,-4.7209,-4.732,-4.7363,-4.7575,-4.7717,-4.7738,-4.784,-4.7945,-4.8012,-4.813,-4.8228,-4.8287,-4.8324,-4.8324,-4.8324,-4.8324,-4.8324,-4.8324,-4.8324,-4.8324,-4.8324,-4.8324,-4.8324,-4.8324,-4.8324,-4.8324,-4.8324,-4.8324,-4.8324,-4.8324,-4.8324,-4.8324,-4.8324,-4.8324,-4.8324,-4.8324,-4.8324,-4.8324,-4.8324,-4.8324,-4.8324,-4.8324,-4.8324,-4.8324,-4.8324,-4.8324,-4.8306,-4.8324,-4.8325,-4.8325,-4.8325,-4.8325,-4.8382,-4.8476,-4.8494,-4.8513,-4.855,-4.855,-4.8569,-4.8605,-5.012,-5.1099,-5.1265,-5.2655,-5.3676,-5.3695,-5.3774,-5.3813,-5.3794,-5.3813,-5.4184,-5.4891,-5.5765,-5.6976,-5.8564,-5.8925,-5.8965,-5.8965,-5.8984,-5.8965,-5.8964,-5.9016,-5.9309,-5.981,-6.0234,-6.0675,-6.2249,-6.3128,-6.355,-6.3669,-6.3624,-6.3598,-6.347,-6.3382,-6.3312,-6.3284,-6.3218,-6.3194,-6.3194,-6.3134,-6.297,-6.2842,-6.2598,-6.2365,-6.1844,-6.1698,-6.1545,-5.1025,-5.1044,-4.9849,-4.9316,-4.9168,-4.7961,-4.727,-4.702,-4.7191,-4.7298,-4.7341,-4.7593,-4.7699,-4.7699,-4.7759,-4.7866,-4.7992,-4.805,-4.8151,-4.8305,-4.8324,-4.8324,-4.8324,-4.8324,-4.8324,-4.8324,-4.8324,-4.8324,-4.8324,-4.8324,-4.8324,-4.8324,-4.8324,-4.8324,-4.8324,-4.8324,-4.8324,-4.8324,-4.8324,-4.8324,-4.8324,-4.8324,-4.8324,-4.8324,-4.8324,-4.8324,-4.8324,-4.8324,-4.8324,-4.8324,-4.8324,-4.8324,-4.8324,-4.8324,-4.8324,-4.8324,-4.8324,-4.8324,-4.8324,-4.8324,-4.8324,-4.8363,-4.8363,-4.8363,-4.8401,-4.842,-4.8402,-4.8714,-4.9947,-5.0867,-5.1236,-5.2518,-5.3578,-5.3578,-5.3599,-5.3619,-5.3619,-5.3676,-5.3883,-5.431,-5.5369,-5.6953,-5.8256,-5.8781,-5.8803,-5.8821,-5.8821,-5.8821,-5.8821,-5.8779,-5.8927,-5.9204,-5.9611,-6.0091,-6.0617,-6.2088,-6.2959,-6.3379,-6.3538,-6.347,-6.3382,-6.3289,-6.3237,-6.3152,-6.3104,-6.2854,-6.2762,-6.2321,-6.2273,-6.2101,-6.1869,-6.152,-6.0878,-6.0841,-6.0713,-5.1088,-5.1051,-4.9606,-4.9099,-4.9097,-4.764,-4.702,-4.7088,-4.7232,-4.7302,-4.7407,-4.7615,-4.7699,-4.7699,-4.7699,-4.7824,-4.7992,-4.7992,-4.8111,-4.8287,-4.8324,-4.8324,-4.8324,-4.8324,-4.8324,-4.8324,-4.8324,-4.8324,-4.8324,-4.8324,-4.8324,-4.8324,-4.8324,-4.8324,-4.8324,-4.8324,-4.8324,-4.8324,-4.8324,-4.8324,-4.8324,-4.8324,-4.8324,-4.8324,-4.8324,-4.8324,-4.8324,-4.8324,-4.8324,-4.8324,-4.8324,-4.8324,-4.8324,-4.8324,-4.8324,-4.8324,-4.8324,-4.8324,-4.8324,-4.8324,-4.8324,-4.8324,-4.8324,-4.8324,-4.8324,-4.8324,-4.8416,-4.8912,-4.9921,-5.0857,-5.1391,-5.2543,-5.3398,-5.3439,-5.3479,-5.3499,-5.3499,-5.3578,-5.3913,-5.4542,-5.5453,-5.6829,-5.8206,-5.8561,-5.8656,-5.8677,-5.8677,-5.8677,-5.8677,-5.8677,-5.8677,-5.8672,-5.9062,-5.9486,-5.9928,-6.087,-6.2009,-6.2542,-6.2845,-6.2947,-6.3085,-6.3047,-6.2994,-6.294,-6.2787,-6.2475,-6.2077,-6.1624,-6.1361,-6.119,-6.1025,-6.075,-6.0327,-6.0034,-5.9832,-5.1185,-5.1094,-4.9707,-4.9155,-4.9061,-4.7658,-4.7066,-4.7178,-4.7254,-4.7363,-4.749,-4.7636,-4.7699,-4.7699,-4.7699,-4.7806,-4.7972,-4.8012,-4.8111,-4.8287,-4.8324,-4.8324,-4.8324,-4.8324,-4.8324,-4.8324,-4.8324,-4.8324,-4.8324,-4.8324,-4.8324,-4.8324,-4.8324,-4.8324,-4.8324,-4.8324,-4.8324,-4.8324,-4.8324,-4.8324,-4.8324,-4.8324,-4.8324,-4.8324,-4.8324,-4.8324,-4.8324,-4.8324,-4.8324,-4.8324,-4.8324,-4.8324,-4.8324,-4.8324,-4.8324,-4.8324,-4.8324,-4.8324,-4.8324,-4.8324,-4.8324,-4.8324,-4.8324,-4.8324,-4.8324,-4.8324,-4.86,-4.9352,-5.0233,-5.1059,-5.1848,-5.2713,-5.3251,-5.3297,-5.338,-5.3459,-5.3479,-5.3499,-5.409,-5.5291,-5.5847,-5.6644,-5.7931,-5.8492,-5.8532,-5.8614,-5.8635,-5.8635,-5.8635,-5.8635,-5.8614,-5.8532,-5.8659,-5.8952,-5.9272,-5.9727,-6.0737,-6.1573,-6.186,-6.205,-6.2311,-6.2369,-6.2223,-6.2156,-6.1856,-6.1551,-6.122,-6.0792,-6.0511,-6.0346,-6.0138,-5.9905,-5.952,-5.9153,-5.8896,-5.1324,-5.1233,-4.9739,-4.9172,-4.9097,-4.7658,-4.7066,-4.7201,-4.7276,-4.7385,-4.7511,-4.7654,-4.7699,-4.7738,-4.778,-4.7886,-4.801,-4.809,-4.8208,-4.8305,-4.8324,-4.8324,-4.8324,-4.8324,-4.8324,-4.8324,-4.8324,-4.8324,-4.8324,-4.8324,-4.8324,-4.8324,-4.8324,-4.8324,-4.8324,-4.8324,-4.8324,-4.8324,-4.8324,-4.8324,-4.8324,-4.8324,-4.8324,-4.8324,-4.8324,-4.8324,-4.8324,-4.8324,-4.8324,-4.8324,-4.8324,-4.8324,-4.8324,-4.8324,-4.8324,-4.8324,-4.8324,-4.8324,-4.8324,-4.8324,-4.8324,-4.8324,-4.8324,-4.8324,-4.8324,-4.8324,-4.8691,-4.9519,-5.0325,-5.1114,-5.1922,-5.2729,-5.317,-5.323,-5.3269,-5.3293,-5.3314,-5.3318,-5.3879,-5.4845,-5.5549,-5.638,-5.7402,-5.7975,-5.8422,-5.8483,-5.8523,-5.8505,-5.8502,-5.8523,-5.8502,-5.844,-5.8455,-5.8455,-5.8759,-5.8969,-5.9485,-6.0342,-6.0739,-6.1213,-6.1511,-6.1623,-6.1501,-6.1233,-6.0933,-6.0621,-6.0291,-5.9979,-5.9685,-5.9386,-5.9171,-5.8859,-5.8492,-5.8327,-5.8253,-5.1428,-5.1327,-4.9831,-4.9221,-4.9139,-4.7704,-4.7133,-4.7227,-4.732,-4.7428,-4.7575,-4.7657,-4.7699,-4.7738,-4.784,-4.7945,-4.7992,-4.8148,-4.8246,-4.8287,-4.8324,-4.8324,-4.8324,-4.8324,-4.8324,-4.8324,-4.8324,-4.8324,-4.8324,-4.8324,-4.8324,-4.8324,-4.8324,-4.8324,-4.8324,-4.8324,-4.8324,-4.8324,-4.8324,-4.8324,-4.8324,-4.8324,-4.8324,-4.8324,-4.8324,-4.8324,-4.8324,-4.8324,-4.8324,-4.8324,-4.8324,-4.8324,-4.8324,-4.8324,-4.8324,-4.8324,-4.8324,-4.8324,-4.8324,-4.8324,-4.8324,-4.8324,-4.8324,-4.8324,-4.8324,-4.8324,-4.8783,-4.9921,-5.0508,-5.1242,-5.2289,-5.2876,-5.3167,-5.3185,-5.3206,-5.3185,-5.3188,-5.3212,-5.3642,-5.4499,-5.5294,-5.6144,-5.6996,-5.781,-5.8312,-5.839,-5.8411,-5.8411,-5.8411,-5.8411,-5.839,-5.8349,-5.8327,-5.8305,-5.826,-5.8326,-5.8391,-5.8998,-5.96,-6.0207,-6.0717,-6.0779,-6.0731,-6.0309,-5.9979,-5.9612,-5.9281,-5.9024,-5.8731,-5.8455,-5.8364,-5.8272,-5.8162,-5.8125,-5.807,-5.1505,-5.1317,-4.9929,-4.9335,-4.9145,-4.7796,-4.7249,-4.732,-4.7428,-4.7554,-4.7678,-4.7678,-4.7717,-4.7738,-4.7842,-4.7947,-4.803,-4.8149,-4.8246,-4.8305,-4.8324,-4.8324,-4.8324,-4.8324,-4.8324,-4.8324,-4.8324,-4.8324,-4.8324,-4.8324,-4.8324,-4.8324,-4.8324,-4.8324,-4.8324,-4.8324,-4.8324,-4.8324,-4.8324,-4.8324,-4.8324,-4.8324,-4.8324,-4.8324,-4.8324,-4.8324,-4.8324,-4.8324,-4.8324,-4.8324,-4.8324,-4.8324,-4.8324,-4.8324,-4.8324,-4.8324,-4.8324,-4.8324,-4.8324,-4.8324,-4.8324,-4.8324,-4.8324,-4.8324,-4.8324,-4.8508,-4.9132,-5.0472,-5.0857,-5.1536,-5.2766,-5.3167,-5.3185,-5.3185,-5.3185,-5.3185,-5.3185,-5.3206,-5.3521,-5.4219,-5.5063,-5.5893,-5.6757,-5.7589,-5.815,-5.8327,-5.8349,-5.8327,-5.8327,-5.8305,-5.8305,-5.8242,-5.8197,-5.8174,-5.8129,-5.8129,-5.8194,-5.8396,-5.8851,-5.9255,-5.9732,-5.98,-5.9795,-5.9373,-5.9129,-5.8731,-5.8474,-5.8345,-5.8235,-5.8162,-5.8088,-5.7997,-5.7978,-5.7978,-5.7978,-5.1658,-5.1504,-5.005,-4.9454,-4.9263,-4.7891,-4.7359,-4.7428,-4.7472,-4.7593,-4.7678,-4.7699,-4.7759,-4.7861,-4.7927,-4.803,-4.8148,-4.8228,-4.8286,-4.8305,-4.8324,-4.8324,-4.8324,-4.8324,-4.8324,-4.8324,-4.8324,-4.8324,-4.8324,-4.8324,-4.8324,-4.8324,-4.8324,-4.8324,-4.8324,-4.8324,-4.8324,-4.8324,-4.8324,-4.8324,-4.8324,-4.8324,-4.8324,-4.8324,-4.8324,-4.8324,-4.8324,-4.8324,-4.8324,-4.8324,-4.8324,-4.8324,-4.8324,-4.8324,-4.8324,-4.8324,-4.8324,-4.8324,-4.8324,-4.8324,-4.8324,-4.8324,-4.8324,-4.8324,-4.8343,-4.8893,-4.9701,-5.0692,-5.1298,-5.2068,-5.2947,-5.3185,-5.3185,-5.3185,-5.3185,-5.3185,-5.3185,-5.3203,-5.3295,-5.3589,-5.4748,-5.5614,-5.6187,-5.7183,-5.8051,-5.8111,-5.8111,-5.8111,-5.8156,-5.8133,-5.8133,-5.8088,-5.8042,-5.8042,-5.802,-5.8001,-5.8038,-5.8056,-5.824,-5.8313,-5.8589,-5.8621,-5.8547,-5.8327,-5.8529,-5.829,-5.818,-5.807,-5.7997,-5.7978,-5.7978,-5.7978,-5.7978,-5.7978,-5.7978,-5.1815,-5.1757,-5.0593,-4.99,-4.9451,-4.8367,-4.7753,-4.7547,-4.7554,-4.7636,-4.7699,-4.7741,-4.784,-4.7902,-4.8028,-4.811,-4.8207,-4.8286,-4.8305,-4.8324,-4.8324,-4.8324,-4.8324,-4.8324,-4.8324,-4.8324,-4.8324,-4.8324,-4.8324,-4.8324,-4.8324,-4.8324,-4.8324,-4.8324,-4.8324,-4.8324,-4.8324,-4.8324,-4.8324,-4.8324,-4.8324,-4.8324,-4.8324,-4.8324,-4.8324,-4.8324,-4.8324,-4.8324,-4.8324,-4.8324,-4.8324,-4.8324,-4.8324,-4.8324,-4.8324,-4.8324,-4.8324,-4.8324,-4.8324,-4.8324,-4.8324,-4.8324,-4.8324,-4.8324,-4.8453,-4.9077,-4.9941,-5.0729,-5.1518,-5.2325,-5.2983,-5.3185,-5.3185,-5.3185,-5.3185,-5.3185,-5.3185,-5.3185,-5.3185,-5.3552,-5.4528,-5.5614,-5.5629,-5.7024,-5.7758,-5.8001,-5.8001,-5.8001,-5.8001,-5.7978,-5.7978,-5.7978,-5.7978,-5.7978,-5.802,-5.7978,-5.7978,-5.7997,-5.7997,-5.7978,-5.7978,-5.7978,-5.8015,-5.8052,-5.7997,-5.7978,-5.7978,-5.7978,-5.7978,-5.7978,-5.7978,-5.7978,-5.7978,-5.7978,-5.7978,-5.198,-5.2012,-5.1245,-5.0471,-4.9685,-4.9,-4.8237,-4.7644,-4.7636,-4.7699,-4.7759,-4.7861,-4.7902,-4.7961,-4.8108,-4.8225,-4.8208,-4.8286,-4.8305,-4.8324,-4.8324,-4.8324,-4.8324,-4.8324,-4.8324,-4.8324,-4.8324,-4.8324,-4.8324,-4.8324,-4.8324,-4.8324,-4.8324,-4.8324,-4.8324,-4.8324,-4.8324,-4.8324,-4.8324,-4.8324,-4.8324,-4.8324,-4.8324,-4.8324,-4.8324,-4.8324,-4.8324,-4.8324,-4.8324,-4.8324,-4.8324,-4.8324,-4.8324,-4.8324,-4.8324,-4.8324,-4.8324,-4.8324,-4.8324,-4.8324,-4.8324,-4.8324,-4.8324,-4.8398,-4.8655,-4.9352,-5.0216,-5.1022,-5.1665,-5.2472,-5.3002,-5.3185,-5.3185,-5.3185,-5.3185,-5.3185,-5.3185,-5.3185,-5.3185,-5.3295,-5.462,-5.5427,-5.5978,-5.6859,-5.7978,-5.7978,-5.7978,-5.7978,-5.7978,-5.7978,-5.7978,-5.7978,-5.7978,-5.7978,-5.7978,-5.7978,-5.7978,-5.7978,-5.7997,-5.7978,-5.7978,-5.7978,-5.7978,-5.7978,-5.7978,-5.7978,-5.7978,-5.7978,-5.7978,-5.7978,-5.7978,-5.7978,-5.7978,-5.7978,-5.7978,-5.206,-5.2054,-5.1333,-5.0605,-4.9816,-4.9129,-4.8417,-4.7693,-4.7696,-4.7759,-4.784,-4.7881,-4.7986,-4.8126,-4.8168,-4.8226,-4.8248,-4.8305,-4.8324,-4.8324,-4.8324,-4.8324,-4.8324,-4.8324,-4.8324,-4.8324,-4.8324,-4.8324,-4.8324,-4.8324,-4.8324,-4.8324,-4.8324,-4.8324,-4.8324,-4.8324,-4.8324,-4.8324,-4.8324,-4.8324,-4.8324,-4.8324,-4.8324,-4.8324,-4.8324,-4.8324,-4.8324,-4.8324,-4.8324,-4.8324,-4.8324,-4.8324,-4.8324,-4.8324,-4.8324,-4.8324,-4.8324,-4.8324,-4.8324,-4.8324,-4.8324,-4.8324,-4.8416,-4.86,-4.9334,-5.0068,-5.0875,-5.1665,-5.2454,-5.2931,-5.313,-5.3185,-5.3185,-5.3185,-5.3185,-5.3185,-5.3185,-5.3185,-5.3185,-5.3573,-5.4601,-5.5633,-5.5684,-5.7042,-5.7795,-5.7923,-5.7978,-5.7978,-5.7978,-5.7978,-5.7978,-5.7978,-5.7978,-5.7978,-5.7978,-5.7978,-5.7978,-5.7978,-5.7978,-5.7978,-5.7978,-5.7978,-5.7978,-5.7978,-5.7978,-5.7978,-5.7978,-5.7978,-5.7978,-5.7978,-5.7978,-5.7978,-5.7978,-5.7978,-5.7978,-5.224,-5.2257,-5.187,-5.1279,-5.0507,-4.9778,-4.9025,-4.8342,-4.7925,-4.7842,-4.7927,-4.8006,-4.8107,-4.8187,-4.8246,-4.8267,-4.8287,-4.8324,-4.8324,-4.8324,-4.8324,-4.8324,-4.8324,-4.8324,-4.8324,-4.8324,-4.8324,-4.8324,-4.8324,-4.8324,-4.8324,-4.8324,-4.8324,-4.8324,-4.8324,-4.8324,-4.8324,-4.8324,-4.8324,-4.8324,-4.8324,-4.8324,-4.8324,-4.8324,-4.8324,-4.8324,-4.8324,-4.8324,-4.8324,-4.8324,-4.8324,-4.8324,-4.8324,-4.8324,-4.8324,-4.8324,-4.8324,-4.8324,-4.8324,-4.8324,-4.8324,-4.8361,-4.8655,-4.9095,-4.9812,-5.0637,-5.1463,-5.205,-5.2656,-5.3185,-5.3185,-5.3185,-5.3185,-5.3185,-5.3185,-5.3185,-5.3185,-5.3185,-5.3387,-5.383,-5.4858,-5.5666,-5.6418,-5.7354,-5.7776,-5.7978,-5.7978,-5.7978,-5.7978,-5.7978,-5.7978,-5.7978,-5.7978,-5.7978,-5.7978,-5.7978,-5.7978,-5.7978,-5.7978,-5.7978,-5.7978,-5.7978,-5.7978,-5.7978,-5.7978,-5.7978,-5.7978,-5.7978,-5.7978,-5.7978,-5.7978,-5.7978,-5.7978,-5.7978,-5.7978,-5.2405,-5.2498,-5.2498,-5.205,-5.1289,-5.0587,-4.9836,-4.9013,-4.8395,-4.8129,-4.8068,-4.8168,-4.8187,-4.8226,-4.8286,-4.8305,-4.8324,-4.8324,-4.8324,-4.8324,-4.8324,-4.8324,-4.8324,-4.8324,-4.8324,-4.8324,-4.8324,-4.8324,-4.8324,-4.8324,-4.8324,-4.8324,-4.8324,-4.8324,-4.8324,-4.8324,-4.8324,-4.8324,-4.8324,-4.8324,-4.8324,-4.8324,-4.8324,-4.8324,-4.8324,-4.8324,-4.8324,-4.8324,-4.8324,-4.8324,-4.8324,-4.8324,-4.8324,-4.8324,-4.8324,-4.8324,-4.8324,-4.8324,-4.8324,-4.8324,-4.8343,-4.8471,-4.9114,-4.9757,-5.0271,-5.1171,-5.1885,-5.2362,-5.2839,-5.3185,-5.3185,-5.3185,-5.3185,-5.3185,-5.3185,-5.3185,-5.3222,-5.3277,-5.3775,-5.4271,-5.5023,-5.5757,-5.6583,-5.7446,-5.774,-5.7978,-5.7978,-5.7978,-5.7978,-5.7978,-5.7978,-5.7978,-5.7978,-5.7978,-5.7978,-5.7978,-5.7978,-5.7978,-5.7978,-5.7978,-5.7978,-5.7978,-5.7978,-5.7978,-5.7978,-5.7978,-5.7978,-5.7978,-5.7978,-5.7978,-5.7978,-5.7978,-5.7978,-5.7978,-5.7978,-5.2475,-5.2498,-5.2498,-5.2091,-5.151,-5.1314,-5.0471,-4.9281,-4.9083,-4.8671,-4.8222,-4.8187,-4.8228,-4.8286,-4.8305,-4.8324,-4.8324,-4.8324,-4.8324,-4.8324,-4.8324,-4.8324,-4.8324,-4.8324,-4.8324,-4.8324,-4.8324,-4.8324,-4.8324,-4.8324,-4.8324,-4.8324,-4.8324,-4.8324,-4.8324,-4.8324,-4.8324,-4.8324,-4.8324,-4.8324,-4.8324,-4.8324,-4.8324,-4.8324,-4.8324,-4.8324,-4.8324,-4.8324,-4.8324,-4.8324,-4.8324,-4.8324,-4.8324,-4.8324,-4.8324,-4.8324,-4.8324,-4.8343,-4.8434,-4.8398,-4.8728,-4.9206,-4.9665,-5.04,-5.1226,-5.183,-5.2344,-5.2784,-5.302,-5.3185,-5.3185,-5.3185,-5.3185,-5.3185,-5.3185,-5.3185,-5.3314,-5.372,-5.4179,-5.4583,-5.5244,-5.5978,-5.6877,-5.7538,-5.7795,-5.7978,-5.7978,-5.7978,-5.7978,-5.7978,-5.7978,-5.7978,-5.7978,-5.7978,-5.7978,-5.7978,-5.7978,-5.7978,-5.7978,-5.7978,-5.7978,-5.7978,-5.7978,-5.7978,-5.7978,-5.7978,-5.7978,-5.7978,-5.7978,-5.7978,-5.7978,-5.7978,-5.7978,-5.7978,-5.7978,-5.2599,-5.2645,-5.2645,-5.2467,-5.2134,-5.1697,-5.1198,-5.048,-4.9679,-4.9173,-4.885,-4.8485,-4.8248,-4.8287,-4.8324,-4.8324,-4.8324,-4.8324,-4.8324,-4.8324,-4.8324,-4.8324,-4.8324,-4.8324,-4.8324,-4.8324,-4.8324,-4.8324,-4.8324,-4.8324,-4.8324,-4.8324,-4.8324,-4.8324,-4.8324,-4.8324,-4.8324,-4.8324,-4.8324,-4.8324,-4.8324,-4.8324,-4.8324,-4.8324,-4.8324,-4.8324,-4.8324,-4.8324,-4.8324,-4.8324,-4.8324,-4.8324,-4.8343,-4.8343,-4.8343,-4.8379,-4.8361,-4.8545,-4.8857,-4.9003,-4.937,-5.0141,-5.0527,-5.1134,-5.1867,-5.2362,-5.2747,-5.3038,-5.3185,-5.3185,-5.3185,-5.3185,-5.3185,-5.3185,-5.3185,-5.3185,-5.3369,-5.3977,-5.4491,-5.4987,-5.5831,-5.662,-5.7299,-5.7776,-5.7923,-5.7978,-5.7978,-5.7978,-5.7978,-5.7978,-5.7978,-5.7978,-5.7978,-5.7978,-5.7978,-5.7978,-5.7978,-5.7978,-5.7978,-5.7978,-5.7978,-5.7978,-5.7978,-5.7978,-5.7978,-5.7978,-5.7978,-5.7978,-5.7978,-5.7978,-5.7978,-5.7978,-5.7978,-5.7978,-5.7978,-5.2698,-5.2806,-5.2806,-5.2806,-5.2718,-5.2174,-5.1834,-5.1593,-5.0513,-4.9823,-4.9481,-4.8912,-4.8508,-4.8343,-4.8324,-4.8324,-4.8324,-4.8324,-4.8324,-4.8324,-4.8324,-4.8324,-4.8324,-4.8324,-4.8324,-4.8324,-4.8324,-4.8324,-4.8324,-4.8324,-4.8324,-4.8324,-4.8324,-4.8324,-4.8324,-4.8324,-4.8324,-4.8324,-4.8324,-4.8324,-4.8324,-4.8324,-4.8324,-4.8324,-4.8324,-4.8324,-4.8324,-4.8324,-4.8324,-4.8324,-4.8343,-4.8398,-4.8526,-4.8545,-4.8636,-4.8746,-4.8673,-4.8985,-4.9372,-4.9831,-5.0178,-5.0967,-5.161,-5.1977,-5.2362,-5.2803,-5.3148,-5.3185,-5.3185,-5.3185,-5.3185,-5.3185,-5.3185,-5.3185,-5.3203,-5.3314,-5.3702,-5.4271,-5.5115,-5.5757,-5.6547,-5.7134,-5.7703,-5.785,-5.796,-5.7978,-5.7978,-5.7978,-5.7978,-5.7978,-5.7978,-5.7978,-5.7978,-5.7978,-5.7978,-5.7978,-5.7978,-5.7978,-5.7978,-5.7978,-5.7978,-5.7978,-5.7978,-5.7978,-5.7978,-5.7978,-5.7978,-5.7978,-5.7978,-5.7978,-5.7978,-5.7978,-5.7978,-5.7978,-5.7978,-5.2783,-5.2806,-5.2806,-5.285,-5.2959,-5.2831,-5.2474,-5.1993,-5.1699,-5.0857,-4.9812,-4.9482,-4.9022,-4.8508,-4.8324,-4.8324,-4.8324,-4.8324,-4.8324,-4.8324,-4.8324,-4.8379,-4.8379,-4.8324,-4.8545,-4.8636,-4.8545,-4.8324,-4.8526,-4.8526,-4.8379,-4.8398,-4.8545,-4.8398,-4.8673,-4.871,-4.8324,-4.8379,-4.8398,-4.8434,-4.8453,-4.8489,-4.8489,-4.8471,-4.8489,-4.8545,-4.8636,-4.8655,-4.8581,-4.8508,-4.8434,-4.8728,-4.928,-4.9463,-4.9866,-5.005,-4.9921,-4.95,-4.9849,-5.0325,-5.1004,-5.1665,-5.2032,-5.2399,-5.2784,-5.3023,-5.3185,-5.3185,-5.3185,-5.3185,-5.3185,-5.3185,-5.3185,-5.324,-5.3295,-5.3665,-5.4106,-5.495,-5.5757,-5.6308,-5.7042,-5.7464,-5.7941,-5.796,-5.7978,-5.7978,-5.7978,-5.7978,-5.7978,-5.7978,-5.7978,-5.7978,-5.7978,-5.7978,-5.7978,-5.7978,-5.7978,-5.7978,-5.7978,-5.7978,-5.7978,-5.7978,-5.7978,-5.7978,-5.7978,-5.7978,-5.7978,-5.7978,-5.7978,-5.7978,-5.7978,-5.7978,-5.7978,-5.7978,-5.7978,-5.3039,-5.3017,-5.3039,-5.306,-5.3103,-5.3121,-5.2962,-5.2637,-5.2179,-5.163,-5.0949,-5.0455,-4.9811,-4.9077,-4.8581,-4.8324,-4.8324,-4.8379,-4.8324,-4.8398,-4.8434,-4.86,-4.8985,-4.9077,-4.9169,-4.9554,-4.9701,-4.9829,-4.9609,-4.9242,-4.9022,-4.9077,-4.9462,-4.9811,-4.9536,-4.9682,-4.9738,-4.9756,-4.9738,-4.9738,-4.9719,-4.9701,-4.9701,-4.9701,-4.9682,-4.9646,-4.9646,-4.9719,-4.9719,-4.9719,-4.9719,-4.9866,-5.0178,-5.0288,-5.049,-5.0692,-5.0949,-5.0949,-5.1041,-5.1298,-5.1848,-5.2435,-5.2674,-5.2876,-5.3148,-5.3185,-5.3185,-5.3185,-5.3185,-5.3185,-5.3185,-5.3185,-5.3185,-5.3259,-5.3573,-5.4032,-5.4675,-5.5702,-5.6492,-5.6987,-5.7428,-5.774,-5.7978,-5.7978,-5.7978,-5.7978,-5.7978,-5.7978,-5.7978,-5.7978,-5.7978,-5.7978,-5.7978,-5.7978,-5.7978,-5.7978,-5.7978,-5.7978,-5.7978,-5.7978,-5.7978,-5.7978,-5.7978,-5.7978,-5.7978,-5.7978,-5.7978,-5.7978,-5.7978,-5.7978,-5.7978,-5.7978,-5.7978,-5.7978,-5.7978,-5.3185,-5.3185,-5.3185,-5.3185,-5.3185,-5.3185,-5.3185,-5.3093,-5.2601,-5.2197,-5.1811,-5.1151,-5.0417,-4.9921,-4.9334,-4.9132,-4.8984,-4.893,-4.893,-4.893,-4.9003,-4.9352,-4.9738,-4.9939,-5.0178,-5.0802,-5.0563,-5.0582,-5.0545,-5.0417,-5.016,-4.9959,-5.0306,-5.0618,-5.0747,-5.0655,-5.0582,-5.0582,-5.0618,-5.0637,-5.0674,-5.0692,-5.071,-5.0747,-5.0802,-5.082,-5.082,-5.0729,-5.071,-5.0692,-5.0637,-5.0692,-5.1004,-5.1096,-5.1316,-5.1591,-5.1958,-5.216,-5.2179,-5.2325,-5.2637,-5.2947,-5.3185,-5.3133,-5.3148,-5.3185,-5.3185,-5.3185,-5.3185,-5.3185,-5.3185,-5.3185,-5.3369,-5.3647,-5.4014,-5.4473,-5.5042,-5.6069,-5.6895,-5.7391,-5.7703,-5.7813,-5.7978,-5.7978,-5.7978,-5.7978,-5.7978,-5.7978,-5.7978,-5.7978,-5.7978,-5.7978,-5.7978,-5.7978,-5.7978,-5.7978,-5.7978,-5.7978,-5.7978,-5.7978,-5.7978,-5.7978,-5.7978,-5.7978,-5.7978,-5.7978,-5.7978,-5.7978,-5.7978,-5.7978,-5.7978,-5.7978,-5.7978,-5.7978,-5.7978,-5.3185,-5.3185,-5.3185,-5.3185,-5.3185,-5.3185,-5.3185,-5.3185,-5.3112,-5.2674,-5.205,-5.1224,-5.0857,-5.0655,-5.0508,-5.038,-5.0545,-5.0618,-5.0417,-5.0435,-5.0637,-5.0527,-5.0674,-5.0747,-5.082,-5.0986,-5.1169,-5.1114,-5.1041,-5.161,-5.1224,-5.0875,-5.1169,-5.0949,-5.1004,-5.1242,-5.1206,-5.1187,-5.1169,-5.1114,-5.1077,-5.1041,-5.1022,-5.0967,-5.0894,-5.082,-5.0839,-5.1041,-5.1114,-5.1132,-5.1169,-5.1389,-5.1811,-5.1903,-5.216,-5.2564,-5.2766,-5.2913,-5.2892,-5.291,-5.3057,-5.3167,-5.3185,-5.3185,-5.3185,-5.3185,-5.3185,-5.3185,-5.3185,-5.3277,-5.324,-5.3259,-5.3665,-5.4252,-5.4785,-5.5317,-5.5849,-5.6436,-5.7207,-5.7721,-5.7941,-5.7978,-5.7978,-5.7978,-5.7978,-5.7978,-5.7978,-5.7978,-5.7978,-5.7978,-5.7978,-5.7978,-5.7978,-5.7978,-5.7978,-5.7978,-5.7978,-5.7978,-5.7978,-5.7978,-5.7978,-5.7978,-5.7978,-5.7978,-5.7978,-5.7978,-5.7978,-5.7978,-5.7978,-5.7978,-5.7978,-5.7978,-5.7978,-5.7978,-5.7978,-5.3185,-5.3185,-5.3185,-5.3185,-5.3185,-5.3185,-5.3185,-5.3185,-5.3185,-5.3078,-5.2674,-5.194,-5.1536,-5.1426,-5.0967,-5.082,-5.082,-5.0802,-5.0857,-5.082,-5.082,-5.1096,-5.1298,-5.161,-5.1756,-5.2105,-5.2213,-5.2268,-5.2417,-5.2527,-5.2564,-5.2344,-5.2142,-5.2307,-5.2289,-5.2123,-5.2139,-5.2176,-5.2234,-5.227,-5.2289,-5.2289,-5.2268,-5.2289,-5.2289,-5.2289,-5.2307,-5.2268,-5.2289,-5.2234,-5.2197,-5.238,-5.2564,-5.2637,-5.2858,-5.313,-5.3185,-5.3185,-5.3185,-5.3185,-5.3185,-5.3185,-5.3185,-5.3185,-5.3185,-5.3185,-5.3185,-5.3185,-5.324,-5.3427,-5.3904,-5.3995,-5.4271,-5.4987,-5.5592,-5.6124,-5.662,-5.7116,-5.7409,-5.7868,-5.796,-5.7978,-5.7978,-5.7978,-5.7978,-5.7978,-5.7978,-5.7978,-5.7978,-5.7978,-5.7978,-5.7978,-5.7978,-5.7978,-5.7978,-5.7978,-5.7978,-5.7978,-5.7978,-5.7978,-5.7978,-5.7978,-5.7978,-5.7978,-5.7978,-5.7978,-5.7978,-5.7978,-5.7978,-5.7978,-5.7978,-5.7978,-5.7978,-5.7978,-5.7978,-5.3185,-5.3185,-5.3185,-5.3185,-5.3185,-5.3185,-5.3185,-5.3185,-5.3185,-5.3185,-5.317,-5.2582,-5.2344,-5.216,-5.1867,-5.161,-5.1665,-5.1646,-5.1591,-5.1628,-5.1738,-5.1885,-5.2197,-5.2417,-5.2582,-5.313,-5.3185,-5.3093,-5.302,-5.3148,-5.3075,-5.3057,-5.3185,-5.3093,-5.3093,-5.3185,-5.3185,-5.3185,-5.3185,-5.3185,-5.313,-5.3112,-5.3112,-5.3075,-5.3038,-5.302,-5.2983,-5.2947,-5.3002,-5.302,-5.3057,-5.3112,-5.3167,-5.3185,-5.3185,-5.3185,-5.3185,-5.3185,-5.3185,-5.3185,-5.3185,-5.3185,-5.3185,-5.3185,-5.3185,-5.3185,-5.3185,-5.3222,-5.3408,-5.3812,-5.4473,-5.4564,-5.5097,-5.5812,-5.6161,-5.6657,-5.7134,-5.7611,-5.774,-5.7978,-5.7978,-5.7978,-5.7978,-5.7978,-5.7978,-5.7978,-5.7978,-5.7978,-5.7978,-5.7978,-5.7978,-5.7978,-5.7978,-5.7978,-5.7978,-5.7978,-5.7978,-5.7978,-5.7978,-5.7978,-5.7978,-5.7978,-5.7978,-5.7978,-5.7978,-5.7978,-5.7978,-5.7978,-5.7978,-5.7978,-5.7978,-5.7978,-5.7978,-5.7978,-5.7978,-5.3185,-5.3185,-5.3185,-5.3185,-5.3185,-5.3185,-5.3185,-5.3185,-5.3185,-5.3185,-5.3185,-5.3057,-5.3057,-5.302,-5.2782,-5.2726,-5.2763,-5.2837,-5.2855,-5.2763,-5.2674,-5.2983,-5.302,-5.3038,-5.3023,-5.313,-5.3185,-5.3185,-5.3185,-5.3185,-5.3185,-5.3185,-5.3185,-5.3185,-5.3185,-5.3185,-5.3185,-5.3185,-5.3185,-5.3185,-5.3185,-5.3185,-5.3185,-5.3185,-5.3185,-5.3185,-5.3185,-5.3185,-5.3185,-5.3185,-5.3185,-5.3185,-5.3185,-5.3185,-5.3185,-5.3185,-5.3185,-5.3185,-5.3185,-5.3185,-5.3185,-5.3185,-5.3185,-5.3185,-5.3185,-5.3185,-5.3314,-5.3463,-5.3867,-5.4308,-5.4711,-5.5152,-5.5941,-5.6547,-5.6895,-5.7134,-5.7611,-5.7831,-5.7923,-5.7978,-5.7978,-5.7978,-5.7978,-5.7978,-5.7978,-5.7978,-5.7978,-5.7978,-5.7978,-5.7978,-5.7978,-5.7978,-5.7978,-5.7978,-5.7978,-5.7978,-5.7978,-5.7978,-5.7978,-5.7978,-5.7978,-5.7978,-5.7978,-5.7978,-5.7978,-5.7978,-5.7978,-5.7978,-5.7978,-5.7978,-5.7978,-5.7978,-5.7978,-5.7978,-5.7978,-5.3185,-5.3185,-5.3185,-5.3185,-5.3185,-5.3185,-5.3185,-5.3185,-5.3185,-5.3185,-5.3185,-5.3185,-5.3185,-5.3185,-5.3185,-5.3185,-5.3185,-5.3185,-5.3185,-5.3185,-5.3185,-5.3185,-5.3185,-5.3185,-5.3185,-5.3185,-5.3185,-5.3185,-5.3185,-5.3185,-5.3185,-5.3185,-5.3185,-5.3185,-5.3185,-5.3185,-5.3185,-5.3185,-5.3185,-5.3185,-5.3185,-5.3185,-5.3185,-5.3185,-5.3185,-5.3185,-5.3185,-5.3185,-5.3185,-5.3185,-5.3185,-5.3185,-5.3185,-5.3185,-5.3185,-5.3185,-5.3185,-5.3185,-5.3185,-5.3185,-5.3185,-5.3185,-5.3185,-5.3185,-5.3203,-5.3185,-5.3463,-5.3904,-5.4363,-5.4968,-5.5849,-5.6161,-5.6767,-5.7373,-5.7685,-5.7703,-5.7941,-5.7941,-5.7978,-5.7978,-5.7978,-5.7978,-5.7978,-5.7978,-5.7978,-5.7978,-5.7978,-5.7978,-5.7978,-5.7978,-5.7978,-5.7978,-5.7978,-5.7978,-5.7978,-5.7978,-5.7978,-5.7978,-5.7978,-5.7978,-5.7978,-5.7978,-5.7978,-5.7978,-5.7978,-5.7978,-5.7978,-5.7978,-5.7978,-5.7978,-5.7978,-5.7978,-5.7978,-5.7978,-5.7978,-5.3185,-5.3185,-5.3185,-5.3185,-5.3185,-5.3185,-5.3185,-5.3185,-5.3185,-5.3185,-5.3185,-5.3185,-5.3185,-5.3185,-5.3185,-5.3185,-5.3185,-5.3185,-5.3185,-5.3185,-5.3185,-5.3185,-5.3185,-5.3185,-5.3185,-5.3185,-5.3185,-5.3185,-5.3185,-5.3185,-5.3185,-5.3185,-5.3185,-5.3185,-5.3185,-5.3185,-5.3185,-5.3185,-5.3185,-5.3185,-5.3185,-5.3185,-5.3185,-5.3185,-5.3185,-5.3185,-5.3185,-5.3185,-5.3185,-5.3185,-5.3185,-5.3185,-5.3185,-5.3185,-5.3185,-5.3185,-5.3185,-5.3185,-5.3185,-5.3185,-5.3185,-5.3185,-5.3185,-5.3332,-5.3537,-5.3702,-5.4161,-5.4583,-5.4968,-5.5702,-5.6565,-5.6854,-5.7373,-5.796,-5.7978,-5.7978,-5.7978,-5.7978,-5.7978,-5.7978,-5.7978,-5.7978,-5.7978,-5.7978,-5.7978,-5.7978,-5.7978,-5.7978,-5.7978,-5.7978,-5.7978,-5.7978,-5.7978,-5.7978,-5.7978,-5.7978,-5.7978,-5.7978,-5.7978,-5.7978,-5.7978,-5.7978,-5.7978,-5.7978,-5.7978,-5.7978,-5.7978,-5.7978,-5.7978,-5.7978,-5.7978,-5.7978,-5.7978,-5.7978,-5.7978,-5.3185,-5.3185,-5.3185,-5.3185,-5.3185,-5.3185,-5.3185,-5.3185,-5.3185,-5.3185,-5.3185,-5.3185,-5.3185,-5.3185,-5.3185,-5.3185,-5.3185,-5.3185,-5.3185,-5.3185,-5.3185,-5.3185,-5.3185,-5.3185,-5.3185,-5.3185,-5.3185,-5.3185,-5.3185,-5.3185,-5.3185,-5.3185,-5.3185,-5.3185,-5.3185,-5.3185,-5.3185,-5.3185,-5.3185,-5.3185,-5.3185,-5.3185,-5.3185,-5.3185,-5.3185,-5.3185,-5.3185,-5.3185,-5.3185,-5.3185,-5.3185,-5.3185,-5.3185,-5.3185,-5.3185,-5.3185,-5.3185,-5.3185,-5.3222,-5.3222,-5.3387,-5.346,-5.3518,-5.3775,-5.4069,-5.4344,-5.4876,-5.5482,-5.5996,-5.6436,-5.695,-5.7391,-5.7831,-5.7978,-5.7978,-5.7978,-5.7978,-5.7978,-5.7978,-5.7978,-5.7978,-5.7978,-5.7978,-5.7978,-5.7978,-5.7978,-5.7978,-5.7978,-5.7978,-5.7978,-5.7978,-5.7978,-5.7978,-5.7978,-5.7978,-5.7978,-5.7978,-5.7978,-5.7978,-5.7978,-5.7978,-5.7978,-5.7978,-5.7978,-5.7978,-5.7978,-5.7978,-5.7978,-5.7978,-5.7978,-5.7978,-5.7978,-5.7978,-5.7978,-5.7978,-5.3185,-5.3185,-5.3185,-5.3185,-5.3185,-5.3185,-5.3185,-5.3185,-5.3185,-5.3185,-5.3185,-5.3185,-5.3185,-5.3185,-5.3185,-5.3185,-5.3185,-5.3185,-5.3185,-5.3185,-5.3185,-5.3185,-5.3185,-5.3185,-5.3185,-5.3185,-5.3185,-5.3185,-5.3185,-5.3185,-5.3185,-5.3185,-5.3185,-5.3185,-5.3185,-5.3185,-5.3185,-5.3185,-5.3185,-5.3185,-5.3185,-5.3185,-5.3185,-5.3185,-5.3185,-5.3185,-5.3185,-5.3185,-5.3185,-5.3185,-5.3185,-5.3185,-5.3185,-5.3185,-5.3185,-5.3185,-5.3185,-5.3203,-5.3277,-5.3757,-5.4069,-5.4197,-5.4509,-5.4509,-5.4711,-5.5023,-5.5629,-5.629,-5.673,-5.7042,-5.7336,-5.774,-5.7978,-5.7978,-5.7978,-5.7978,-5.7978,-5.7978,-5.7978,-5.7978,-5.7978,-5.7978,-5.7978,-5.7978,-5.7978,-5.7978,-5.7978,-5.7978,-5.7978,-5.7978,-5.7978,-5.7978,-5.7978,-5.7978,-5.7978,-5.7978,-5.7978,-5.7978,-5.7978,-5.7978,-5.7978,-5.7978,-5.7978,-5.7978,-5.7978,-5.7978,-5.7978,-5.7978,-5.7978,-5.7978,-5.7978,-5.7978,-5.7978,-5.7978,-5.7978,-5.3185,-5.3185,-5.3185,-5.3185,-5.3185,-5.3185,-5.3185,-5.3185,-5.3185,-5.3185,-5.3185,-5.3185,-5.3185,-5.3185,-5.3185,-5.3185,-5.3185,-5.3185,-5.3185,-5.3185,-5.3185,-5.3185,-5.3185,-5.3185,-5.3185,-5.3185,-5.3185,-5.3185,-5.3185,-5.3185,-5.3185,-5.3185,-5.3185,-5.3185,-5.3185,-5.3185,-5.3185,-5.3185,-5.3185,-5.3185,-5.3185,-5.3185,-5.3185,-5.3185,-5.3185,-5.3185,-5.3185,-5.3185,-5.3185,-5.3185,-5.3185,-5.3185,-5.3185,-5.3185,-5.3185,-5.324,-5.361,-5.3702,-5.3885,-5.4491,-5.4766,-5.5078,-5.5592,-5.5721,-5.5739,-5.5941,-5.6528,-5.7116,-5.7262,-5.7446,-5.774,-5.7978,-5.7978,-5.7978,-5.7978,-5.7978,-5.7978,-5.7978,-5.7978,-5.7978,-5.7978,-5.7978,-5.7978,-5.7978,-5.7978,-5.7978,-5.7978,-5.7978,-5.7978,-5.7978,-5.7978,-5.7978,-5.7978,-5.7978,-5.7978,-5.7978,-5.7978,-5.7978,-5.7978,-5.7978,-5.7978,-5.7978,-5.7978,-5.7978,-5.7978,-5.7978,-5.7978,-5.7978,-5.7978,-5.7978,-5.7978,-5.7978,-5.7978,-5.7978,-5.7978,-5.3185,-5.3185,-5.3185,-5.3185,-5.3185,-5.3185,-5.3185,-5.3185,-5.3185,-5.3185,-5.3185,-5.3185,-5.3185,-5.3185,-5.3185,-5.3185,-5.3185,-5.3185,-5.3185,-5.3185,-5.3185,-5.3185,-5.3185,-5.3185,-5.3185,-5.3185,-5.3185,-5.3185,-5.3185,-5.3185,-5.3185,-5.3185,-5.3185,-5.3185,-5.3185,-5.3185,-5.3277,-5.3555,-5.3482,-5.3427,-5.324,-5.3185,-5.3185,-5.3185,-5.3185,-5.3185,-5.3185,-5.3185,-5.3185,-5.3185,-5.3185,-5.3185,-5.3369,-5.3589,-5.357,-5.372,-5.4234,-5.4399,-5.4693,-5.5244,-5.5574,-5.5941,-5.64,-5.6693,-5.6785,-5.6785,-5.7281,-5.7538,-5.7666,-5.7703,-5.7923,-5.7978,-5.7978,-5.7978,-5.7978,-5.7978,-5.7978,-5.7978,-5.7978,-5.7978,-5.7978,-5.7978,-5.7978,-5.7978,-5.7978,-5.7978,-5.7978,-5.7978,-5.7978,-5.7978,-5.7978,-5.7978,-5.7978,-5.7978,-5.7978,-5.7978,-5.7978,-5.7978,-5.7978,-5.7978,-5.7978,-5.7978,-5.7978,-5.7978,-5.7978,-5.7978,-5.7978,-5.7978,-5.7978,-5.7978,-5.7978,-5.7978,-5.7978,-5.7978,-5.7978,-5.3185,-5.3185,-5.3185,-5.3185,-5.3185,-5.3185,-5.3185,-5.3185,-5.3185,-5.3185,-5.3185,-5.3185,-5.3185,-5.3185,-5.3185,-5.3185,-5.3185,-5.3185,-5.3185,-5.3185,-5.3185,-5.3185,-5.3185,-5.3185,-5.3185,-5.3185,-5.3185,-5.3185,-5.3185,-5.3185,-5.3185,-5.3185,-5.324,-5.3314,-5.3314,-5.3332,-5.3647,-5.4087,-5.4106,-5.3849,-5.3518,-5.3277,-5.3185,-5.324,-5.3298,-5.3408,-5.3369,-5.3314,-5.324,-5.3185,-5.3185,-5.3497,-5.4069,-5.4656,-5.495,-5.506,-5.5133,-5.5262,-5.5519,-5.6014,-5.6436,-5.673,-5.7134,-5.7519,-5.7721,-5.7703,-5.7758,-5.7905,-5.7978,-5.7978,-5.7978,-5.7978,-5.7978,-5.7978,-5.7978,-5.7978,-5.7978,-5.7978,-5.7978,-5.7978,-5.7978,-5.7978,-5.7978,-5.7978,-5.7978,-5.7978,-5.7978,-5.7978,-5.7978,-5.7978,-5.7978,-5.7978,-5.7978,-5.7978,-5.7978,-5.7978,-5.7978,-5.7978,-5.7978,-5.7978,-5.7978,-5.7978,-5.7978,-5.7978,-5.7978,-5.7978,-5.7978,-5.7978,-5.7978,-5.7978,-5.7978,-5.7978,-5.7978,-5.7978,-5.7978,-5.3185,-5.3185,-5.3185,-5.3185,-5.3185,-5.3185,-5.3185,-5.3185,-5.3185,-5.3185,-5.3185,-5.3185,-5.3185,-5.3185,-5.3185,-5.3185,-5.3185,-5.3185,-5.3185,-5.3185,-5.3185,-5.3185,-5.3185,-5.3185,-5.3185,-5.3185,-5.3185,-5.3185,-5.3185,-5.3185,-5.3185,-5.3295,-5.3424,-5.3739,-5.3775,-5.4032,-5.4418,-5.4913,-5.4932,-5.4675,-5.4234,-5.4234,-5.4252,-5.4271,-5.4234,-5.4216,-5.4271,-5.4271,-5.4271,-5.4289,-5.4381,-5.4491,-5.4932,-5.5244,-5.5482,-5.5647,-5.5812,-5.6124,-5.6345,-5.6748,-5.7262,-5.7483,-5.7593,-5.7868,-5.7886,-5.785,-5.785,-5.7978,-5.7978,-5.7978,-5.7978,-5.7978,-5.7978,-5.7978,-5.7978,-5.7978,-5.7978,-5.7978,-5.7978,-5.7978,-5.7978,-5.7978,-5.7978,-5.7978,-5.7978,-5.7978,-5.7978,-5.7978,-5.7978,-5.7978,-5.7978,-5.7978,-5.7978,-5.7978,-5.7978,-5.7978,-5.7978,-5.7978,-5.7978,-5.7978,-5.7978,-5.7978,-5.7978,-5.7978,-5.7978,-5.7978,-5.7978,-5.7978,-5.7978,-5.7978,-5.7978,-5.7978,-5.7978,-5.7978,-5.7978,-5.3185,-5.3185,-5.3185,-5.3185,-5.3185,-5.3185,-5.3185,-5.3185,-5.3185,-5.3185,-5.3185,-5.3185,-5.3185,-5.3185,-5.3185,-5.3185,-5.3185,-5.3185,-5.3185,-5.3185,-5.3185,-5.3185,-5.3185,-5.3185,-5.3185,-5.3185,-5.3185,-5.3185,-5.3185,-5.335,-5.3555,-5.3573,-5.3995,-5.4546,-5.4748,-5.5115,-5.5537,-5.5684,-5.5776,-5.5849,-5.5776,-5.5706,-5.5464,-5.5482,-5.5614,-5.5614,-5.5574,-5.5556,-5.5559,-5.5592,-5.5519,-5.5666,-5.5831,-5.6051,-5.6143,-5.6345,-5.6693,-5.6895,-5.7079,-5.7464,-5.7758,-5.7941,-5.7978,-5.7978,-5.7978,-5.7978,-5.7978,-5.7978,-5.7978,-5.7978,-5.7978,-5.7978,-5.7978,-5.7978,-5.7978,-5.7978,-5.7978,-5.7978,-5.7978,-5.7978,-5.7978,-5.7978,-5.7978,-5.7978,-5.7978,-5.7978,-5.7978,-5.7978,-5.7978,-5.7978,-5.7978,-5.7978,-5.7978,-5.7978,-5.7978,-5.7978,-5.7978,-5.7978,-5.7978,-5.7978,-5.7978,-5.7978,-5.7978,-5.7978,-5.7978,-5.7978,-5.7978,-5.7978,-5.7978,-5.7978,-5.7978,-5.7978,-5.7978,-5.7978,-5.7978,-5.3185,-5.3185,-5.3185,-5.3185,-5.3185,-5.3185,-5.3185,-5.3185,-5.3185,-5.3185,-5.3185,-5.3185,-5.3185,-5.3185,-5.3185,-5.3185,-5.3185,-5.3185,-5.3185,-5.3185,-5.3185,-5.3185,-5.3185,-5.3185,-5.3185,-5.3185,-5.3185,-5.3203,-5.3442,-5.3885,-5.4179,-5.4234,-5.4968,-5.5354,-5.539,-5.5757,-5.6069,-5.6363,-5.6657,-5.6748,-5.6877,-5.6528,-5.5706,-5.5614,-5.5614,-5.5614,-5.5592,-5.5614,-5.5614,-5.5776,-5.6216,-5.6492,-5.6693,-5.6969,-5.7152,-5.7134,-5.7483,-5.7538,-5.7721,-5.7831,-5.7978,-5.7978,-5.7978,-5.7978,-5.7978,-5.7978,-5.7978,-5.7978,-5.7978,-5.7978,-5.7978,-5.7978,-5.7978,-5.7978,-5.7978,-5.7978,-5.7978,-5.7978,-5.7978,-5.7978,-5.7978,-5.7978,-5.7978,-5.7978,-5.7978,-5.7978,-5.7978,-5.7978,-5.7978,-5.7978,-5.7978,-5.7978,-5.7978,-5.7978,-5.7978,-5.7978,-5.7978,-5.7978,-5.7978,-5.7978,-5.7978,-5.7978,-5.7978,-5.7978,-5.7978,-5.7978,-5.7978,-5.7978,-5.7978,-5.7978,-5.7978,-5.7978,-5.7978,-5.7978,-5.7978]},{"header":{"parameterUnit":"m.s-1","parameterCategory":1,"la1":31.0,"la2":29.5877,"lo1":-88.7671,"lo2":-86.6584,"dy":0.0162,"dx":0.0185,"nx":115,"ny":88,"refTime":"2024-03-29T06:00:00:Z","depth":0,"parameterNumber":3,"parameterNumberName":"V-component_of_WINDS"},"data":[0.0,0.0,0.0,0.0,0.0,0.0,0.0,0.0,0.0,0.0,0.0,0.0,0.0,0.0,0.0,0.0,0.0,0.0,0.0,0.0,0.0,0.0,0.0,0.0,0.0,0.0,0.0,0.0,0.0,0.0,0.0,0.0,0.0,0.0,0.0,0.0,0.0,0.0,0.0,0.0,0.0,0.0,0.0,0.0,0.0,0.0,0.0,0.0,0.0,0.0,0.0,0.0,0.0,0.0,0.0,0.0,0.0,0.0,0.0,0.0,0.0,0.0,0.0,0.0,0.0,0.0,0.0,0.0,0.0,0.0,0.0,0.0,0.0,0.0,0.0,0.0,0.0,0.0,0.0,0.0,0.0,0.0,0.0,0.0,0.0,0.0,0.0,0.0,0.0,0.0,0.0,0.0,0.0,0.0,0.0,0.0,0.0,0.0,0.0,0.0,0.0,0.0,0.0,0.0,0.0,0.0,0.0,0.0,0.0,0.0,0.0,0.0,0.0,0.0,0.0,0.0,0.0,0.0,0.0,0.0,0.0,0.0,0.0,0.0,0.0,0.0,0.0,0.0,0.0,0.0,0.0,0.0,0.0,0.0,0.0,0.0,0.0,0.0,0.0,0.0,0.0,0.0,0.0,0.0,0.0,0.0,0.0,0.0,0.0,0.0,0.0,0.0,0.0,0.0,0.0,0.0,0.0,0.0,0.0,0.0,0.0,0.0,0.0,0.0,0.0,0.0,0.0,0.0,0.0,0.0,0.0,0.0,0.0,0.0,0.0,0.0,0.0,0.0,0.0,0.0,0.0,0.0,0.0,0.0,0.0,0.0,0.0,0.0,0.0,0.0,0.0,0.0,0.0,0.0,0.0,0.0,0.0,0.0,0.0,0.0,0.0,0.0,0.0,0.0,0.0,0.0,0.0,0.0,0.0,0.0,0.0,0.0,0.0,0.0,0.0,0.0,0.0,0.0,0.0,0.0,0.0,0.0,0.0,0.0,0.0,0.0,0.0,0.0,0.0,0.0,0.0,0.0,0.0,0.0,0.0,0.0,0.0,0.0,0.0,0.0,0.0,0.0,0.0,0.0,0.0,0.0,0.0,0.0,0.0,0.0,0.0,0.0,0.0,0.0,0.0,0.0,0.0,0.0,0.0,0.0,0.0,0.0,0.0,0.0,0.0,0.0,0.0,0.0,0.0,0.0,0.0,0.0,0.0,0.0,0.0,0.0,0.0,0.0,0.0,0.0,0.0,0.0,0.0,0.0,0.0,0.0,0.0,0.0,0.0,0.0,0.0,0.0,0.0,0.0,0.0,0.0,0.0,0.0,0.0,0.0,0.0,0.0,0.0,0.0,0.0,0.0,0.0,0.0,0.0,0.0,0.0,0.0,0.0,0.0,0.0,0.0,0.0,0.0,0.0,0.0,0.0,0.0,0.0,0.0,0.0,0.0,0.0,0.0,0.0,0.0,0.0,0.0,0.0,0.0,0.0,0.0,0.0,0.0,0.0,0.0,0.0,0.0,0.0,0.0,0.0,0.0,0.0,0.0,0.0,0.0,0.0,0.0,0.0,0.0,0.0,0.0,0.0,0.0,0.0,0.0,0.0,0.0,0.0,0.0,0.0,0.0,0.0,0.0,0.0,0.0,0.0,0.0,0.0,0.0,0.0,0.0,0.0,0.0,0.0,0.0,0.0,0.0,0.0,0.0,0.0,0.0,0.0,0.0,0.0,0.0,0.0,0.0,0.0,0.0,0.0,0.0,0.0,0.0,0.0,0.0,0.0,0.0,0.0,0.0,0.0,0.0,0.0,0.0,0.0,0.0,0.0,0.0,0.0,0.0,0.0,0.0,0.0,0.0,0.0,0.0,0.0,0.0,0.0,0.0,0.0,0.0,0.0,0.0,0.0,0.0,0.0,0.0,0.0,0.0,0.0,0.0,0.0,0.0,0.0,0.0,0.0,0.0,0.0,0.0,0.0,0.0,0.0,0.0,0.0,0.0,0.0,0.0,0.0,0.0,0.0,0.0,0.0,0.0,0.0,0.0,0.0,0.0,0.0,0.0,0.0,0.0,0.0,0.0,0.0,0.0,0.0,0.0,0.0,0.0,0.0,0.0,0.0,0.0,0.0,0.0,0.0,0.0,0.0,0.0,0.0,0.0,0.0,0.0,0.0,0.0,0.0,0.0,0.0,0.0,0.0,0.0,0.0,0.0,0.0,0.0,0.0,0.0,0.0,0.0,0.0,0.0,0.0,0.0,0.0,0.0,0.0,0.0,0.0,0.0,0.0,0.0,0.0,0.0,0.0,0.0,0.0,0.0,0.0,0.0,0.0,0.0,0.0,0.0,0.0,0.0,0.0,0.0,0.0,0.0,0.0,0.0,0.0,0.0,0.0,0.0,0.0,0.0,0.0,0.0,0.0,0.0,0.0,0.0,0.0,0.0,0.0,0.0,0.0,0.0,0.0,0.0,0.0,0.0,0.0,0.0,0.0,0.0,0.0,0.0,0.0,0.0,0.0,0.0,0.0,0.0,0.0,0.0,0.0,0.0,0.0,0.0,0.0,0.0,0.0,0.0,0.0,0.0,0.0,0.0,0.0,0.0,0.0,0.0,0.0,0.0,0.0,0.0,0.0,0.0,0.0,0.0,0.0,0.0,0.0,0.0,0.0,0.0,0.0,0.0,0.0,0.0,0.0,0.0,0.0,0.0,0.0,0.0,0.0,0.0,0.0,0.0,0.0,0.0,0.0,0.0,0.0,0.0,0.0,0.0,0.0,0.0,0.0,0.0,0.0,0.0,0.0,0.0,0.0,0.0,0.0,0.0,0.0,0.0,0.0,0.0,0.0,0.0,0.0,0.0,0.0,0.0,0.0,0.0,0.0,0.0,0.0,0.0,0.0,0.0,0.0,0.0,0.0,0.0,0.0,0.0,0.0,0.0,0.0,0.0,0.0,0.0,0.0,0.0,0.0,0.0,0.0,0.0,0.0,0.0,0.0,0.0,0.0,0.0,0.0,0.0,0.0,0.0,0.0,0.0,0.0,0.0,0.0,0.0,0.0,0.0,0.0,0.0,0.0,0.0,0.0,0.0,0.0,0.0,0.0,0.0,0.0,0.0,0.0,0.0,0.0,0.0,0.0,0.0,0.0,0.0,0.0,0.0,0.0,0.0,0.0,0.0,0.0,0.0,0.0,0.0,0.0,0.0,0.0,0.0,0.0,0.0,0.0,0.0,0.0,0.0,0.0,0.0,0.0,0.0,0.0,0.0,0.0,0.0,0.0,0.0,0.0,0.0,0.0,0.0,0.0,0.0,0.0,0.0,0.0,0.0,0.0,0.0,0.0,0.0,0.0,0.0,0.0,0.0,0.0,0.0,0.0,0.0,0.0,0.0,0.0,0.0,0.0,0.0,0.0,0.0,0.0,0.0,0.0,0.0,0.0,0.0,0.0,0.0,0.0,0.0,0.0,0.0,0.0,0.0,0.0,0.0,0.0,0.0,0.0,0.0,0.0,0.0,0.0,0.0,0.0,0.0,0.0,0.0,0.0,0.0,0.0,0.0,0.0,0.0,0.0,0.0,0.0,0.0,0.0,0.0,0.0,0.0,0.0,0.0,0.0,0.0,0.0,0.0,0.0,0.0,0.0,0.0,0.0,0.0,0.0,0.0,0.0,0.0,0.0,0.0,0.0,0.0,0.0,0.0,0.0,0.0,0.0,0.0,0.0,0.0,0.0,0.0,0.0,0.0,0.0,0.0,0.0,0.0,0.0,0.0,0.0,0.0,0.0,0.0,0.0,0.0,0.0,0.0,0.0,0.0,0.0,0.0,0.0,0.0,0.0,0.0,0.0,0.0,0.0,0.0,0.0,0.0,0.0,0.0,0.0,0.0,0.0,0.0,0.0,0.0,0.0,0.0,0.0,0.0,0.0,0.0,0.0,0.0,0.0,0.0,0.0,0.0,0.0,0.0,0.0,0.0,0.0,0.0,0.0,0.0,0.0,0.0,0.0,0.0,0.0,0.0,0.0,0.0,0.0,0.0,0.0,0.0,0.0,0.0,0.0,0.0,0.0,0.0,0.0,0.0,0.0,0.0,0.0,0.0,0.0,0.0,0.0,0.0,0.0,0.0,0.0,0.0,0.0,0.0,0.0,0.0,0.0,0.0,0.0,0.0,0.0,0.0,0.0,0.0,0.0,0.0,0.0,0.0,0.0,0.0,0.0,0.0,0.0,0.0,0.0,0.0,0.0,0.0,0.0,0.0,0.0,0.0,0.0,0.0,0.0,0.0,-0.4906,0.0,0.0,0.0,0.0,0.0,0.0,0.0,0.0,0.0,0.0,0.0,0.0,0.0,0.0,0.0,0.0,0.0,0.0,0.0,0.0,0.0,0.0,0.0,0.0,0.0,0.0,0.0,0.0,0.0,0.0,0.0,0.0,0.0,0.0,0.0,0.0,0.0,0.0,0.0,0.0,0.0,0.0,0.0,0.0,0.0,0.0,0.0,0.0,0.0,0.0,0.0,0.0,0.0,0.0,0.0,0.0,0.0,0.0,0.0,0.0,0.0,0.0,0.0,0.0,0.0,0.0,0.0,0.0,0.0,0.0,0.0,0.0,0.0,0.0,0.0,0.0,0.0,0.0,0.0,0.0,0.0,0.0,0.0,0.0,0.0,0.0,0.0,0.0,0.0,0.0,0.0,0.0,0.0,0.0,0.0,0.0,0.0,0.0,0.0,0.0,0.0,0.0,0.0,0.0,0.0,0.0,0.0,0.0,0.0,0.0,-0.3565,-0.3767,-0.4102,-0.4372,-0.4505,0.0,0.0,0.0,0.0,0.0,0.0,0.0,0.0,0.0,0.0,0.0,0.0,0.0,0.0,0.0,0.0,0.0,0.0,0.0,0.0,0.0,0.0,0.0,0.0,0.0,0.0,0.0,0.0,0.0,0.0,0.0,0.0,0.0,0.0,0.0,0.0,0.0,0.0,0.0,0.0,0.0,0.0,0.0,0.0,0.0,0.0,0.0,0.0,0.0,0.0,0.0,0.0,0.0,0.0,0.0,0.0,0.0,0.0,0.0,0.0,0.0,0.0,0.0,0.0,0.0,0.0,0.0,0.0,0.0,0.0,0.0,0.0,0.0,0.0,0.0,0.0,0.0,0.0,0.0,0.0,0.0,0.0,0.0,0.0,0.0,0.0,0.0,0.0,0.0,0.0,0.0,0.0,0.0,0.0,0.0,0.0,0.0,0.0,0.0,0.0,0.0,0.0,0.0,0.0,0.0,0.0,0.0,0.0,0.0,0.0,0.0,0.0,-0.3701,-0.3964,-0.4285,0.0,0.0,0.0,0.0,0.0,0.0,0.0,0.0,0.0,0.0,0.0,0.0,0.0,0.0,0.0,0.0,0.0,0.0,0.0,0.0,0.0,0.0,0.0,0.0,0.0,0.0,0.0,0.0,0.0,0.0,0.0,0.0,0.0,0.0,0.0,0.0,0.0,0.0,0.0,0.0,0.0,0.0,0.0,0.0,0.0,0.0,0.0,0.0,0.0,0.0,0.0,0.0,0.0,0.0,0.0,0.0,0.0,0.0,0.0,0.0,0.0,0.0,0.0,0.0,0.0,0.0,0.0,0.0,0.0,0.0,0.0,0.0,0.0,0.0,0.0,0.0,0.0,0.0,0.0,0.0,0.0,0.0,0.0,0.0,0.0,0.0,0.0,0.0,0.0,0.0,0.0,0.0,0.0,0.0,0.0,0.0,0.0,0.0,0.0,0.0,0.0,0.0,0.0,0.0,0.0,0.0,0.0,0.0,0.0,0.0,-0.2761,-0.2828,-0.3432,0.0,-0.4225,0.0,0.0,0.0,0.0,0.0,0.0,0.0,0.0,0.0,0.0,0.0,0.0,0.0,0.0,0.0,0.0,0.0,0.0,0.0,0.0,0.0,0.0,0.0,0.0,0.0,0.0,0.0,0.0,0.0,0.0,0.0,0.0,0.0,0.0,0.0,0.0,0.0,0.0,0.0,0.0,0.0,0.0,0.0,0.0,0.0,0.0,0.0,0.0,0.0,0.0,0.0,0.0,0.0,0.0,0.0,0.0,0.0,0.0,0.0,0.0,0.0,0.0,0.0,0.0,0.0,0.0,0.0,0.0,0.0,0.0,0.0,0.0,0.0,0.0,0.0,0.0,0.0,0.0,0.0,0.0,0.0,0.0,0.0,0.0,0.0,0.0,0.0,0.0,0.0,0.0,0.0,0.0,0.0,0.0,0.0,0.0,0.0,0.0,0.0,0.0,0.0,0.0,0.0,0.0,0.0,0.0,0.0,0.0,0.0,0.0,-0.2223,-0.2694,-0.3338,-0.3761,0.0,0.0,0.0,0.0,0.0,0.0,0.0,0.0,0.0,0.0,0.0,0.0,0.0,0.0,0.0,0.0,0.0,0.0,0.0,0.0,0.0,0.0,0.0,0.0,0.0,0.0,0.0,0.0,0.0,0.0,0.0,0.0,0.0,0.0,0.0,0.0,0.0,0.0,0.0,0.0,0.0,0.0,0.0,0.0,0.0,0.0,0.0,0.0,0.0,0.0,0.0,0.0,0.0,0.0,0.0,0.0,0.0,0.0,0.0,0.0,0.0,0.0,0.0,0.0,0.0,0.0,0.0,0.0,0.0,0.0,0.0,0.0,0.0,0.0,0.0,0.0,0.0,0.0,0.0,0.0,0.0,0.0,0.0,0.0,0.0,0.0,0.0,0.0,0.0,0.0,0.0,0.0,0.0,0.0,0.0,0.0,0.0,0.0,0.0,0.0,0.0,0.0,0.0,0.0,0.0,0.0,0.0,0.0,0.0,0.0,-0.1481,-0.1814,-0.2544,-0.3114,-0.3462,-0.3591,0.0,0.0,0.0,0.0,0.0,0.0,0.0,0.0,0.0,0.0,0.0,0.0,0.0,0.0,0.0,0.0,0.0,0.0,0.0,0.0,0.0,0.0,0.0,0.0,0.0,0.0,0.0,0.0,0.0,0.0,0.0,0.0,0.0,0.0,0.0,0.0,0.0,0.0,0.0,0.0,0.0,0.0,0.0,0.0,0.0,0.0,0.0,0.0,0.0,0.0,0.0,0.0,0.0,0.0,0.0,0.0,0.0,0.0,0.0,0.0,0.0,0.0,0.0,0.0,0.0,0.0,0.0,0.0,0.0,0.0,0.0,0.0,0.0,0.0,0.0,0.0,0.0,0.0,0.0,0.0,0.0,0.0,0.0,0.0,0.0,0.0,0.0,0.0,0.0,0.0,0.0,0.0,0.0,0.0,0.0,0.0,0.0,0.0,0.0,0.0,0.0,0.0,0.0,0.0,0.0,0.0,0.0,0.0,-0.1144,-0.1144,-0.1471,-0.2112,-0.244,-0.2928,0.0,0.0,0.0,0.0,0.0,0.0,0.0,0.0,0.0,0.0,0.0,0.0,0.0,0.0,0.0,0.0,0.0,0.0,0.0,0.0,0.0,0.0,0.0,0.0,0.0,0.0,0.0,0.0,0.0,0.0,0.0,0.0,0.0,0.0,0.0,0.0,0.0,0.0,0.0,0.0,0.0,0.0,0.0,0.0,0.0,0.0,0.0,0.0,0.0,0.0,0.0,0.0,0.0,0.0,0.0,0.0,0.0,0.0,0.0,0.0,0.0,0.0,0.0,0.0,0.0,0.0,0.0,0.0,0.0,0.0,0.0,0.0,0.0,0.0,0.0,0.0,0.0,0.0,0.0,0.0,0.0,0.0,0.0,0.0,0.0,0.0,0.0,0.0,0.0,0.0,0.0,0.0,0.0,0.0,0.0,0.0,0.0,0.0,0.0,0.0,0.0,0.0,0.0,0.0,0.0,0.0,0.0,0.0,0.0,-0.074,-0.0934,-0.1319,-0.1756,-0.2061,-0.2424,0.0,0.0,0.0,0.0,0.0,0.0,0.0,0.0,0.0,0.0,0.0,0.0,0.0,0.0,0.0,0.0,0.0,0.0,0.0,0.0,0.0,0.0,0.0,0.0,0.0,0.0,0.0,0.0,0.0,0.0,0.0,0.0,0.0,0.0,0.0,0.0,0.0,0.0,0.0,0.0,0.0,0.0,0.0,0.0,0.0,0.0,0.0,0.0,0.0,0.0,0.0,0.0,0.0,0.0,0.0,0.0,0.0,0.0,0.0,0.0,0.0,0.0,0.0,0.0,0.0,0.0,0.0,0.0,0.0,0.0,0.0,0.0,0.0,0.0,0.0,0.0,0.0,0.0,0.0,0.0,0.0,0.0,0.0,0.0,0.0,0.0,0.0,0.0,0.0,0.0,0.0,0.0,0.0,0.0,0.0,0.0,0.0,0.0,0.0,0.0,0.0,0.0,0.0,0.0,0.0,0.0,0.0,0.0,0.0,-0.0332,0.0,-0.104,-0.1218,-0.1649,-0.2014,0.0,0.0,0.0,0.0,0.0,0.0,0.0,0.0,0.0,0.0,0.0,0.0,0.0,0.0,0.0,0.0,0.0,0.0,0.0,0.0,0.0,0.0,0.0,0.0,0.0,0.0,0.0,0.0,0.0,0.0,0.0,0.0,0.0,0.0,0.0,0.0,0.0,0.0,0.0,0.0,0.0,0.0,0.0,0.0,0.0,0.0,0.0,0.0,0.0,0.0,0.0,0.0,0.0,0.0,0.0,0.0,0.0,0.0,0.0,0.0,0.0,0.0,0.0,0.0,0.0,0.0,0.0,0.0,0.0,0.0,0.0,0.0,0.0,0.0,0.0,0.0,0.0,0.0,0.0,0.0,0.0,0.0,0.0,0.0,0.0,0.0,0.0,0.0,0.0,0.0,0.0,0.0,0.0,0.0,0.0,0.0,0.0,0.0,0.0,0.0,0.0,0.0,0.0,0.0,0.0,0.0,0.0,0.0,0.0,0.0,-0.0323,-0.0513,-0.0506,-0.1135,-0.1628,0.0,0.0,0.0,0.0,0.0,0.0,0.0,0.0,0.0,0.0,0.0,0.0,0.0,0.0,0.0,0.0,0.0,0.0,0.0,0.0,0.0,0.0,0.0,0.0,0.0,0.0,0.0,0.0,0.0,0.0,0.0,0.0,0.0,0.0,0.0,0.0,0.0,0.0,0.0,0.0,0.0,0.0,0.0,0.0,0.0,0.0,0.0,0.0,0.0,0.0,0.0,0.0,0.0,0.0,0.0,0.0,0.0,0.0,0.0,0.0,0.0,0.0,0.0,0.0,0.0,0.0,0.0,0.0,0.0,0.0,0.0,0.0,0.0,0.0,0.0,0.0,0.0,0.0,0.0,0.0,0.0,0.0,0.0,0.0,0.0,0.0,0.0,0.0,0.0,0.0,0.0,0.0,0.0,0.0,0.0,0.0,0.0,0.0,0.0,0.0,0.0,0.0,0.0,0.0,0.0,0.0,0.0,0.0,0.0,0.0382,0.0254,0.0,-0.0498,-0.0684,-0.1054,0.0,0.0,0.0,0.0,0.0,0.0,0.0,0.0,0.0,0.0,0.0,0.0,0.0,0.0,0.0,0.0,0.0,0.0,0.0,0.0,0.0,0.0,0.0,0.0,0.0,0.0,0.0,0.0,0.0,0.0,0.0,0.0,0.0,0.0,0.0,0.0,0.0,0.0,0.0,0.0,0.0,0.0,0.0,0.0,0.0,0.0,0.0,0.0,0.0,0.0,0.0,0.0,0.0,0.0,0.0,0.0,0.0,0.0,0.0,0.0,0.0,0.0,0.0,0.0,0.0,0.0,0.0,0.0,0.0,0.0,0.0,0.0,0.0,0.0,0.0,0.0,0.0,0.0,0.0,0.0,0.0,0.0,0.0,0.0,0.0,0.0,0.0,0.0,0.0,0.0,0.0,0.0,0.0,0.0,0.0,0.0,0.0,0.0,0.0,0.0,0.0,0.0,0.0,0.0,0.0,0.0,0.0,0.0,0.0,0.0877,0.0752,0.0437,-0.0124,-0.0247,-0.0556,-0.1112,0.0,0.0,0.0,0.0,0.0,0.0,0.0,0.0,0.0,0.0,0.0,0.0,0.0,0.0,0.0,0.0,0.0,0.0,0.0,0.0,0.0,0.0,0.0,0.0,0.0,0.0,0.0,0.0,0.0,0.0,0.0,0.0,0.0,0.0,0.0,0.0,0.0,0.0,0.0,0.0,0.0,0.0,0.0,0.0,0.0,0.0,0.0,0.0,0.0,0.0,0.0,0.0,0.0,0.0,0.0,0.0,0.0,0.0,0.0,0.0,0.0,0.0,0.0,0.0,0.0,0.0,0.0,0.0,0.0,0.0,0.0,0.0,0.0,0.0,0.0,0.0,0.0,0.0,0.0,0.0,0.0,0.0,0.0,0.0,0.0,0.0,0.0,0.0,0.0,0.0,0.0,0.0,0.0,0.0,0.0,0.0,0.0,0.0,0.0,0.0,0.0,0.0,0.0,0.0,0.0,0.0,0.0,0.0,0.1606,0.1235,0.0926,0.0556,0.0247,-0.0124,0.0,0.0,0.0,0.0,0.0,0.0,0.0,0.0,0.0,0.0,0.0,0.0,0.0,0.0,0.0,0.0,0.0,0.0,0.0,0.0,0.0,0.0,0.0,0.0,0.0,0.0,0.0,0.0,0.0,0.0,0.0,0.0,0.0,0.0,0.0,0.0,0.0,0.0,0.0,0.0,0.0,0.0,0.0,0.0,0.0,0.0,0.0,0.0,0.0,0.0,0.0,0.0,0.0,0.0,0.0,0.0,0.0,0.0,0.0,0.0,0.0,0.0,0.0,0.0,0.0,0.0,0.0,0.0,0.0,0.0,0.0,0.0,0.0,0.0,0.0,0.0,0.0,0.0,0.0,0.0,0.0,0.0,0.0,0.0,0.0,0.0,0.0,0.0,0.0,0.0,0.0,0.0,0.0,0.0,0.0,0.0,0.0,0.0,0.0,0.0,0.0,0.0,0.0,0.0,0.0,0.0,0.0,0.0,0.0,0.2591,0.2282,0.1728,0.0926,0.0803,0.0432,0.0,0.0,0.0,0.0,0.0,0.0,0.0,0.0,0.0,0.0,0.0,0.0,0.0,0.0,0.0,0.0,0.0,0.0,0.0,0.0,0.0,0.0,0.0,0.0,0.0,0.0,0.0,0.0,0.0,0.0,0.0,0.0,0.0,0.0,0.0,0.0,0.0,0.0,0.0,0.0,0.0,0.0,0.0,0.0,0.0,0.0,0.0,0.0,0.0,0.0,0.0,0.0,0.0,0.0,0.0,0.0,0.0,0.0,0.0,0.0,0.0,0.0,0.0,0.0,0.0,0.0,0.0,0.0,0.0,0.0,0.0,0.0,0.0,0.0,0.0,0.0,0.0,0.0,0.0,0.0,0.0,0.0,0.0,0.0,0.0,0.0,0.0,0.0,0.0,0.0,0.0,0.0,0.0,0.0,0.0,0.0,0.0,0.0,0.0,0.0,0.0,0.0,0.0,0.0,0.0,0.0,0.0,0.0,0.296,0.296,0.2837,0.2406,0.1851,0.142,0.0988,0.0,0.0,0.0,0.0,0.0,0.0,0.0,0.0,0.0,0.0,0.0,0.0,0.0,0.0,0.0,0.0,0.0,0.0,0.0,0.0,0.0,0.0,0.0,0.0,0.0,0.0,0.0,0.0,0.0,0.0,0.0,0.0,0.0,0.0,0.0,0.0,0.0,0.0,0.0,0.0,0.0,0.0,0.0,0.0,0.0,0.0,0.0,0.0,0.0,0.0,0.0,0.0,0.0,0.0,0.0,0.0,0.0,0.0,0.0,0.0,0.0,0.0,0.0,0.0,0.0,0.0,0.0,0.0,0.0,0.0,0.0,0.0,0.0,0.0,0.0,0.0,0.0,0.0,0.0,0.0,0.0,0.0,0.0,0.0,0.0,0.0,0.0,0.0,0.0,0.0,0.0,0.0,0.0,0.0,0.0,0.0,0.0,0.0,0.0,0.0,0.0,0.0,0.0,0.0,0.0,0.0,0.0,0.0,0.3208,0.3208,0.3146,0.3085,0.3085,0.2098,0.142,0.0,0.0,0.0,0.0,0.0,0.0,0.0,0.0,0.0,0.0,0.0,0.0,0.0,0.0,0.0,0.0,0.0,0.0,0.0,0.0,0.0,0.0,0.0,0.0,0.0,0.0,0.0,0.0,0.0,0.0,0.0,0.0,0.0,0.0,0.0,0.0,0.0,0.0,0.0,0.0,0.0,0.0,0.0,0.0,0.0,0.0,0.0,0.0,0.0,0.0,0.0,0.0,0.0,0.0,0.0,0.0,0.0,0.0,0.0,0.0,0.0,0.0,0.0,0.0,0.0,0.0,0.0,0.0,0.0,0.0,0.0,0.0,0.0,0.0,0.0,0.0,0.0,0.0,0.0,0.0,0.0,0.0,0.0,0.0,0.0,0.0,0.0,0.0,0.0,0.0,0.0,0.0,0.0,0.0,0.0,0.0,0.0,0.0,0.0,0.0,0.0,0.0,0.0,0.0,0.0,0.0,0.0,0.0,0.4502,0.4502,0.4007,0.3698,0.3698,0.2775,0.2159,0.0,0.0,0.0,0.0,0.0,0.0,0.0,0.0,0.0,0.0,0.0,0.0,0.0,0.0,0.0,0.0,0.0,0.0,0.0,0.0,0.0,0.0,0.0,0.0,0.0,0.0,0.0,0.0,0.0,0.0,0.0,0.0,0.0,0.0,0.0,0.0,0.0,0.0,0.0,0.0,0.0,0.0,0.0,0.0,0.0,0.0,0.0,0.0,-0.1469,0.0,0.0,0.0,0.0,0.0,0.0,0.0,0.0,0.0,0.0,0.0,0.0,0.0,0.0,0.0,0.0,0.0,0.0,0.0,0.0,0.0,0.0,0.0,0.0,0.0,0.0,0.0,0.0,0.0,0.0,0.0,0.0,0.0,0.0,0.0,0.0,0.0,0.0,0.0,0.0,0.0,0.0,0.0,0.0,0.0,0.0,0.0,0.0,0.0,0.0,0.0,0.0,0.0,0.0,0.0,0.0,0.0,0.0,0.0,0.4935,0.4872,0.4562,0.4376,0.4315,0.3575,0.2959,0.0,0.0,0.0,0.0,0.0,0.0,0.0,0.0,0.0,0.0,0.0,0.0,0.0,0.0,0.0,0.0,0.0,0.0,0.0,0.0,0.0,0.0,0.0,0.0,0.0,0.0,0.0,0.0,0.0,0.0,0.0,0.0,0.0,0.0,0.0,0.0,0.0,0.0,0.0,0.0,0.0,0.0,0.0,0.0,0.0,0.0,0.0,0.0,0.0,0.0,0.0,0.0,0.0,0.0,0.0,0.0,0.0,0.0,0.0,0.0,0.0,0.0,0.0,0.0,0.0,0.0,0.0,0.0,0.0,0.0,0.0,0.0,0.0,0.0,0.0,0.0,0.0,0.0,0.0,0.0,0.0,0.0,0.0,0.0,0.0,0.0,0.0,0.0,0.0,0.0,0.0,0.0,0.0,0.0,0.0,0.0,0.0,0.0,0.0,0.0,0.0,0.0,0.0,0.0,0.0,0.0,0.0,0.5241,0.5179,0.5118,0.5056,0.5058,0.4995,0.4376,0.3822,0.3331,0.0,0.0,0.0,0.0,0.0,0.0,0.0,0.0,0.0,0.0,0.0,0.0,0.0,0.0,0.0,0.0,0.0,0.0,0.0,0.0,0.0,0.0,0.0,0.0,0.0,0.0,0.0,0.0,0.0,0.0,0.0,0.0,0.0,0.0,0.0,0.0,0.0,0.0,-0.0679,-0.0681,0.0,0.0,0.0,0.0,0.0,0.0,0.0,0.0,-0.0649,0.0,0.0,0.0,0.0,0.0,0.0,0.0,0.0,0.0,0.0,0.0,0.0,0.0,0.0,0.0,0.0,0.0,0.0,0.0,0.0,0.0,0.0,0.0,0.0,0.0,0.0,0.0,0.0,0.0,0.0,0.0,0.0,0.0,0.0,0.0,0.0,0.0,0.0,0.0,0.0,0.0,0.0,0.0,0.0,0.0,0.0,0.0,0.0,0.0,0.0,0.0,0.0,0.0,0.0,0.0,0.0,0.6594,0.6594,0.6469,0.6158,0.5853,0.5607,0.53,0.4931,0.4687,0.4566,0.0,0.0,0.0,0.0,0.0,0.0,0.0,0.0,0.0,0.0,0.0,0.0,0.0,0.0,0.0,0.0,0.0,0.0,0.0,0.0,0.0,0.0,0.0,0.0,0.0,0.0,0.0,0.0,0.0,0.0,0.0,0.0,0.0,0.0,0.0,0.0,0.0,0.0,0.0,0.0687,0.0693,0.0,0.0,0.0,0.0,0.0,0.0,0.0,0.0,0.0735,0.0,0.0,0.0,0.0,0.0,0.0,0.0,0.0,0.0,0.0,0.0,0.0,0.0,0.0,0.0,0.0,0.0,0.0,0.0,0.0,0.0,0.0,0.0,0.0,0.0,0.0,0.0,0.0,0.0,0.0,0.0,0.0,0.0,0.0,0.0,0.0,0.0,0.0,0.0,0.0,0.0,0.0,0.0,0.0,0.0,0.0,0.0,0.0,0.0,0.0,0.0,0.0,0.0,0.0,0.0,0.6903,0.6903,0.6839,0.6653,0.6469,0.6346,0.616,0.5671,0.5404,0.0,0.0,0.0,0.0,0.0,0.0,0.0,0.0,0.0,0.0,0.0,0.0,0.0,0.0,0.0,0.0,0.0,0.0,0.0,0.0,0.0,0.0,0.0,0.0,0.0,0.0,0.0,0.0,0.0,0.0,0.0,0.0,0.0,0.0,0.0,0.0,0.0,0.0,0.0,0.0,0.1001,0.1013,0.1021,0.0,0.0,0.0,0.0,0.0,0.0,0.1077,0.1077,0.0,0.0,0.0,0.0,0.0,0.0,0.0,0.0,0.0,0.0,0.0,0.0,0.0,0.0,0.0,0.0,0.0,0.0,0.0,0.0,0.0,0.0,0.0,0.0,0.0,0.0,0.0,0.0,0.0,0.0,0.0,0.0,0.0,0.0,0.0,0.0,0.0,0.0,0.0,0.0,0.0,0.0,0.0,0.0,0.0,0.0,0.0,0.0,0.0,0.0,0.0,0.0,0.0,0.0,0.0,0.7329,0.7327,0.7268,0.7204,0.7123,0.705,0.6928,0.6359,0.601,0.0,0.0,0.0,0.0,0.0,0.0,0.0,0.0,0.0,0.0,0.0,0.0,0.0,0.0,0.0,0.0,0.0,0.0,0.0,0.0,0.0,0.0,0.0,0.0,0.0,0.0,0.0,0.0,0.0,0.0,0.0,0.0,0.0,0.0,0.0,0.0,0.0,0.0,0.0,0.0,0.0,0.1403,0.1422,0.1508,0.0,0.0,0.0,0.0,0.1548,0.1548,0.0,0.0,0.0,0.0,0.0,0.0,0.0,0.0,0.0,0.0,0.0,0.0,0.0,0.0,0.0,0.0,0.0,0.0,0.0,0.0,0.0,0.0,0.0,0.0,0.0,0.0,0.0,0.0,0.0,0.0,0.0,0.0,0.0,0.0,0.0,0.0,0.0,0.0,0.0,0.0,0.0,0.0,0.0,0.0,0.0,0.0,0.0,0.0,0.0,0.0,0.0,0.0,0.0,0.0,0.0,0.0,0.8671,0.8671,0.8546,0.823,0.7823,0.7472,0.7173,0.6665,0.6436,0.0,0.0,0.0,0.0,0.0,0.0,0.0,0.0,0.0,0.0,0.0,0.0,0.0,0.0,0.0,0.0,0.0,0.0,0.0,0.0,0.0,0.0,0.0,0.0,0.0,0.0,0.0,0.0,0.0,0.0,0.0,0.0,0.0,0.0,0.0,0.0,0.0,0.0,0.0,0.0,0.0,0.2911,0.2954,0.2927,0.2955,0.0,0.0,0.2959,0.2959,0.2959,0.0,0.0,0.0,0.0,0.0,0.0,0.0,0.0,0.0,0.0,0.0,0.0,0.0,0.0,0.0,0.0,0.0,0.0,0.0,0.0,0.0,0.0,0.0,0.0,0.0,0.0,0.0,0.0,0.0,0.0,0.0,0.0,0.0,0.0,0.0,0.0,0.0,0.0,0.0,0.0,0.0,0.0,0.0,0.0,0.0,0.0,0.0,0.0,0.0,0.0,0.0,0.0,0.0,0.0,0.0,0.8735,0.8735,0.8665,0.8569,0.8385,0.8213,0.8007,0.7892,0.7482,0.7193,0.0,0.0,0.0,0.0,0.0,0.0,0.0,0.0,0.0,0.0,0.0,0.0,0.0,0.0,0.0,0.0,0.0,0.0,0.0,0.0,0.0,0.0,0.0,0.0,0.0,0.0,0.0,0.0,0.0,0.0,0.0,0.0,0.0,0.0,0.0,0.0,0.0,0.0,0.0,0.0,0.0,0.0,0.3159,0.3401,0.0,0.0,0.0,0.3833,0.3831,0.0,0.0,0.0,0.0,0.0,0.0,0.0,0.0,0.0,0.0,0.0,0.0,0.0,0.0,0.0,0.0,0.0,0.0,0.0,0.0,0.0,0.0,0.0,0.0,0.0,0.0,0.0,0.0,0.0,0.0,0.0,0.0,0.0,0.0,0.0,0.0,0.0,0.0,0.0,0.0,0.0,0.0,0.0,0.0,0.0,0.0,0.0,0.0,0.0,0.0,0.0,0.0,0.0,0.0,0.0,0.0,0.0,0.9006,0.891,0.8858,0.8858,0.8714,0.8576,0.8579,0.8135,0.0,0.0,0.0,0.0,0.0,0.0,0.0,0.0,0.0,0.0,0.0,0.0,0.0,0.0,0.0,0.0,0.0,0.0,0.0,0.0,0.0,0.0,0.0,0.0,0.0,0.0,0.0,0.2063,0.0,0.0,0.0,0.0,0.0,0.0,0.0,0.0,0.0,0.0,0.0,0.0,0.0,0.0,0.3635,0.3768,0.4011,0.4171,0.0,0.0,0.457,0.457,0.4371,0.4171,0.0,0.0,0.0,0.0,0.0,0.0,0.0,0.0,0.0,0.0,0.0,0.0,0.0,0.0,0.0,0.0,0.0,0.0,0.0,0.0,0.0,0.0,0.0,0.0,0.0,0.0,0.0,0.0,0.0,0.0,0.0,0.0,0.0,0.0,0.0,0.0,0.0,0.0,0.0,0.0,0.0,0.0,0.0,0.0,0.0,0.0,0.0,0.0,0.0,0.0,0.0,0.0,0.0,0.0,1.02,1.0203,1.0192,1.0124,1.0124,0.9467,0.9111,0.9111,0.8364,0.7958,0.0,0.0,0.0,0.0,0.0,0.0,0.0,0.0,0.0,0.0,0.0,0.0,0.0,0.0,0.0,0.0,0.0,0.0,0.0,0.0,0.0,0.0,0.0,0.0,0.0,0.0,0.0,0.0,0.0,0.0,0.0,0.0,0.0,0.0,0.0,0.0,0.0,0.0,0.0,0.0,0.0,0.5077,0.522,0.531,0.5314,0.0,0.5312,0.5312,0.5312,0.5312,0.5312,0.5314,0.0,0.0,0.0,0.0,0.0,0.0,0.0,0.0,0.0,0.0,0.0,0.0,0.0,0.0,0.0,0.0,0.0,0.0,0.0,0.0,0.0,0.0,0.0,0.0,0.0,0.0,0.0,0.0,0.0,0.0,0.0,0.0,0.0,0.0,0.0,0.0,0.0,0.0,0.0,0.0,0.0,0.0,0.0,0.0,0.0,0.0,0.0,0.0,0.0,0.0,0.0,0.0,0.0,1.0098,1.0098,0.9998,1.0006,0.9999,0.9716,0.9572,0.9572,0.9234,0.8927,0.0,0.0,0.0,0.0,0.0,0.0,0.0,0.0,0.0,0.0,0.0,0.0,0.0,0.0,0.0,0.0,0.0,0.0,0.0,0.0,0.0,0.0,0.0,0.0,0.0,0.0,0.0,0.0,0.3904,0.4019,0.4183,0.0,0.0,0.0,0.0,0.0,0.0,0.0,0.0,0.0,0.0,0.5262,0.5366,0.558,0.0,0.0,0.625,0.6451,0.6654,0.6518,0.6382,0.6382,0.6183,0.0,0.0,0.0,0.0,0.0,0.0,0.0,0.0,0.0,0.0,0.0,0.0,0.0,0.0,0.0,0.0,0.0,0.0,0.0,0.0,0.0,0.0,0.0,0.0,0.0,0.0,0.0,0.0,0.0,0.0,0.0,0.0,0.0,0.0,0.0,0.0,0.0,0.0,0.0,0.0,0.0,0.0,0.0,0.0,0.0,0.0,0.0,0.0,0.0,0.0,0.0,0.0,1.0496,1.0496,1.037,1.0363,1.0312,1.0253,1.0143,1.0036,0.9981,0.9702,0.0,0.0,0.0,0.0,0.0,0.0,0.0,0.0,0.0,0.0,0.0,0.0,0.0,0.0,0.0,0.0,0.0,0.0,0.0,0.0,0.0,0.0,0.0,0.0,0.0,0.0,0.0,0.0,0.4628,0.4816,0.4862,0.0,0.0,0.0,0.0,0.0,0.0,0.0,0.0,0.0,0.0,0.5954,0.6038,0.625,0.6451,0.6788,0.6987,0.7257,0.7459,0.7323,0.7121,0.7121,0.0,0.0,0.0,0.0,0.0,0.0,0.0,0.0,0.0,0.0,0.0,0.0,0.0,0.0,0.0,0.0,0.0,0.0,0.0,0.0,0.0,0.0,0.0,0.0,0.0,0.0,0.0,1.0789,0.0,0.0,1.0789,0.0,0.0,0.0,0.0,0.0,0.0,0.0,0.0,0.0,0.0,0.0,0.0,0.0,0.0,0.0,0.0,0.0,0.0,0.0,0.0,0.0,0.0,1.1527,1.1518,1.1518,1.1514,1.1514,1.124,1.0911,1.0692,1.0417,1.0147,0.9816,0.0,0.0,0.0,0.0,0.0,0.0,0.0,0.0,0.0,0.0,0.0,0.0,0.0,0.0,0.0,0.0,0.0,0.0,0.0,0.0,0.0,0.0,0.0,0.0,0.0,0.0,0.475,0.484,0.4928,0.0,0.0,0.0,0.0,0.0,0.0,0.0,0.0,0.0,0.6624,0.7043,0.7407,0.7443,0.7459,0.7459,0.7459,0.7459,0.7526,0.7526,0.7526,0.7529,0.0,0.0,0.0,0.0,0.0,0.0,0.0,0.0,0.0,0.0,0.0,0.0,0.0,0.0,0.0,0.0,0.0,0.0,0.0,0.0,0.0,0.0,0.0,0.0,0.0,0.0,0.0,1.2053,1.2057,0.0,0.0,0.0,0.0,0.0,0.0,0.0,0.0,0.0,0.0,0.0,1.2013,1.2009,0.0,0.0,0.0,0.0,0.0,0.0,0.0,0.0,0.0,0.0,0.0,0.0,1.1568,1.1568,1.1568,1.1568,1.1568,1.1514,1.1404,1.1295,1.1185,1.0911,1.0417,0.0,0.0,0.0,0.0,0.0,0.0,0.0,0.0,0.0,0.0,0.0,0.0,0.0,0.0,0.0,0.0,0.0,0.0,0.0,0.0,0.0,0.0,0.0,0.0,0.0,0.5788,0.0,0.0,0.0,0.0,0.0,0.0,0.0,0.0,0.0,0.0,0.0,0.6937,0.7173,0.7342,0.7486,0.7522,0.7529,0.7593,0.0,0.0,0.0,0.0,0.0,0.0,0.0,0.0,0.0,0.0,0.0,0.0,0.0,0.0,0.8259,0.7323,0.7125,0.7257,0.7655,0.0,0.0,0.0,0.0,0.0,0.0,0.0,0.0,0.0,0.0,0.0,0.0,0.0,0.0,1.3024,1.3024,1.3024,0.0,0.0,0.0,0.0,0.0,0.0,0.0,0.0,1.2781,1.2675,1.2606,1.2606,1.2618,1.2654,1.2654,1.2538,0.0,0.0,0.0,0.0,0.0,0.0,0.0,0.0,1.2169,1.2169,1.2169,1.2223,1.2169,1.2223,1.2169,1.2064,1.1841,1.1514,1.1021,1.0857,1.0582,0.0,0.0,0.0,0.0,0.0,0.0,0.0,0.0,0.0,0.0,0.0,0.0,0.0,0.0,0.0,0.0,0.0,0.0,0.0,0.0,0.0,0.0,0.0,0.6436,0.0,0.0,0.0,0.0,0.0,0.0,0.0,0.0,0.0,0.7099,0.7268,0.7439,0.7742,0.7921,0.8125,0.8261,0.0,0.0,0.0,0.0,0.0,0.0,0.0,0.9731,0.9731,0.9731,0.9731,0.9731,0.9731,0.9731,0.9731,0.0,0.0,0.8462,0.8261,0.8328,0.8595,0.8662,0.8726,0.8923,0.9256,0.9452,0.0,0.0,0.0,0.0,1.459,0.0,0.0,0.0,1.3868,1.3748,0.0,1.3748,0.0,0.0,0.0,0.0,1.3757,1.3609,0.0,0.0,1.3843,1.3784,1.3578,1.3568,1.3517,1.3325,1.332,1.332,1.332,1.3103,0.0,0.0,0.0,0.0,0.0,0.0,1.332,1.3266,1.3261,1.3266,1.3266,1.3266,1.3152,1.2881,1.2332,1.1951,1.1678,1.1623,1.1459,1.1131,1.0852,0.0,0.0,0.0,0.0,0.0,0.0,0.0,0.0,0.0,0.0,0.0,0.0,0.0,0.0,0.0,0.0,0.0,0.0,0.0,0.0,0.6517,0.0,0.0,0.0,0.0,0.0,0.0,0.0,0.0,0.0,0.8116,0.7358,0.7521,0.795,0.8464,0.0,0.0,0.0,0.0,0.9664,0.9664,0.9664,0.9731,0.9728,0.9731,0.9797,0.9803,0.0,0.0,0.9813,0.981,0.9819,0.981,0.9889,0.9806,0.9816,0.967,0.9661,0.9731,0.9728,0.9728,0.9794,1.0057,1.0256,1.6059,0.0,0.0,0.0,0.0,1.4997,1.4818,1.4818,1.4471,1.4351,1.4351,1.4351,0.0,0.0,0.0,0.0,0.0,0.0,1.3618,1.3669,1.3523,1.3417,1.3406,1.3411,1.3588,1.3954,1.3959,1.4116,1.4498,1.445,1.4013,1.3315,0.0,0.0,0.0,0.0,1.332,1.332,1.332,1.332,1.332,1.332,1.3266,1.3212,1.3044,1.2822,1.2555,1.2278,1.206,1.1732,1.1514,0.0,0.0,0.0,0.0,0.0,0.0,0.0,0.0,0.0,0.0,0.0,0.0,0.0,0.0,0.0,0.0,0.0,0.0,0.0,0.7734,0.7827,0.7956,0.0,0.0,0.0,0.0,0.0,0.0,0.0,0.0,0.0,0.8669,0.8779,0.8951,0.0,0.0,0.9594,0.9664,0.9731,0.9731,0.9731,0.9927,0.0,1.0389,1.0585,1.0884,1.1256,1.1439,1.1582,1.1514,1.1514,1.1582,1.1582,1.1582,1.1585,1.1503,1.0725,1.0272,1.0651,1.0787,1.0853,1.1118,1.1251,1.1321,1.7355,1.6944,1.6473,1.6124,1.5946,1.5763,1.565,1.5645,1.5413,1.5359,1.5359,1.5359,1.5306,1.5205,1.4871,0.0,0.0,0.0,1.4166,1.416,1.4028,1.3959,1.3964,1.3964,1.4175,1.4493,1.4546,1.4713,1.5041,1.5041,1.4659,1.4013,0.0,1.3959,1.3959,1.3959,1.3964,1.3964,1.3964,1.3964,1.3964,1.3851,1.3743,1.3635,1.3532,1.3315,1.3098,1.2881,1.2659,1.2495,1.2278,1.206,0.0,0.0,0.0,0.0,0.0,0.0,0.0,0.0,0.0,0.0,0.0,0.8654,0.8543,0.0,0.0,0.0,0.8374,0.8431,0.8634,0.8599,0.0,0.0,0.0,0.0,0.0,0.0,0.0,0.9037,0.9282,0.9609,0.9872,1.0065,1.0123,0.9896,0.9927,0.9927,1.006,0.0,1.0256,1.0256,1.0635,1.1006,1.1206,1.146,1.1734,1.2029,1.2194,1.2333,1.2268,1.2268,1.2337,1.2475,1.2544,1.2609,1.2884,1.2233,1.1634,1.1634,1.1634,1.1769,1.2176,1.231,1.2511,1.8473,1.8357,1.7185,1.6655,1.6655,1.6655,1.6591,1.6596,1.6537,1.6537,1.6537,1.6455,1.6302,1.6023,1.5618,0.0,1.5367,1.5084,1.4987,1.5041,1.5041,1.5041,1.5041,1.4987,1.5041,1.5041,1.5041,1.5041,1.5089,1.5089,1.5089,1.5089,1.5095,1.5041,1.5041,1.4982,1.5041,1.4987,1.4987,1.4987,1.4982,1.4767,1.4493,1.4277,1.3959,1.3694,1.3478,1.3423,1.3369,1.3369,1.3098,1.2767,1.2491,0.0,0.0,0.0,0.0,0.0,0.0,0.0,0.0,0.0,0.0,0.0,0.0,0.0,0.0,0.0,0.8978,0.0,0.9267,0.9127,0.0,0.0,0.0,0.9037,0.9037,0.9037,0.9162,0.9413,0.0,0.0,1.0785,1.1324,1.1279,1.0439,1.0323,1.0455,1.0721,1.1052,1.1251,1.1206,1.165,1.2015,1.2034,1.2304,1.2547,1.2559,1.2505,1.2605,1.2605,1.2601,1.2727,1.3092,1.3072,1.3283,1.3954,1.3963,1.3744,1.272,1.2547,1.2601,1.2997,1.3271,1.3537,1.9352,1.9062,1.8525,1.8175,1.7948,1.7649,1.7473,1.725,1.7003,1.6767,1.6467,1.6279,1.5949,1.5578,1.5464,1.5304,1.5067,1.5064,1.5041,1.5041,1.5041,1.5041,1.5041,1.5041,1.5148,1.5374,1.5369,1.5476,1.5678,1.5678,1.5678,1.5678,1.5678,1.5464,1.5035,1.5041,1.5041,1.5041,1.5041,1.5041,1.4982,1.4934,1.4874,1.4826,1.4713,1.4665,1.4606,1.4229,1.3954,1.3954,1.3478,1.3152,1.3093,1.3044,0.0,0.0,0.0,0.0,0.0,0.0,0.0,0.0,0.0,1.0143,1.0091,0.0,0.9647,0.0,0.9592,0.9709,0.9986,0.999,0.0,0.0,1.0343,1.0365,1.0365,1.0365,1.0415,1.0663,1.0882,1.1105,1.1392,1.1616,1.167,1.1446,1.1449,1.1446,1.1516,1.1582,1.1692,1.1795,1.1922,1.2127,1.2604,1.3242,1.3706,1.3776,1.4032,1.4343,1.4343,1.4343,1.4418,1.4484,1.4489,1.4555,1.4758,1.4766,1.4692,1.4397,1.4184,1.3976,1.4113,1.419,1.4254,1.9931,1.9751,1.9577,1.9403,1.9171,1.8467,1.8064,1.7889,1.7713,1.7471,1.7163,1.6735,1.6351,1.601,1.5843,1.5653,1.5416,1.541,1.541,1.541,1.5405,1.541,1.541,1.541,1.5523,1.5684,1.569,1.5737,1.5885,1.5998,1.6057,1.6051,1.6205,1.6099,1.5779,1.5517,1.541,1.541,1.541,1.541,1.541,1.5256,1.5208,1.5208,1.5095,1.5041,1.4982,1.4713,1.4552,1.4552,1.4229,1.3959,1.3743,1.3689,1.3527,0.0,0.0,0.0,0.0,0.0,0.0,0.0,0.0,0.0,0.0,0.0,1.0582,1.0582,1.0659,1.0815,1.1081,1.1065,1.1161,1.1366,1.1333,1.1212,1.1031,1.1031,1.1035,1.1086,1.1313,1.161,1.1831,1.2069,1.2243,1.2239,1.2379,1.2312,1.1912,1.1912,1.2102,1.2254,1.262,1.3038,1.3702,1.418,1.4529,1.4608,1.4765,1.5048,1.5048,1.5048,1.5119,1.5403,1.5545,1.5612,1.5966,1.6037,1.6042,1.6009,1.5854,1.5635,1.5344,1.5408,1.5542,2.0507,2.0385,2.0392,2.0385,2.0213,1.9113,1.859,1.8532,1.85,1.8244,1.7868,1.733,1.6932,1.6713,1.6483,1.6217,1.5998,1.5992,1.5992,1.5998,1.5992,1.5998,1.5998,1.5998,1.5992,1.5998,1.5992,1.5992,1.5992,1.6211,1.6318,1.6377,1.6571,1.667,1.667,1.6205,1.5992,1.5998,1.5945,1.5945,1.5945,1.569,1.5535,1.5535,1.5256,1.5095,1.5143,1.5095,1.5095,1.5041,1.5041,1.4821,1.4331,1.4277,1.4062,0.0,1.3423,0.0,0.0,0.0,0.0,0.0,0.0,0.0,0.0,1.1678,1.1623,1.1623,1.1804,1.1942,1.2069,1.2091,1.2103,1.2273,1.2057,1.1816,1.1511,1.145,1.1472,1.136,1.1768,1.2055,1.2322,1.2677,1.2968,1.2964,1.3231,1.3099,1.2312,1.2398,1.268,1.2835,1.3512,1.4189,1.4731,1.4964,1.5106,1.5115,1.5257,1.5261,1.5403,1.5399,1.5545,1.6183,1.632,1.6532,1.7168,1.7238,1.7238,1.7168,1.7213,1.7062,1.6498,1.6489,1.6875,2.1489,2.1031,2.1039,2.0744,2.027,2.004,1.9635,1.91,1.8876,1.8199,1.7279,1.7165,1.6933,1.6712,1.6655,1.6577,1.6518,1.6524,1.6518,1.6571,1.6577,1.6571,1.6571,1.6577,1.6577,1.6571,1.6571,1.6524,1.6518,1.6571,1.6624,1.663,1.6683,1.667,1.6677,0.0,0.0,0.0,1.6318,1.6217,1.6217,1.5945,1.5838,1.5838,1.5785,0.0,1.5731,1.5523,1.5428,1.5374,1.5148,0.0,0.0,0.0,0.0,0.0,0.0,0.0,0.0,0.0,0.0,0.0,1.3098,1.2881,1.2663,1.2219,1.1951,1.1955,1.1919,1.1942,1.2069,1.2266,1.2458,1.2573,1.2539,1.2479,1.2419,1.2419,1.2547,1.2886,1.2963,1.3118,1.3431,1.3665,1.3678,1.3682,1.3748,1.3748,1.3486,1.3614,1.3914,1.4108,1.4479,1.4806,1.4964,1.5328,1.5607,1.5895,1.6174,1.6457,1.6744,1.682,1.6815,1.7097,1.7097,1.7097,1.7308,1.7314,1.7379,1.7308,1.7585,1.7655,1.7168,1.7168,1.7238,2.1945,2.166,2.166,2.1368,0.0,2.0967,2.0537,1.9761,1.9489,1.8758,1.7766,1.7507,1.7197,1.6955,1.6955,1.6842,1.667,1.667,1.667,1.667,1.667,1.667,1.667,1.667,1.667,1.667,1.667,1.667,1.673,1.6842,1.6955,1.6955,1.7054,1.7153,1.7153,1.716,1.7001,1.667,1.6577,1.6477,1.6477,1.6365,1.6311,1.6305,1.6311,0.0,0.0,0.0,0.0,0.0,0.0,0.0,0.0,1.5208,0.0,1.4987,1.4767,1.4606,1.46,1.4283,1.4121,1.4126,1.4121,1.3851,1.3152,1.2827,1.2659,1.2668,1.2785,1.2956,1.306,1.3348,1.358,1.361,1.3624,1.3504,1.3264,1.3204,1.3238,1.3283,1.3295,1.3444,1.3822,1.3875,1.3875,1.3875,1.4076,1.4141,1.4159,1.4183,1.4338,1.4831,1.5122,1.5465,1.5749,1.5961,1.6245,1.6673,1.6885,1.7097,1.7238,1.7314,1.7379,1.752,1.759,1.7655,1.8077,1.8147,1.8217,1.8358,1.8568,1.8703,1.8493,1.8288,1.8217,2.2286,2.2173,2.2173,2.201,2.1774,2.1782,2.1218,2.0361,1.9843,0.0,0.0,1.7901,1.7536,1.7338,1.7279,1.7113,1.6842,1.6836,1.6889,1.6836,1.6836,1.6836,1.6836,1.6889,1.6842,1.6836,1.6836,1.6889,1.6889,1.7113,1.7279,1.7279,1.7483,1.7589,1.7589,1.7589,1.7371,1.6889,1.6836,1.6789,1.6789,1.673,1.667,1.667,1.667,1.6577,1.6371,1.6371,1.6264,1.6051,1.5992,1.5897,1.5642,1.5589,1.5422,1.5196,1.5095,1.5095,1.5095,1.5041,1.5041,1.5041,1.5041,1.4606,1.3581,1.3478,1.3423,1.3369,1.378,1.3982,1.3992,1.4387,1.459,1.459,1.459,1.4411,1.3933,1.3868,1.3849,1.3715,1.3734,1.3825,1.427,1.4333,1.4268,1.4333,1.4595,1.4688,1.4739,1.4712,1.4851,1.5505,1.5863,1.6174,1.6593,1.6805,1.6946,1.7303,1.7379,1.7449,1.759,1.759,1.7731,1.8212,1.8212,1.8493,1.8982,1.9058,1.9198,1.9547,1.9611,1.9616,1.968,1.9407,1.9267,2.3022,2.2513,2.2513,2.2343,2.2051,2.2059,2.1533,2.057,1.9516,1.8814,1.838,1.8083,1.7918,1.7865,1.7641,1.7536,1.7477,1.7477,1.7477,1.747,1.7477,1.7477,1.7477,1.7477,1.7483,1.7477,1.7477,1.7477,1.7477,1.7536,1.7529,1.7529,1.7582,1.7589,1.7589,1.7589,1.7582,1.747,1.7226,1.712,1.712,1.6842,1.667,1.667,1.6723,1.6683,1.6624,1.6624,1.6624,1.6571,1.6371,1.6217,1.6164,1.5951,1.5838,1.5779,1.5583,1.5428,1.5422,1.5148,1.5041,1.5041,1.5041,1.4821,1.4444,1.4229,1.3959,1.3715,1.3892,1.3987,1.4013,1.4387,1.465,1.465,1.459,1.453,1.4471,1.4476,1.4575,1.4868,1.4985,1.5153,1.549,1.5578,1.5578,1.5644,1.5578,1.5773,1.583,1.5913,1.6006,1.6433,1.6856,1.7092,1.7163,1.7238,1.7374,1.7721,1.7866,1.8077,1.8568,1.8638,1.8773,1.9262,1.9192,1.9337,1.9471,1.9541,1.9541,1.968,1.9686,1.975,1.997,1.9976,1.9901,2.3472,2.3078,2.3086,2.2796,2.2312,2.1775,2.112,2.0382,1.9676,1.9089,1.8653,1.8384,1.8122,1.7964,1.7859,1.7747,1.7589,1.7589,1.7589,1.7589,1.7589,1.7589,1.7589,1.7589,1.7589,1.7589,1.7589,1.7589,1.7589,1.7589,1.7589,1.7589,1.7589,1.7589,1.7589,1.7589,1.7589,1.7589,1.7483,1.7437,1.7378,1.7265,1.7213,1.7206,1.7153,1.7107,1.7008,1.6955,1.6895,1.667,1.6571,1.6524,1.653,1.6418,1.6258,1.6105,1.6004,1.585,1.5737,1.5571,1.5464,1.5464,1.5517,1.5357,1.5101,1.4821,1.4606,1.4461,1.4722,1.4993,1.501,1.5369,1.565,1.5655,1.5483,1.531,1.5126,1.4948,1.5002,1.5211,1.5302,1.5474,1.5918,1.5974,1.5974,1.5974,1.5974,1.606,1.6277,1.6567,1.6752,1.6857,1.7087,1.7369,1.7585,1.7655,1.7861,1.8352,1.8498,1.8708,1.9198,1.9332,1.9407,1.9541,1.9611,1.9686,1.9831,1.9831,1.9965,2.0173,2.0173,2.0243,2.0394,2.0533,2.059,2.3865,2.3585,2.3528,2.3143,2.2511,2.1627,2.091,2.0363,1.9926,1.948,1.9071,1.8691,1.8384,1.8233,1.8069,1.7859,1.7694,1.7635,1.7589,1.7589,1.7589,1.7589,1.7589,1.7589,1.7589,1.7589,1.7589,1.7589,1.7589,1.7589,1.7589,1.7589,1.7589,1.7589,1.7589,1.7589,1.7589,1.7589,1.7589,1.7589,1.7589,1.7589,1.7589,1.7589,1.7589,1.7477,1.7279,1.7279,1.7173,1.6948,1.6842,1.6789,1.6789,1.673,1.663,1.6424,1.6377,1.6318,1.6099,1.6099,1.6045,1.5998,1.5998,1.5891,1.5636,1.5363,1.5148,1.5087,1.5431,1.5778,1.5784,1.6177,1.6537,1.6478,1.6307,1.6076,1.5833,1.5591,1.5534,1.57,1.5737,1.5914,1.6229,1.6364,1.6359,1.6294,1.6229,1.6311,1.6486,1.6969,1.7261,1.7365,1.741,1.7715,1.8077,1.8147,1.8422,1.9058,1.9128,1.9267,1.9616,1.9692,1.9756,1.9825,1.9895,1.9965,2.0185,2.0255,2.0388,2.0665,2.0735,2.0798,2.0943,2.1144,2.1214,2.4153,2.3857,2.3641,2.3111,2.2442,2.1845,2.1316,2.0808,2.0075,1.968,1.9576,1.9078,1.8817,1.8764,1.8233,1.8023,1.7911,1.7687,1.7641,1.7589,1.7589,1.7589,1.7589,1.7589,1.7589,1.7589,1.7589,1.7589,1.7589,1.7589,1.7589,1.7589,1.7589,1.7589,1.7589,1.7589,1.7589,1.7589,1.7589,1.7589,1.7589,1.7589,1.7589,1.7589,1.7589,1.7582,1.7536,1.7582,1.7536,1.7483,1.7279,1.7173,1.712,1.6895,1.6677,1.6677,1.6677,1.663,1.6624,1.6624,1.6524,1.6271,1.6271,1.6158,1.5891,1.5838,1.5565,1.5277,1.5542,1.5823,1.5868,1.6235,1.6591,1.6596,1.6478,1.6419,1.6419,1.636,1.6558,1.7055,1.6909,1.7173,1.7204,1.726,1.7201,1.6942,1.6936,1.6888,1.7017,1.7413,1.7895,1.8098,1.8259,1.846,1.8773,1.8918,1.9058,1.9471,1.9547,1.9686,1.997,2.011,2.0116,2.0318,2.0533,2.0596,2.0596,2.0665,2.0735,2.1075,2.1214,2.1283,2.1559,2.1697,2.1559,2.4432,2.4153,2.3865,2.3132,2.2218,2.17,2.1194,2.0656,2.0147,1.9828,1.968,1.9331,1.9078,1.8876,1.866,1.8338,1.8016,1.7911,1.774,1.7635,1.7589,1.7589,1.7589,1.7589,1.7589,1.7589,1.7589,1.7589,1.7589,1.7589,1.7589,1.7589,1.7589,1.7589,1.7589,1.7589,1.7589,1.7589,1.7589,1.7589,1.7589,1.7589,1.7589,1.7589,1.7589,1.7589,1.7589,1.7589,1.7589,1.7582,1.7483,1.743,1.743,1.7318,1.716,1.7008,1.6789,1.667,1.667,1.667,1.6677,1.6524,1.653,1.6471,1.6418,1.6358,1.6258,1.6112,1.6215,1.6295,1.6393,1.6825,1.7062,1.7067,1.6897,1.6779,1.6779,1.6596,1.6626,1.7023,1.7211,1.7366,1.7563,1.7697,1.7706,1.7582,1.7582,1.7582,1.7594,1.793,1.8187,1.8344,1.8665,1.8943,1.9217,1.9337,1.9477,1.9761,1.9901,2.004,2.0318,2.0457,2.0527,2.0735,2.0873,2.1012,2.1006,2.1214,2.1421,2.1553,2.1553,2.1628,2.1766,2.1973,2.1973,2.471,2.447,2.3989,2.3072,2.1995,2.1592,2.1094,2.0589,2.0241,1.9983,1.9783,1.9428,1.9227,1.9026,1.8921,1.86,1.8174,1.8016,1.7852,1.7641,1.7589,1.7589,1.7589,1.7589,1.7589,1.7589,1.7589,1.7589,1.7589,1.7589,1.7589,1.7589,1.7589,1.7589,1.7589,1.7589,1.7589,1.7589,1.7589,1.7589,1.7589,1.7589,1.7589,1.7589,1.7589,1.7589,1.7589,1.7589,1.7589,1.7589,1.7589,1.7589,1.7589,1.7589,1.7536,1.7331,1.7054,1.6942,1.6942,1.6942,1.6948,1.6849,1.6842,1.6789,1.673,1.667,1.667,1.6662,1.6874,1.6974,1.7029,1.735,1.7642,1.7608,1.7373,1.7138,1.7138,1.6891,1.6931,1.7121,1.7521,1.7677,1.784,1.7925,1.7969,1.7969,1.7969,1.8033,1.805,1.8205,1.8473,1.8559,1.8959,1.9333,1.9502,1.9646,1.9883,2.011,2.0249,2.0388,2.0735,2.0804,2.0943,2.1144,2.1283,2.1352,2.1352,2.1622,2.1885,2.1966,2.1953,2.1964,2.203,2.2193,2.2277,2.4821,2.4659,2.3816,2.2844,2.1987,2.1523,2.1198,2.0822,2.0344,2.0086,1.9983,1.9524,1.9279,1.9227,1.9026,1.8705,1.837,1.8115,1.7852,1.7635,1.7589,1.7589,1.7589,1.7589,1.7589,1.7589,1.7589,1.7589,1.7589,1.7589,1.7589,1.7589,1.7589,1.7589,1.7589,1.7589,1.7589,1.7589,1.7589,1.7589,1.7589,1.7589,1.7589,1.7589,1.7589,1.7589,1.7589,1.7589,1.7589,1.7589,1.7589,1.7589,1.7589,1.7589,1.7582,1.7589,1.7529,1.7529,1.7529,1.7529,1.743,1.7226,1.7173,1.706,1.6836,1.6776,1.6783,1.6736,1.7258,1.7595,1.759,1.781,1.796,1.7966,1.7667,1.7485,1.7479,1.7485,1.7605,1.7769,1.7985,1.8238,1.8465,1.8226,1.8098,1.8098,1.8033,1.8098,1.8168,1.8395,1.87,1.893,1.9209,1.9495,1.9702,1.9904,2.019,2.0457,2.0596,2.0741,2.1006,2.1207,2.1415,2.1559,2.1691,2.176,2.176,2.1816,2.199,2.2177,2.2398,2.2468,2.2128,2.2304,2.2324,2.4543,2.4142,2.3378,2.267,2.1955,2.1354,2.0984,2.0873,2.0336,2.0138,2.0034,1.9532,1.9272,1.9272,1.9175,1.8855,1.8422,1.8325,1.8003,1.7641,1.7589,1.7589,1.7589,1.7589,1.7589,1.7589,1.7589,1.7589,1.7589,1.7589,1.7589,1.7589,1.7589,1.7589,1.7589,1.7589,1.7589,1.7589,1.7589,1.7589,1.7589,1.7589,1.7589,1.7589,1.7589,1.7589,1.7589,1.7589,1.7589,1.7589,1.7589,1.7589,1.7589,1.7589,1.7589,1.7589,1.7589,1.7589,1.7589,1.7589,1.7589,1.7483,1.7483,1.7424,1.7318,1.7265,1.7259,1.737,1.781,1.8138,1.8207,1.8212,1.8252,1.8252,1.8129,1.8071,1.8071,1.796,1.7833,1.7974,1.8191,1.8437,1.8788,1.8816,1.8682,1.8688,1.8688,1.8688,1.8688,1.8886,1.8934,1.9094,1.9297,1.9525,1.9549,1.9949,2.0305,2.0593,2.0798,2.1006,2.1207,2.1484,2.1697,2.1822,2.196,2.2026,2.1994,2.2069,2.2205,2.222,2.2519,2.2392,2.2158,2.2144,2.2098,2.4368,2.3805,2.3066,2.244,2.1924,2.1211,2.0873,2.0719,2.0292,2.0078,1.9879,1.948,1.9272,1.9272,1.9272,1.8959,1.8422,1.8422,1.8108,1.7635,1.7589,1.7589,1.7589,1.7589,1.7589,1.7589,1.7589,1.7589,1.7589,1.7589,1.7589,1.7589,1.7589,1.7589,1.7589,1.7589,1.7589,1.7589,1.7589,1.7589,1.7589,1.7589,1.7589,1.7589,1.7589,1.7589,1.7589,1.7589,1.7589,1.7589,1.7589,1.7589,1.7589,1.7589,1.7589,1.7589,1.7589,1.7589,1.7589,1.7589,1.7589,1.7589,1.7589,1.7589,1.7589,1.7589,1.7622,1.7802,1.817,1.851,1.8641,1.8671,1.8713,1.8596,1.848,1.8421,1.8421,1.8252,1.8236,1.8448,1.8622,1.8877,1.9193,1.924,1.92,1.9136,1.9136,1.9136,1.9136,1.9136,1.9136,1.9276,1.9404,1.9616,1.9834,2.0219,2.0447,2.0699,2.1028,2.1215,2.1415,2.1709,2.1921,2.2134,2.2157,2.2277,2.2288,2.2277,2.2258,2.2271,2.2211,2.2111,2.1957,2.185,2.1777,2.4209,2.3758,2.2849,2.2272,2.1908,2.1219,2.0771,2.0514,2.0241,1.9983,1.9732,1.9428,1.9272,1.9272,1.9272,1.8952,1.8475,1.837,1.8108,1.7635,1.7589,1.7589,1.7589,1.7589,1.7589,1.7589,1.7589,1.7589,1.7589,1.7589,1.7589,1.7589,1.7589,1.7589,1.7589,1.7589,1.7589,1.7589,1.7589,1.7589,1.7589,1.7589,1.7589,1.7589,1.7589,1.7589,1.7589,1.7589,1.7589,1.7589,1.7589,1.7589,1.7589,1.7589,1.7589,1.7589,1.7589,1.7589,1.7589,1.7589,1.7589,1.7589,1.7589,1.7589,1.7589,1.7589,1.7689,1.7963,1.8283,1.8584,1.8871,1.9121,1.9185,1.8939,1.8706,1.8538,1.848,1.8421,1.8625,1.9038,1.9162,1.9366,1.9524,1.9571,1.9514,1.9328,1.9264,1.9264,1.9264,1.9264,1.9328,1.9514,1.9627,1.9797,2.0192,2.0493,2.0617,2.0826,2.1074,2.1365,2.1684,2.1933,2.2111,2.224,2.2209,2.2251,2.2131,2.2051,2.2024,2.1964,2.1963,2.1804,2.1663,2.153,2.1436,2.3865,2.3551,2.2733,2.228,2.1924,2.1219,2.0771,2.0462,2.0189,1.9931,1.968,1.9435,1.9272,1.9227,1.9123,1.8803,1.8429,1.822,1.7905,1.7641,1.7589,1.7589,1.7589,1.7589,1.7589,1.7589,1.7589,1.7589,1.7589,1.7589,1.7589,1.7589,1.7589,1.7589,1.7589,1.7589,1.7589,1.7589,1.7589,1.7589,1.7589,1.7589,1.7589,1.7589,1.7589,1.7589,1.7589,1.7589,1.7589,1.7589,1.7589,1.7589,1.7589,1.7589,1.7589,1.7589,1.7589,1.7589,1.7589,1.7589,1.7589,1.7589,1.7589,1.7589,1.7589,1.7589,1.7722,1.7962,1.8317,1.8604,1.8898,1.9192,1.9352,1.9243,1.9191,1.9068,1.901,1.8881,1.8816,1.8952,1.9127,1.9413,1.9625,1.9821,1.9903,1.9781,1.9724,1.9717,1.9788,1.9724,1.9788,1.9909,1.9985,1.9985,2.0304,2.0593,2.0773,2.0925,2.1211,2.1452,2.1782,2.2049,2.2157,2.2211,2.2178,2.2064,2.1944,2.183,2.1724,2.1688,2.1537,2.1423,2.1289,2.1229,2.1203,2.3641,2.3391,2.2578,2.2172,2.1878,2.1115,2.0617,2.0351,2.0086,1.9828,1.9524,1.9376,1.9272,1.9227,1.9026,1.8705,1.8422,1.8122,1.7859,1.7635,1.7589,1.7589,1.7589,1.7589,1.7589,1.7589,1.7589,1.7589,1.7589,1.7589,1.7589,1.7589,1.7589,1.7589,1.7589,1.7589,1.7589,1.7589,1.7589,1.7589,1.7589,1.7589,1.7589,1.7589,1.7589,1.7589,1.7589,1.7589,1.7589,1.7589,1.7589,1.7589,1.7589,1.7589,1.7589,1.7589,1.7589,1.7589,1.7589,1.7589,1.7589,1.7589,1.7589,1.7589,1.7589,1.7589,1.7756,1.817,1.8384,1.8651,1.9032,1.9245,1.9417,1.9424,1.9366,1.9424,1.9359,1.9236,1.9193,1.9232,1.9445,1.9675,1.9904,2.0118,2.0221,2.0176,2.0113,2.0113,2.0113,2.0113,2.0176,2.0234,2.0297,2.0361,2.0488,2.0654,2.0821,2.1037,2.1325,2.1542,2.18,2.1972,2.2104,2.1951,2.183,2.1697,2.1577,2.1483,2.1376,2.1276,2.1243,2.1209,2.1169,2.1156,2.1136,2.3472,2.3319,2.236,2.1965,2.1816,2.0906,2.03,2.0086,1.9828,1.9576,1.9324,1.9324,1.9279,1.9227,1.8966,1.8646,1.8377,1.8062,1.7859,1.7641,1.7589,1.7589,1.7589,1.7589,1.7589,1.7589,1.7589,1.7589,1.7589,1.7589,1.7589,1.7589,1.7589,1.7589,1.7589,1.7589,1.7589,1.7589,1.7589,1.7589,1.7589,1.7589,1.7589,1.7589,1.7589,1.7589,1.7589,1.7589,1.7589,1.7589,1.7589,1.7589,1.7589,1.7589,1.7589,1.7589,1.7589,1.7589,1.7589,1.7589,1.7589,1.7589,1.7589,1.7589,1.7589,1.7655,1.7883,1.837,1.851,1.8758,1.9205,1.9417,1.9424,1.9424,1.9424,1.9424,1.9424,1.9366,1.9414,1.9667,1.9973,2.0206,2.0169,2.0393,2.0449,2.0297,2.0234,2.0297,2.0297,2.0361,2.0361,2.0482,2.0609,2.0672,2.0799,2.0799,2.0965,2.1038,2.1275,2.1421,2.1593,2.1692,2.1764,2.161,2.1594,2.1376,2.1283,2.1236,2.1196,2.1169,2.1142,2.1109,2.1102,2.1102,2.1102,2.3135,2.2999,2.2088,2.1696,2.1548,2.0637,2.0042,1.9828,1.9724,1.9532,1.9324,1.9272,1.9175,1.8974,1.8698,1.8377,1.8122,1.7852,1.7694,1.7641,1.7589,1.7589,1.7589,1.7589,1.7589,1.7589,1.7589,1.7589,1.7589,1.7589,1.7589,1.7589,1.7589,1.7589,1.7589,1.7589,1.7589,1.7589,1.7589,1.7589,1.7589,1.7589,1.7589,1.7589,1.7589,1.7589,1.7589,1.7589,1.7589,1.7589,1.7589,1.7589,1.7589,1.7589,1.7589,1.7589,1.7589,1.7589,1.7589,1.7589,1.7589,1.7589,1.7589,1.7589,1.7595,1.7796,1.809,1.845,1.8671,1.8951,1.9336,1.9424,1.9424,1.9424,1.9424,1.9424,1.9424,1.943,1.9464,1.9571,1.9927,2.0173,2.0312,2.0601,2.0843,2.0792,2.0792,2.0792,2.0666,2.0729,2.0729,2.0856,2.0982,2.0982,2.1046,2.1039,2.1052,2.1059,2.1126,2.1152,2.1252,2.1336,2.1309,2.1229,2.1303,2.1216,2.1176,2.1136,2.1109,2.1102,2.1102,2.1102,2.1102,2.1102,2.1102,2.2732,2.2572,2.1868,2.1503,2.131,2.0468,1.9963,1.9695,1.9576,1.9428,1.9272,1.9168,1.9026,1.8869,1.8436,1.8167,1.7964,1.7694,1.7641,1.7589,1.7589,1.7589,1.7589,1.7589,1.7589,1.7589,1.7589,1.7589,1.7589,1.7589,1.7589,1.7589,1.7589,1.7589,1.7589,1.7589,1.7589,1.7589,1.7589,1.7589,1.7589,1.7589,1.7589,1.7589,1.7589,1.7589,1.7589,1.7589,1.7589,1.7589,1.7589,1.7589,1.7589,1.7589,1.7589,1.7589,1.7589,1.7589,1.7589,1.7589,1.7589,1.7589,1.7589,1.7589,1.7635,1.7862,1.8115,1.8464,1.8751,1.9045,1.935,1.9424,1.9424,1.9424,1.9424,1.9424,1.9424,1.9424,1.9424,1.9558,1.9846,2.0173,2.0247,2.0755,2.1022,2.1039,2.1039,2.1039,2.1039,2.1102,2.1102,2.1102,2.1102,2.1102,2.1046,2.1102,2.1102,2.1109,2.1109,2.1102,2.1102,2.1102,2.1116,2.1129,2.1109,2.1102,2.1102,2.1102,2.1102,2.1102,2.1102,2.1102,2.1102,2.1102,2.1102,2.24,2.2078,2.1686,2.1359,2.0962,2.0422,1.9919,1.9613,1.9428,1.9272,1.9175,1.8974,1.8869,1.8772,1.8227,1.7971,1.7905,1.7694,1.7641,1.7589,1.7589,1.7589,1.7589,1.7589,1.7589,1.7589,1.7589,1.7589,1.7589,1.7589,1.7589,1.7589,1.7589,1.7589,1.7589,1.7589,1.7589,1.7589,1.7589,1.7589,1.7589,1.7589,1.7589,1.7589,1.7589,1.7589,1.7589,1.7589,1.7589,1.7589,1.7589,1.7589,1.7589,1.7589,1.7589,1.7589,1.7589,1.7589,1.7589,1.7589,1.7589,1.7589,1.7589,1.7615,1.7709,1.7963,1.8215,1.8571,1.8804,1.9098,1.9357,1.9424,1.9424,1.9424,1.9424,1.9424,1.9424,1.9424,1.9424,1.9464,1.988,2.0174,2.0374,2.0695,2.1102,2.1102,2.1102,2.1102,2.1102,2.1102,2.1102,2.1102,2.1102,2.1102,2.1102,2.1102,2.1102,2.1102,2.1109,2.1102,2.1102,2.1102,2.1102,2.1102,2.1102,2.1102,2.1102,2.1102,2.1102,2.1102,2.1102,2.1102,2.1102,2.1102,2.1102,2.2165,2.2029,2.1526,2.1091,2.0698,2.0162,1.9685,1.939,1.9331,1.9175,1.9026,1.8921,1.86,1.8233,1.8069,1.7911,1.774,1.7641,1.7589,1.7589,1.7589,1.7589,1.7589,1.7589,1.7589,1.7589,1.7589,1.7589,1.7589,1.7589,1.7589,1.7589,1.7589,1.7589,1.7589,1.7589,1.7589,1.7589,1.7589,1.7589,1.7589,1.7589,1.7589,1.7589,1.7589,1.7589,1.7589,1.7589,1.7589,1.7589,1.7589,1.7589,1.7589,1.7589,1.7589,1.7589,1.7589,1.7589,1.7589,1.7589,1.7589,1.7589,1.7622,1.7689,1.7956,1.8223,1.8517,1.8804,1.9092,1.9265,1.9403,1.9424,1.9424,1.9424,1.9424,1.9424,1.9424,1.9424,1.9424,1.9499,1.9873,2.018,2.0267,2.0762,2.1036,2.1082,2.1102,2.1102,2.1102,2.1102,2.1102,2.1102,2.1102,2.1102,2.1102,2.1102,2.1102,2.1102,2.1102,2.1102,2.1102,2.1102,2.1102,2.1102,2.1102,2.1102,2.1102,2.1102,2.1102,2.1102,2.1102,2.1102,2.1102,2.1102,2.1102,2.1839,2.1645,2.1353,2.1044,2.0663,2.0175,1.9745,1.9348,1.9181,1.8966,1.8698,1.8548,1.8286,1.8016,1.7859,1.7687,1.7635,1.7589,1.7589,1.7589,1.7589,1.7589,1.7589,1.7589,1.7589,1.7589,1.7589,1.7589,1.7589,1.7589,1.7589,1.7589,1.7589,1.7589,1.7589,1.7589,1.7589,1.7589,1.7589,1.7589,1.7589,1.7589,1.7589,1.7589,1.7589,1.7589,1.7589,1.7589,1.7589,1.7589,1.7589,1.7589,1.7589,1.7589,1.7589,1.7589,1.7589,1.7589,1.7589,1.7589,1.7589,1.7602,1.7709,1.7869,1.8069,1.843,1.8731,1.8945,1.9165,1.9424,1.9424,1.9424,1.9424,1.9424,1.9424,1.9424,1.9424,1.9424,1.9497,1.9593,1.9967,2.0261,2.0535,2.0875,2.1029,2.1102,2.1102,2.1102,2.1102,2.1102,2.1102,2.1102,2.1102,2.1102,2.1102,2.1102,2.1102,2.1102,2.1102,2.1102,2.1102,2.1102,2.1102,2.1102,2.1102,2.1102,2.1102,2.1102,2.1102,2.1102,2.1102,2.1102,2.1102,2.1102,2.1102,2.1439,2.1211,2.1211,2.0964,2.0657,2.031,1.982,1.9245,1.9002,1.8716,1.8331,1.8069,1.8016,1.7911,1.7694,1.7641,1.7589,1.7589,1.7589,1.7589,1.7589,1.7589,1.7589,1.7589,1.7589,1.7589,1.7589,1.7589,1.7589,1.7589,1.7589,1.7589,1.7589,1.7589,1.7589,1.7589,1.7589,1.7589,1.7589,1.7589,1.7589,1.7589,1.7589,1.7589,1.7589,1.7589,1.7589,1.7589,1.7589,1.7589,1.7589,1.7589,1.7589,1.7589,1.7589,1.7589,1.7589,1.7589,1.7589,1.7589,1.7595,1.7642,1.7876,1.8049,1.8235,1.8562,1.8885,1.9058,1.9232,1.9424,1.9424,1.9424,1.9424,1.9424,1.9424,1.9424,1.9437,1.9457,1.9573,1.9753,2.0027,2.0294,2.0595,2.0909,2.1015,2.1102,2.1102,2.1102,2.1102,2.1102,2.1102,2.1102,2.1102,2.1102,2.1102,2.1102,2.1102,2.1102,2.1102,2.1102,2.1102,2.1102,2.1102,2.1102,2.1102,2.1102,2.1102,2.1102,2.1102,2.1102,2.1102,2.1102,2.1102,2.1102,2.1102,2.1268,2.1211,2.1211,2.0914,2.042,2.0278,1.9754,1.9041,1.8903,1.8561,1.809,1.8016,1.7852,1.7694,1.7641,1.7589,1.7589,1.7589,1.7589,1.7589,1.7589,1.7589,1.7589,1.7589,1.7589,1.7589,1.7589,1.7589,1.7589,1.7589,1.7589,1.7589,1.7589,1.7589,1.7589,1.7589,1.7589,1.7589,1.7589,1.7589,1.7589,1.7589,1.7589,1.7589,1.7589,1.7589,1.7589,1.7589,1.7589,1.7589,1.7589,1.7589,1.7589,1.7589,1.7589,1.7589,1.7589,1.7595,1.7629,1.7615,1.7736,1.7849,1.8015,1.8282,1.8582,1.8865,1.9052,1.9212,1.9363,1.9424,1.9424,1.9424,1.9424,1.9424,1.9424,1.9424,1.947,1.9553,1.972,1.9867,2.0107,2.0374,2.0702,2.0942,2.1036,2.1102,2.1102,2.1102,2.1102,2.1102,2.1102,2.1102,2.1102,2.1102,2.1102,2.1102,2.1102,2.1102,2.1102,2.1102,2.1102,2.1102,2.1102,2.1102,2.1102,2.1102,2.1102,2.1102,2.1102,2.1102,2.1102,2.1102,2.1102,2.1102,2.1102,2.0852,2.0737,2.0737,2.0601,2.0274,2.0104,1.9717,1.9188,1.8822,1.8446,1.8082,1.7887,1.774,1.7635,1.7589,1.7589,1.7589,1.7589,1.7589,1.7589,1.7589,1.7589,1.7589,1.7589,1.7589,1.7589,1.7589,1.7589,1.7589,1.7589,1.7589,1.7589,1.7589,1.7589,1.7589,1.7589,1.7589,1.7589,1.7589,1.7589,1.7589,1.7589,1.7589,1.7589,1.7589,1.7589,1.7589,1.7589,1.7589,1.7589,1.7589,1.7589,1.7595,1.7595,1.7595,1.7609,1.7602,1.7669,1.7782,1.7836,1.7969,1.825,1.839,1.8548,1.8878,1.9058,1.9199,1.937,1.9424,1.9424,1.9424,1.9424,1.9424,1.9424,1.9424,1.9424,1.9491,1.9646,1.9833,2.0013,2.0321,2.0608,2.0855,2.1029,2.1082,2.1102,2.1102,2.1102,2.1102,2.1102,2.1102,2.1102,2.1102,2.1102,2.1102,2.1102,2.1102,2.1102,2.1102,2.1102,2.1102,2.1102,2.1102,2.1102,2.1102,2.1102,2.1102,2.1102,2.1102,2.1102,2.1102,2.1102,2.1102,2.1102,2.1102,2.0493,2.027,2.027,2.027,2.0171,1.9897,1.9638,1.9226,1.8823,1.8381,1.8009,1.7802,1.7655,1.7595,1.7589,1.7589,1.7589,1.7589,1.7589,1.7589,1.7589,1.7589,1.7589,1.7589,1.7589,1.7589,1.7589,1.7589,1.7589,1.7589,1.7589,1.7589,1.7589,1.7589,1.7589,1.7589,1.7589,1.7589,1.7589,1.7589,1.7589,1.7589,1.7589,1.7589,1.7589,1.7589,1.7589,1.7589,1.7589,1.7589,1.7595,1.7615,1.7662,1.7669,1.7702,1.7742,1.7716,1.7829,1.7909,1.8075,1.8263,1.8551,1.8784,1.8918,1.9058,1.9219,1.941,1.9424,1.9424,1.9424,1.9424,1.9424,1.9424,1.9424,1.943,1.947,1.9546,1.9753,2.006,2.0294,2.0581,2.0795,2.1002,2.1056,2.1096,2.1102,2.1102,2.1102,2.1102,2.1102,2.1102,2.1102,2.1102,2.1102,2.1102,2.1102,2.1102,2.1102,2.1102,2.1102,2.1102,2.1102,2.1102,2.1102,2.1102,2.1102,2.1102,2.1102,2.1102,2.1102,2.1102,2.1102,2.1102,2.1102,2.1102,2.0328,2.027,2.027,2.0155,1.9866,1.9818,1.9489,1.8988,1.8881,1.851,1.8069,1.7949,1.7842,1.7655,1.7589,1.7589,1.7589,1.7589,1.7589,1.7589,1.7589,1.7609,1.7609,1.7589,1.7669,1.7702,1.7669,1.7589,1.7662,1.7662,1.7609,1.7615,1.7669,1.7615,1.7716,1.7729,1.7589,1.7609,1.7615,1.7629,1.7635,1.7649,1.7649,1.7642,1.7649,1.7669,1.7702,1.7709,1.7682,1.7655,1.7629,1.7736,1.7876,1.7942,1.815,1.8217,1.817,1.7955,1.8082,1.8317,1.8564,1.8804,1.8938,1.9072,1.9212,1.9299,1.9424,1.9424,1.9424,1.9424,1.9424,1.9424,1.9424,1.9444,1.9464,1.9533,1.9693,2.0,2.0294,2.0494,2.0762,2.0915,2.1089,2.1096,2.1102,2.1102,2.1102,2.1102,2.1102,2.1102,2.1102,2.1102,2.1102,2.1102,2.1102,2.1102,2.1102,2.1102,2.1102,2.1102,2.1102,2.1102,2.1102,2.1102,2.1102,2.1102,2.1102,2.1102,2.1102,2.1102,2.1102,2.1102,2.1102,2.1102,2.1102,1.9764,1.9822,1.9764,1.9707,1.9591,1.9597,1.9408,1.9158,1.8991,1.8728,1.8544,1.8302,1.813,1.7862,1.7682,1.7589,1.7589,1.7609,1.7589,1.7615,1.7629,1.7689,1.7829,1.7862,1.7896,1.8036,1.809,1.8136,1.8056,1.7923,1.7842,1.7862,1.8003,1.813,1.8029,1.8083,1.8103,1.811,1.8103,1.8103,1.8096,1.809,1.809,1.809,1.8083,1.807,1.807,1.8096,1.8096,1.8096,1.8096,1.815,1.8263,1.8303,1.8377,1.845,1.8544,1.8544,1.8577,1.8671,1.8871,1.9085,1.9172,1.9245,1.941,1.9424,1.9424,1.9424,1.9424,1.9424,1.9424,1.9424,1.9424,1.945,1.9499,1.9666,1.99,2.0274,2.0561,2.0742,2.0902,2.1015,2.1102,2.1102,2.1102,2.1102,2.1102,2.1102,2.1102,2.1102,2.1102,2.1102,2.1102,2.1102,2.1102,2.1102,2.1102,2.1102,2.1102,2.1102,2.1102,2.1102,2.1102,2.1102,2.1102,2.1102,2.1102,2.1102,2.1102,2.1102,2.1102,2.1102,2.1102,2.1102,2.1102,1.9424,1.9424,1.9424,1.9424,1.9424,1.9424,1.9424,1.939,1.9145,1.8998,1.8858,1.8617,1.835,1.817,1.7956,1.7883,1.7889,1.7809,1.7809,1.7809,1.7836,1.7963,1.8103,1.8176,1.8263,1.849,1.8404,1.841,1.8397,1.835,1.8257,1.8122,1.831,1.8424,1.847,1.8437,1.841,1.841,1.8424,1.843,1.8444,1.845,1.8457,1.847,1.849,1.8497,1.8497,1.8464,1.8457,1.845,1.843,1.845,1.8564,1.8597,1.8677,1.8778,1.8911,1.8985,1.8991,1.9045,1.9158,1.9336,1.9424,1.9339,1.941,1.9424,1.9424,1.9424,1.9424,1.9424,1.9424,1.9424,1.9491,1.9526,1.9659,1.9826,2.0034,2.0408,2.0708,2.0889,2.1002,2.1042,2.1102,2.1102,2.1102,2.1102,2.1102,2.1102,2.1102,2.1102,2.1102,2.1102,2.1102,2.1102,2.1102,2.1102,2.1102,2.1102,2.1102,2.1102,2.1102,2.1102,2.1102,2.1102,2.1102,2.1102,2.1102,2.1102,2.1102,2.1102,2.1102,2.1102,2.1102,2.1102,2.1102,1.9424,1.9424,1.9424,1.9424,1.9424,1.9424,1.9424,1.9424,1.9397,1.9172,1.8945,1.8644,1.851,1.8437,1.8384,1.8337,1.8397,1.8424,1.835,1.8357,1.843,1.839,1.8444,1.847,1.8497,1.8557,1.8624,1.8604,1.8577,1.8784,1.8644,1.8517,1.8624,1.8544,1.8564,1.8651,1.8637,1.8631,1.8624,1.8604,1.8591,1.8577,1.8571,1.8551,1.8524,1.8497,1.8504,1.8577,1.8604,1.8611,1.8624,1.8704,1.8858,1.8891,1.8985,1.9132,1.9205,1.9259,1.9316,1.9323,1.9377,1.9417,1.9424,1.9424,1.9424,1.9424,1.9424,1.9424,1.9424,1.9457,1.9444,1.945,1.9533,1.9746,1.994,2.0134,2.0327,2.0541,2.0822,2.1009,2.1089,2.1102,2.1102,2.1102,2.1102,2.1102,2.1102,2.1102,2.1102,2.1102,2.1102,2.1102,2.1102,2.1102,2.1102,2.1102,2.1102,2.1102,2.1102,2.1102,2.1102,2.1102,2.1102,2.1102,2.1102,2.1102,2.1102,2.1102,2.1102,2.1102,2.1102,2.1102,2.1102,2.1102,2.1102,1.9424,1.9424,1.9424,1.9424,1.9424,1.9424,1.9424,1.9424,1.9424,1.9319,1.9172,1.8905,1.8758,1.8718,1.8551,1.8497,1.8497,1.849,1.851,1.8497,1.8497,1.8597,1.8671,1.8784,1.8838,1.8965,1.9068,1.9089,1.9078,1.9118,1.9132,1.9052,1.8978,1.9038,1.9032,1.8971,1.9042,1.9055,1.9011,1.9025,1.9032,1.9032,1.9089,1.9032,1.9032,1.9032,1.9038,1.9089,1.9032,1.9011,1.8998,1.9065,1.9132,1.9158,1.9239,1.9403,1.9424,1.9424,1.9424,1.9424,1.9424,1.9424,1.9424,1.9424,1.9424,1.9424,1.9424,1.9424,1.9444,1.9446,1.9619,1.9653,1.9753,2.0013,2.0234,2.0428,2.0608,2.0788,2.0895,2.1062,2.1096,2.1102,2.1102,2.1102,2.1102,2.1102,2.1102,2.1102,2.1102,2.1102,2.1102,2.1102,2.1102,2.1102,2.1102,2.1102,2.1102,2.1102,2.1102,2.1102,2.1102,2.1102,2.1102,2.1102,2.1102,2.1102,2.1102,2.1102,2.1102,2.1102,2.1102,2.1102,2.1102,2.1102,2.1102,1.9424,1.9424,1.9424,1.9424,1.9424,1.9424,1.9424,1.9424,1.9424,1.9424,1.9352,1.9138,1.9052,1.8985,1.8878,1.8784,1.8804,1.8798,1.8778,1.8791,1.8831,1.8885,1.8998,1.9078,1.9138,1.9403,1.9424,1.939,1.9363,1.941,1.9383,1.9377,1.9424,1.939,1.939,1.9424,1.9424,1.9424,1.9424,1.9424,1.9403,1.9397,1.9397,1.9383,1.937,1.9363,1.935,1.9336,1.9357,1.9363,1.9377,1.9397,1.9417,1.9424,1.9424,1.9424,1.9424,1.9424,1.9424,1.9424,1.9424,1.9424,1.9424,1.9424,1.9424,1.9424,1.9424,1.9437,1.9439,1.9586,1.9826,1.986,2.0054,2.0314,2.0441,2.0621,2.0795,2.0969,2.1015,2.1102,2.1102,2.1102,2.1102,2.1102,2.1102,2.1102,2.1102,2.1102,2.1102,2.1102,2.1102,2.1102,2.1102,2.1102,2.1102,2.1102,2.1102,2.1102,2.1102,2.1102,2.1102,2.1102,2.1102,2.1102,2.1102,2.1102,2.1102,2.1102,2.1102,2.1102,2.1102,2.1102,2.1102,2.1102,2.1102,1.9424,1.9424,1.9424,1.9424,1.9424,1.9424,1.9424,1.9424,1.9424,1.9424,1.9424,1.9377,1.9377,1.9363,1.9276,1.9256,1.9269,1.9296,1.9303,1.9269,1.9172,1.935,1.9363,1.937,1.9299,1.9403,1.9424,1.9424,1.9424,1.9424,1.9424,1.9424,1.9424,1.9424,1.9424,1.9424,1.9424,1.9424,1.9424,1.9424,1.9424,1.9424,1.9424,1.9424,1.9424,1.9424,1.9424,1.9424,1.9424,1.9424,1.9424,1.9424,1.9424,1.9424,1.9424,1.9424,1.9424,1.9424,1.9424,1.9424,1.9424,1.9424,1.9424,1.9424,1.9424,1.9424,1.947,1.9459,1.9606,1.9766,1.9913,2.0074,2.0361,2.0581,2.0708,2.0795,2.0969,2.1049,2.1082,2.1102,2.1102,2.1102,2.1102,2.1102,2.1102,2.1102,2.1102,2.1102,2.1102,2.1102,2.1102,2.1102,2.1102,2.1102,2.1102,2.1102,2.1102,2.1102,2.1102,2.1102,2.1102,2.1102,2.1102,2.1102,2.1102,2.1102,2.1102,2.1102,2.1102,2.1102,2.1102,2.1102,2.1102,2.1102,2.1102,1.9424,1.9424,1.9424,1.9424,1.9424,1.9424,1.9424,1.9424,1.9424,1.9424,1.9424,1.9424,1.9424,1.9424,1.9424,1.9424,1.9424,1.9424,1.9424,1.9424,1.9424,1.9424,1.9424,1.9424,1.9424,1.9424,1.9424,1.9424,1.9424,1.9424,1.9424,1.9424,1.9424,1.9424,1.9424,1.9424,1.9424,1.9424,1.9424,1.9424,1.9424,1.9424,1.9424,1.9424,1.9424,1.9424,1.9424,1.9424,1.9424,1.9424,1.9424,1.9424,1.9424,1.9424,1.9424,1.9424,1.9424,1.9424,1.9424,1.9424,1.9424,1.9424,1.9424,1.9424,1.943,1.9424,1.9459,1.9619,1.9786,2.0007,2.0327,2.0441,2.0661,2.0882,2.0995,2.1002,2.1089,2.1089,2.1102,2.1102,2.1102,2.1102,2.1102,2.1102,2.1102,2.1102,2.1102,2.1102,2.1102,2.1102,2.1102,2.1102,2.1102,2.1102,2.1102,2.1102,2.1102,2.1102,2.1102,2.1102,2.1102,2.1102,2.1102,2.1102,2.1102,2.1102,2.1102,2.1102,2.1102,2.1102,2.1102,2.1102,2.1102,2.1102,2.1102,1.9424,1.9424,1.9424,1.9424,1.9424,1.9424,1.9424,1.9424,1.9424,1.9424,1.9424,1.9424,1.9424,1.9424,1.9424,1.9424,1.9424,1.9424,1.9424,1.9424,1.9424,1.9424,1.9424,1.9424,1.9424,1.9424,1.9424,1.9424,1.9424,1.9424,1.9424,1.9424,1.9424,1.9424,1.9424,1.9424,1.9424,1.9424,1.9424,1.9424,1.9424,1.9424,1.9424,1.9424,1.9424,1.9424,1.9424,1.9424,1.9424,1.9424,1.9424,1.9424,1.9424,1.9424,1.9424,1.9424,1.9424,1.9424,1.9424,1.9424,1.9424,1.9424,1.9424,1.9477,1.9486,1.9546,1.9713,1.9867,2.0007,2.0274,2.0588,2.0764,2.0882,2.1096,2.1102,2.1102,2.1102,2.1102,2.1102,2.1102,2.1102,2.1102,2.1102,2.1102,2.1102,2.1102,2.1102,2.1102,2.1102,2.1102,2.1102,2.1102,2.1102,2.1102,2.1102,2.1102,2.1102,2.1102,2.1102,2.1102,2.1102,2.1102,2.1102,2.1102,2.1102,2.1102,2.1102,2.1102,2.1102,2.1102,2.1102,2.1102,2.1102,2.1102,2.1102,1.9424,1.9424,1.9424,1.9424,1.9424,1.9424,1.9424,1.9424,1.9424,1.9424,1.9424,1.9424,1.9424,1.9424,1.9424,1.9424,1.9424,1.9424,1.9424,1.9424,1.9424,1.9424,1.9424,1.9424,1.9424,1.9424,1.9424,1.9424,1.9424,1.9424,1.9424,1.9424,1.9424,1.9424,1.9424,1.9424,1.9424,1.9424,1.9424,1.9424,1.9424,1.9424,1.9424,1.9424,1.9424,1.9424,1.9424,1.9424,1.9424,1.9424,1.9424,1.9424,1.9424,1.9424,1.9424,1.9424,1.9424,1.9424,1.9437,1.9437,1.9497,1.9524,1.9479,1.9573,1.9679,1.978,1.9973,2.0194,2.0381,2.0541,2.0728,2.0889,2.1049,2.1102,2.1102,2.1102,2.1102,2.1102,2.1102,2.1102,2.1102,2.1102,2.1102,2.1102,2.1102,2.1102,2.1102,2.1102,2.1102,2.1102,2.1102,2.1102,2.1102,2.1102,2.1102,2.1102,2.1102,2.1102,2.1102,2.1102,2.1102,2.1102,2.1102,2.1102,2.1102,2.1102,2.1102,2.1102,2.1102,2.1102,2.1102,2.1102,2.1102,2.1102,2.1102,1.9424,1.9424,1.9424,1.9424,1.9424,1.9424,1.9424,1.9424,1.9424,1.9424,1.9424,1.9424,1.9424,1.9424,1.9424,1.9424,1.9424,1.9424,1.9424,1.9424,1.9424,1.9424,1.9424,1.9424,1.9424,1.9424,1.9424,1.9424,1.9424,1.9424,1.9424,1.9424,1.9424,1.9424,1.9424,1.9424,1.9424,1.9424,1.9424,1.9424,1.9424,1.9424,1.9424,1.9424,1.9424,1.9424,1.9424,1.9424,1.9424,1.9424,1.9424,1.9424,1.9424,1.9424,1.9424,1.9424,1.9424,1.943,1.9457,1.9566,1.9679,1.9726,1.984,1.984,1.9913,2.0027,2.0247,2.0488,2.0648,2.0762,2.0869,2.1015,2.1102,2.1102,2.1102,2.1102,2.1102,2.1102,2.1102,2.1102,2.1102,2.1102,2.1102,2.1102,2.1102,2.1102,2.1102,2.1102,2.1102,2.1102,2.1102,2.1102,2.1102,2.1102,2.1102,2.1102,2.1102,2.1102,2.1102,2.1102,2.1102,2.1102,2.1102,2.1102,2.1102,2.1102,2.1102,2.1102,2.1102,2.1102,2.1102,2.1102,2.1102,2.1102,2.1102,1.9424,1.9424,1.9424,1.9424,1.9424,1.9424,1.9424,1.9424,1.9424,1.9424,1.9424,1.9424,1.9424,1.9424,1.9424,1.9424,1.9424,1.9424,1.9424,1.9424,1.9424,1.9424,1.9424,1.9424,1.9424,1.9424,1.9424,1.9424,1.9424,1.9424,1.9424,1.9424,1.9424,1.9424,1.9424,1.9424,1.9424,1.9424,1.9424,1.9424,1.9424,1.9424,1.9424,1.9424,1.9424,1.9424,1.9424,1.9424,1.9424,1.9424,1.9424,1.9424,1.9424,1.9424,1.9424,1.9444,1.9512,1.9546,1.9613,1.9833,1.9933,2.0047,2.0234,2.0281,2.0287,2.0361,2.0575,2.0788,2.0842,2.0909,2.1015,2.1102,2.1102,2.1102,2.1102,2.1102,2.1102,2.1102,2.1102,2.1102,2.1102,2.1102,2.1102,2.1102,2.1102,2.1102,2.1102,2.1102,2.1102,2.1102,2.1102,2.1102,2.1102,2.1102,2.1102,2.1102,2.1102,2.1102,2.1102,2.1102,2.1102,2.1102,2.1102,2.1102,2.1102,2.1102,2.1102,2.1102,2.1102,2.1102,2.1102,2.1102,2.1102,2.1102,2.1102,1.9424,1.9424,1.9424,1.9424,1.9424,1.9424,1.9424,1.9424,1.9424,1.9424,1.9424,1.9424,1.9424,1.9424,1.9424,1.9424,1.9424,1.9424,1.9424,1.9424,1.9424,1.9424,1.9424,1.9424,1.9424,1.9424,1.9424,1.9424,1.9424,1.9424,1.9424,1.9424,1.9424,1.9424,1.9424,1.9424,1.9457,1.9492,1.9466,1.9446,1.9444,1.9424,1.9424,1.9424,1.9424,1.9424,1.9424,1.9424,1.9424,1.9424,1.9424,1.9424,1.9491,1.9571,1.9564,1.9553,1.974,1.98,1.9907,2.0107,2.0227,2.0361,2.0528,2.0635,2.0668,2.0668,2.0848,2.0942,2.0989,2.1002,2.1082,2.1102,2.1102,2.1102,2.1102,2.1102,2.1102,2.1102,2.1102,2.1102,2.1102,2.1102,2.1102,2.1102,2.1102,2.1102,2.1102,2.1102,2.1102,2.1102,2.1102,2.1102,2.1102,2.1102,2.1102,2.1102,2.1102,2.1102,2.1102,2.1102,2.1102,2.1102,2.1102,2.1102,2.1102,2.1102,2.1102,2.1102,2.1102,2.1102,2.1102,2.1102,2.1102,2.1102,2.1102,1.9424,1.9424,1.9424,1.9424,1.9424,1.9424,1.9424,1.9424,1.9424,1.9424,1.9424,1.9424,1.9424,1.9424,1.9424,1.9424,1.9424,1.9424,1.9424,1.9424,1.9424,1.9424,1.9424,1.9424,1.9424,1.9424,1.9424,1.9424,1.9424,1.9424,1.9424,1.9424,1.9444,1.947,1.947,1.9477,1.9526,1.9686,1.9693,1.9599,1.9479,1.9457,1.9424,1.9444,1.9399,1.9439,1.9491,1.947,1.9444,1.9424,1.9424,1.9537,1.9679,1.9893,2.0,2.004,2.0067,2.0114,2.0207,2.0388,2.0541,2.0648,2.0795,2.0935,2.1009,2.1002,2.1022,2.1076,2.1102,2.1102,2.1102,2.1102,2.1102,2.1102,2.1102,2.1102,2.1102,2.1102,2.1102,2.1102,2.1102,2.1102,2.1102,2.1102,2.1102,2.1102,2.1102,2.1102,2.1102,2.1102,2.1102,2.1102,2.1102,2.1102,2.1102,2.1102,2.1102,2.1102,2.1102,2.1102,2.1102,2.1102,2.1102,2.1102,2.1102,2.1102,2.1102,2.1102,2.1102,2.1102,2.1102,2.1102,2.1102,2.1102,2.1102,1.9424,1.9424,1.9424,1.9424,1.9424,1.9424,1.9424,1.9424,1.9424,1.9424,1.9424,1.9424,1.9424,1.9424,1.9424,1.9424,1.9424,1.9424,1.9424,1.9424,1.9424,1.9424,1.9424,1.9424,1.9424,1.9424,1.9424,1.9424,1.9424,1.9424,1.9424,1.9464,1.9511,1.9559,1.9573,1.9666,1.9806,1.9987,1.9993,1.99,1.974,1.974,1.9746,1.9753,1.974,1.9733,1.9753,1.9753,1.9753,1.976,1.9793,1.9833,1.9993,2.0107,2.0194,2.0254,2.0314,2.0428,2.0508,2.0655,2.0842,2.0922,2.0962,2.1062,2.1069,2.1056,2.1056,2.1102,2.1102,2.1102,2.1102,2.1102,2.1102,2.1102,2.1102,2.1102,2.1102,2.1102,2.1102,2.1102,2.1102,2.1102,2.1102,2.1102,2.1102,2.1102,2.1102,2.1102,2.1102,2.1102,2.1102,2.1102,2.1102,2.1102,2.1102,2.1102,2.1102,2.1102,2.1102,2.1102,2.1102,2.1102,2.1102,2.1102,2.1102,2.1102,2.1102,2.1102,2.1102,2.1102,2.1102,2.1102,2.1102,2.1102,2.1102,1.9424,1.9424,1.9424,1.9424,1.9424,1.9424,1.9424,1.9424,1.9424,1.9424,1.9424,1.9424,1.9424,1.9424,1.9424,1.9424,1.9424,1.9424,1.9424,1.9424,1.9424,1.9424,1.9424,1.9424,1.9424,1.9424,1.9424,1.9424,1.9424,1.9484,1.9492,1.9499,1.9653,1.9853,1.9927,2.006,2.0214,2.0267,2.0301,2.0327,2.0301,2.0207,2.0187,2.0194,2.0173,2.0173,2.0227,2.0221,2.0153,2.0234,2.0207,2.0261,2.0321,2.0401,2.0434,2.0508,2.0635,2.0708,2.0775,2.0915,2.1022,2.1089,2.1102,2.1102,2.1102,2.1102,2.1102,2.1102,2.1102,2.1102,2.1102,2.1102,2.1102,2.1102,2.1102,2.1102,2.1102,2.1102,2.1102,2.1102,2.1102,2.1102,2.1102,2.1102,2.1102,2.1102,2.1102,2.1102,2.1102,2.1102,2.1102,2.1102,2.1102,2.1102,2.1102,2.1102,2.1102,2.1102,2.1102,2.1102,2.1102,2.1102,2.1102,2.1102,2.1102,2.1102,2.1102,2.1102,2.1102,2.1102,2.1102,2.1102,2.1102,2.1102,2.1102,1.9424,1.9424,1.9424,1.9424,1.9424,1.9424,1.9424,1.9424,1.9424,1.9424,1.9424,1.9424,1.9424,1.9424,1.9424,1.9424,1.9424,1.9424,1.9424,1.9424,1.9424,1.9424,1.9424,1.9424,1.9424,1.9424,1.9424,1.943,1.9517,1.9613,1.972,1.974,2.0007,2.0147,2.016,2.0294,2.0408,2.0514,2.0621,2.0655,2.0702,2.0575,2.0207,2.0173,2.0173,2.0173,2.0234,2.0173,2.0173,2.0301,2.0461,2.0561,2.0635,2.0735,2.0802,2.0795,2.0922,2.0942,2.1009,2.1049,2.1102,2.1102,2.1102,2.1102,2.1102,2.1102,2.1102,2.1102,2.1102,2.1102,2.1102,2.1102,2.1102,2.1102,2.1102,2.1102,2.1102,2.1102,2.1102,2.1102,2.1102,2.1102,2.1102,2.1102,2.1102,2.1102,2.1102,2.1102,2.1102,2.1102,2.1102,2.1102,2.1102,2.1102,2.1102,2.1102,2.1102,2.1102,2.1102,2.1102,2.1102,2.1102,2.1102,2.1102,2.1102,2.1102,2.1102,2.1102,2.1102,2.1102,2.1102,2.1102,2.1102,2.1102,2.1102]}]]